Date StartTime U_cm/s V_cm/s W_cm/s Ustd_cm/s Vstd_cm/s Wstd_cm/s Uvar_(cm/s)^2 Vvar_(cm/s)^2 Wvar_(cm/s)^2 KE_(m/s)^2 TurbulentKE_(m/s)^2 HorizWindSpeed_cm/s FrictionSpeec_cm/s DragCoef SpeedOfSound_m/s SonicTemperature_C Pressure_mb 
09/22/2013  00:00:00     -137.246       11.016      -12.857       89.374       58.210       36.545     7987.642     3388.436     1335.544        1.591        0.636      137.687       36.237        0.069      337.408        9.361      855.878
09/22/2013  00:01:00     -243.039      -81.360      -15.471      109.156       56.437       39.764    11915.084     3185.122     1581.168        4.130        0.834      256.296       37.488        0.021      337.434        9.402      855.890
09/22/2013  00:02:00     -249.042      -63.125      -25.459       78.331       38.690       30.031     6135.816     1496.908      901.852        3.759        0.427      256.918       29.324        0.013      337.424        9.384      855.914
09/22/2013  00:03:00     -108.492      -76.450       -5.347       67.182       61.145       39.346     4513.456     3738.731     1548.091        1.372        0.490      132.722       23.895        0.032      337.443        9.420      855.930
09/22/2013  00:04:00     -205.280      -51.934        1.074      133.779       73.596       43.885    17896.896     5416.310     1925.903        3.503        1.262      211.747       51.000        0.058      337.436        9.407      855.936
09/22/2013  00:05:00     -227.953      -22.591        1.129      115.828       81.138       48.966    13416.097     6583.338     2397.716        3.743        1.120      229.069       51.916        0.051      337.437        9.407      855.933
09/22/2013  00:06:00     -261.860      -20.371       -7.792       91.360       94.700       49.261     8346.631     8968.096     2426.660        4.439        0.987      262.651       44.427        0.029      337.429        9.393      855.930
09/22/2013  00:07:00     -334.549      -60.323      -17.686      114.033       91.921       48.838    13003.569     8449.474     2385.165        6.985        1.192      339.944       38.420        0.013      337.391        9.329      855.918
09/22/2013  00:08:00     -263.505      -64.304      -18.500      112.377       73.893       46.217    12628.624     5460.118     2136.009        4.706        1.011      271.237       37.247        0.019      337.413        9.367      855.902
09/22/2013  00:09:00     -149.994      -36.226       -8.522       72.915       53.676       29.666     5316.585     2881.072      880.045        1.648        0.454      154.306       23.042        0.022      337.463        9.452      855.887
09/22/2013  00:10:00     -222.299     -122.460       -9.463       98.186       86.472       57.364     9640.441     7477.456     3290.587        4.245        1.020      253.798       47.784        0.035      337.429        9.392      855.879
09/22/2013  00:11:00     -243.382      -44.524      -24.437       57.021       63.334       31.940     3251.419     4011.180     1020.183        3.505        0.414      247.421       24.832        0.010      337.454        9.434      855.889
09/22/2013  00:12:00     -183.543      -33.971      -10.985       84.373       62.769       38.721     7118.849     3939.975     1499.347        2.376        0.628      186.660       41.236        0.049      337.421        9.379      855.887
09/22/2013  00:13:00     -162.494      -71.534        0.167       86.018       51.310       32.310     7399.140     2632.698     1043.941        2.130        0.554      177.543       35.939        0.041      337.439        9.411      855.875
09/22/2013  00:14:00     -207.093      -26.710      -16.702       66.835       52.994       34.519     4466.895     2808.398     1191.542        2.617        0.423      208.808       34.557        0.027      337.409        9.361      855.890
09/22/2013  00:15:00     -152.229      -27.423        0.144       73.888       58.947       31.844     5459.500     3474.694     1014.058        1.694        0.497      154.679       25.317        0.027      337.431        9.398      855.897
09/22/2013  00:16:00     -161.756      -45.561      -14.729      102.394       91.542       27.632    10484.536     8379.943      763.552        2.404        0.981      168.050       29.800        0.031      337.435        9.405      855.885
09/22/2013  00:17:00     -199.143      -56.410      -20.104       72.307       79.899       45.753     5228.260     6383.867     2093.380        2.847        0.685      206.979       34.787        0.028      337.440        9.411      855.899
09/22/2013  00:18:00     -152.383      -39.765      -12.372       67.274       44.949       25.848     4525.740     2020.381      668.097        1.608        0.361      157.485       12.808        0.007      337.425        9.389      855.920
09/22/2013  00:19:00     -130.411      -20.682      -10.176       75.952       63.482       29.038     5768.658     4029.927      843.187        1.409        0.532      132.041       21.643        0.027      337.455        9.440      855.915
09/22/2013  00:20:00     -118.491      -14.190        3.382      144.846       87.708       43.463    20980.278     7692.743     1889.016        2.240        1.528      119.338       61.679        0.267      337.462        9.452      855.926
09/22/2013  00:21:00     -272.335       23.715       -8.349      129.028      108.609       52.312    16648.122    11795.812     2736.582        5.298        1.559      273.366       38.386        0.020      337.429        9.394      855.939
09/22/2013  00:22:00     -248.473      -66.647      -16.365      118.579       88.792       48.076    14060.931     7883.958     2311.318        4.535        1.213      257.256       53.232        0.043      337.442        9.415      855.934
09/22/2013  00:23:00     -280.710       -6.775      -28.849      116.489       54.231       36.735    13569.657     2941.044     1349.470        4.876        0.893      280.792       44.316        0.025      337.413        9.368      855.923
09/22/2013  00:24:00     -209.569      -73.583       -6.207      108.145       80.541       41.450    11695.277     6486.818     1718.127        3.463        0.995      222.112       33.483        0.023      337.423        9.384      855.916
09/22/2013  00:25:00     -252.690      -79.617       -3.191       77.326       71.695       42.363     5979.279     5140.141     1794.633        4.156        0.646      264.936       45.154        0.029      337.417        9.373      855.905
09/22/2013  00:26:00     -204.045      -75.925       -2.539       77.697       44.337       31.091     6036.875     1965.742      966.632        2.819        0.448      217.713       34.647        0.025      337.458        9.442      855.900
09/22/2013  00:27:00     -250.491      -11.808      -19.762       98.859       68.404       40.273     9773.030     4679.141     1621.951        3.967        0.804      250.769       42.981        0.029      337.456        9.440      855.898
09/22/2013  00:28:00     -324.029     -105.147      -12.849      136.572       98.738       55.698    18651.890     9749.262     3102.274        7.385        1.575      340.662       55.067        0.026      337.440        9.412      855.891
09/22/2013  00:29:00     -248.979      -69.304      -18.547      108.003       87.927       48.688    11664.576     7731.178     2370.501        4.445        1.088      258.445       49.957        0.037      337.444        9.419      855.906
09/22/2013  00:30:00     -196.478      -31.414      -13.029       78.478       55.929       39.180     6158.801     3128.090     1535.043        2.529        0.541      198.974       42.624        0.046      337.451        9.431      855.923
09/22/2013  00:31:00     -151.134      -15.153      -11.352       58.362       53.422       34.434     3406.117     2853.941     1185.711        1.532        0.372      151.892       25.712        0.029      337.469        9.465      855.921
09/22/2013  00:32:00     -125.223        4.020      -19.707       35.971       41.409       20.645     1293.942     1714.725      426.235        0.976        0.172      125.288       13.565        0.012      337.512        9.535      855.941
09/22/2013  00:33:00      -79.658      -52.219       10.877       70.106       64.259       34.106     4914.887     4129.201     1163.229        0.970        0.510       95.248       40.107        0.177      337.541        9.586      855.949
09/22/2013  00:34:00     -136.388      -13.236       -9.005       67.004       60.387       35.455     4489.490     3646.603     1257.062        1.412        0.470      137.029       27.674        0.041      337.517        9.543      855.965
09/22/2013  00:35:00     -227.774      -14.432       -7.835       98.559       62.554       44.468     9713.973     3913.045     1977.379        3.387        0.780      228.230       48.021        0.044      337.497        9.507      855.977
09/22/2013  00:36:00     -245.498       -1.913      -15.906       87.315       64.469       37.175     7623.834     4156.193     1381.964        3.684        0.658      245.505       45.060        0.034      337.489        9.494      855.980
09/22/2013  00:37:00     -200.306       40.119      -23.975      114.290       67.921       39.296    13062.316     4613.237     1544.160        3.076        0.961      204.284       42.610        0.044      337.502        9.517      855.969
09/22/2013  00:38:00      -69.173       30.068        4.271       44.788       49.687       34.784     2005.997     2468.821     1209.961        0.569        0.284       75.425       27.739        0.135      337.575        9.641      855.964
09/22/2013  00:39:00      -26.269        9.512       10.326       40.071       27.489       28.549     1605.716      755.653      815.024        0.203        0.159       27.938       23.585        0.713      337.592        9.671      855.954
09/22/2013  00:40:00      -59.971       27.007      -19.587       38.914       46.367       25.039     1514.281     2149.931      626.949        0.450        0.215       65.772       17.711        0.073      337.573        9.637      855.949
09/22/2013  00:41:00     -138.198      -26.496      -11.842       62.589       55.383       38.229     3917.345     3067.298     1461.421        1.419        0.422      140.715       33.935        0.058      337.580        9.649      855.955
09/22/2013  00:42:00     -126.557      -55.602       -4.445       75.022       57.996       22.610     5628.276     3363.490      511.207        1.431        0.475      138.232       23.246        0.028      337.528        9.562      855.948
09/22/2013  00:43:00     -158.190       52.829      -24.592       76.668       71.761       41.378     5877.930     5149.663     1712.145        2.058        0.637      166.779       45.661        0.075      337.526        9.557      855.933
09/22/2013  00:44:00     -116.193       66.692      -12.191       61.547       83.887       36.277     3788.002     7037.019     1316.040        1.512        0.607      133.972       13.494        0.010      337.550        9.600      855.930
09/22/2013  00:45:00     -177.543      -64.115      -17.279       98.326       83.656       42.201     9668.055     6998.378     1780.931        2.719        0.922      188.765       24.008        0.016      337.542        9.583      855.935
09/22/2013  00:46:00     -266.527      -35.908      -23.128       83.505       84.848       45.333     6973.007     7199.221     2055.096        4.454        0.811      268.935       31.567        0.014      337.480        9.478      855.920
09/22/2013  00:47:00     -248.280      -32.573      -22.911      132.008       77.612       52.711    17426.242     6023.618     2778.433        4.472        1.311      250.408       65.541        0.069      337.489        9.494      855.893
09/22/2013  00:48:00     -223.501       -5.457      -31.877       77.603       82.069       40.485     6022.252     6735.362     1639.064        3.269        0.720      223.568       32.052        0.021      337.493        9.501      855.871
09/22/2013  00:49:00     -304.541      -46.840      -34.786       86.498       77.046       49.127     7481.891     5936.125     2413.445        5.599        0.792      308.122       42.341        0.019      337.503        9.517      855.862
09/22/2013  00:50:00     -267.056      -79.098      -12.726       91.200       83.746       58.164     8317.525     7013.384     3383.083        4.822        0.936      278.523       45.097        0.026      337.509        9.526      855.849
09/22/2013  00:51:00     -231.244      -46.450       -9.153      108.336       96.904       43.111    11736.699     9390.355     1858.529        3.935        1.149      235.864       43.091        0.033      337.502        9.515      855.850
09/22/2013  00:52:00     -269.644      -48.023      -14.443       58.718       57.954       41.977     3447.820     3358.717     1762.100        4.189        0.428      273.887       37.764        0.019      337.483        9.482      855.862
09/22/2013  00:53:00     -192.369      -36.273       -1.379       77.413       71.242       44.525     5992.828     5075.491     1982.518        2.568        0.653      195.759       41.985        0.046      337.470        9.464      855.865
09/22/2013  00:54:00     -176.236      -39.503        3.067       65.939       47.256       30.355     4347.998     2233.126      921.396        2.006        0.375      180.609       33.277        0.034      337.472        9.468      855.867
09/22/2013  00:55:00     -319.812      -96.396      -17.084       90.043       87.932       45.453     8107.718     7732.020     2065.980        6.488        0.895      334.023       42.901        0.016      337.477        9.474      855.864
09/22/2013  00:56:00     -262.487      -60.539       -5.110       73.097       59.466       39.836     5343.163     3536.176     1586.903        4.153        0.523      269.377       34.385        0.016      337.471        9.464      855.861
09/22/2013  00:57:00     -206.593      -34.967       -2.349      101.662       82.451       49.247    10335.129     6798.209     2425.255        3.173        0.978      209.532       56.320        0.072      337.498        9.510      855.881
09/22/2013  00:58:00     -407.895      -14.655      -38.274      100.469      109.507       58.481    10093.945    11991.687     3420.000        9.678        1.275      408.158       57.993        0.020      337.483        9.485      855.885
09/22/2013  00:59:00     -285.694        9.102      -28.727      131.940       77.421       52.539    17408.071     5994.080     2760.380        5.434        1.308      285.839       58.311        0.042      337.507        9.524      855.917
09/22/2013  01:00:00     -191.934      -37.928      -17.200       70.271       86.719       33.882     4937.977     7520.267     1147.956        2.609        0.680      195.646       24.284        0.015      337.536        9.573      855.939
09/22/2013  01:01:00     -110.697      -20.602       -0.738       74.513       69.798       43.186     5552.259     4871.821     1865.026        1.248        0.614      112.597       41.912        0.139      337.555        9.608      855.953
09/22/2013  01:02:00     -177.241      -48.493       -3.303       78.212       82.875       35.628     6117.193     6868.321     1269.355        2.401        0.713      183.755       22.660        0.015      337.538        9.579      855.956
09/22/2013  01:03:00      -91.749       17.240        4.438       90.597       61.680       37.848     8207.886     3804.402     1432.448        1.109        0.672       93.354       42.714        0.209      337.539        9.579      855.966
09/22/2013  01:04:00     -135.062       35.850      -11.758       52.589       55.477       31.133     2765.599     3077.705      969.243        1.324        0.341      139.739       28.620        0.042      337.494        9.505      855.971
09/22/2013  01:05:00     -200.344       16.740      -25.880       59.192       47.762       27.592     3503.690     2281.221      761.323        2.382        0.327      201.042       19.173        0.009      337.520        9.547      855.967
09/22/2013  01:06:00     -174.485      -28.618      -11.747       56.226       47.626       30.373     3161.418     2268.266      922.500        1.888        0.318      176.816       28.168        0.025      337.476        9.474      855.960
09/22/2013  01:07:00     -179.317       40.414      -16.013       76.054      106.389       44.800     5784.275    11318.629     2007.019        2.657        0.955      183.815       39.632        0.046      337.469        9.460      855.963
09/22/2013  01:08:00     -158.809      147.655      -22.692      122.522      110.165       57.307    15011.707    12136.391     3284.058        3.898        1.522      216.846       57.423        0.070      337.397        9.341      855.973
09/22/2013  01:09:00      -91.249      114.972       -6.656       53.834       85.637       42.513     2898.108     7333.659     1807.360        1.681        0.602      146.782       28.910        0.039      337.371        9.299      855.980
09/22/2013  01:10:00      -82.274       83.614      -17.545       48.297       75.313       34.225     2332.607     5672.082     1171.356        1.162        0.459      117.304       29.907        0.065      337.339        9.246      855.985
09/22/2013  01:11:00      -94.416      -25.630        3.193       76.371       70.554       39.987     5832.546     4977.811     1598.927        1.099        0.620       97.833       41.485        0.180      337.470        9.466      855.977
09/22/2013  01:12:00      -58.139       81.095      -15.662       49.606       44.856       23.946     2460.792     2012.019      573.394        0.762        0.252       99.782       26.822        0.072      337.353        9.268      855.988
09/22/2013  01:13:00     -119.868       67.894      -25.177       68.690       87.386       33.891     4718.382     7636.304     1148.573        1.655        0.675      137.761       49.716        0.130      337.363        9.283      855.999
09/22/2013  01:14:00      -77.116      -13.884       -9.631       63.618       72.219       36.909     4047.308     5215.582     1362.304        0.843        0.531       78.356       32.967        0.177      337.408        9.361      855.999
09/22/2013  01:15:00     -236.226      -46.504      -19.633       66.907       84.155       36.261     4476.484     7082.101     1314.859        3.561        0.644      240.760       42.577        0.031      337.371        9.296      856.003
09/22/2013  01:16:00     -130.889      -23.377      -15.739       55.667       71.630       32.591     3098.803     5130.845     1062.186        1.361        0.465      132.960       20.862        0.025      337.382        9.317      856.002
09/22/2013  01:17:00      -57.329       57.625      -13.115       43.182       43.062       26.687     1864.652     1854.368      712.181        0.560        0.222       81.285       20.562        0.064      337.333        9.234      855.996
09/22/2013  01:18:00       -1.044       71.659        0.378       49.170       37.724       24.447     2417.673     1423.089      597.673        0.479        0.222       71.667       24.288        0.115      337.402        9.352      855.966
09/22/2013  01:19:00      -43.440      104.541      -12.908       40.803       31.158       23.041     1664.896      970.817      530.887        0.807        0.158      113.207       22.983        0.041      337.386        9.325      855.960
09/22/2013  01:20:00      -79.781       88.684      -15.976       24.427       30.426       21.629      596.677      925.751      467.809        0.824        0.100      119.289       15.969        0.018      337.390        9.332      855.956
09/22/2013  01:21:00      -44.318       12.458        8.485       31.406       18.558       16.062      986.307      344.383      257.999        0.189        0.079       46.036       15.464        0.113      337.424        9.388      855.942
09/22/2013  01:22:00       12.665       65.350        0.422       21.774       40.913       20.686      474.110     1673.898      427.897        0.350        0.129       66.566       22.224        0.111      337.408        9.362      855.930
09/22/2013  01:23:00       -4.841       90.449       -9.188       19.351       25.179       14.934      374.453      633.969      223.013        0.476        0.062       90.579        8.017        0.008      337.409        9.363      855.929
09/22/2013  01:24:00      -37.507       99.628      -15.545       31.021       41.118       15.190      962.272     1690.710      230.725        0.723        0.144      106.454       10.898        0.010      337.352        9.269      855.925
09/22/2013  01:25:00        9.376       24.137        4.932       21.008       17.274       13.682      441.335      298.407      187.193        0.081        0.046       25.894       10.581        0.167      337.379        9.312      855.917
09/22/2013  01:26:00       18.051        0.121       -0.403       31.786       15.256        8.880     1010.373      232.751       78.851        0.082        0.066       18.051       10.210        0.320      337.359        9.279      855.925
09/22/2013  01:27:00        9.874      -34.261       -8.190       13.430       16.632       10.899      180.365      276.630      118.788        0.096        0.029       35.656        7.644        0.046      337.373        9.301      855.931
09/22/2013  01:28:00        0.010       -1.320       11.753        9.163       17.884       15.123       83.953      319.848      228.710        0.039        0.032        1.321       13.454      103.808      337.434        9.404      855.935
09/22/2013  01:29:00        8.451       17.351       21.718       18.429       15.656       12.754      339.617      245.108      162.673        0.080        0.037       19.299       11.711        0.368      337.437        9.410      855.943
09/22/2013  01:30:00       -8.671       65.571       12.333       46.271       55.717       28.584     2141.029     3104.432      817.053        0.529        0.303       66.142       29.392        0.197      337.445        9.424      855.956
09/22/2013  01:31:00       -6.160      160.490      -20.851       22.887       57.981       20.897      523.802     3361.848      436.679        1.528        0.216      160.608       25.737        0.026      337.375        9.305      855.964
09/22/2013  01:32:00        5.437      131.775      -14.854       23.274       45.442       21.578      541.682     2065.007      465.599        1.034        0.154      131.887       24.668        0.035      337.397        9.344      855.976
09/22/2013  01:33:00       28.379      114.297       -7.036       30.808       42.399       25.706      949.147     1797.697      660.810        0.866        0.170      117.767       20.949        0.032      337.383        9.322      855.979
09/22/2013  01:34:00       15.921       95.962        1.233       41.279       48.335       27.649     1703.985     2336.244      764.475        0.713        0.240       97.274       25.873        0.071      337.382        9.318      855.983
09/22/2013  01:35:00       49.547       56.179        5.193       60.965       42.905       29.993     3716.685     1840.860      899.575        0.605        0.323       74.907       28.418        0.144      337.389        9.330      855.990
09/22/2013  01:36:00       -4.539      122.994      -25.551       30.595       51.007       22.242      936.035     2601.720      494.712        0.992        0.202      123.078       23.600        0.037      337.422        9.384      856.008
09/22/2013  01:37:00      -51.479       92.190      -14.338       26.620       55.684       21.051      708.633     3100.664      443.136        0.780        0.213      105.590       11.613        0.012      337.578        9.647      856.031
09/22/2013  01:38:00      -59.193       67.401      -14.962       28.800       40.219       21.140      829.450     1617.545      446.879        0.558        0.145       89.703       14.061        0.025      337.475        9.475      856.056
09/22/2013  01:39:00      -70.675      169.145      -19.423       41.282       54.939       29.629     1704.164     3018.317      877.852        1.979        0.280      183.316       26.768        0.021      337.476        9.473      856.068
09/22/2013  01:40:00     -136.258      117.094      -27.315       32.677       62.433       26.149     1067.771     3897.826      683.781        1.934        0.282      179.658       19.152        0.011      337.441        9.415      856.062
09/22/2013  01:41:00       -1.486      102.624       -4.007      107.075       62.702       37.277    11465.076     3931.563     1389.567        1.366        0.839      102.635       35.475        0.119      337.449        9.429      856.057
09/22/2013  01:42:00      -90.611       27.773        5.754       52.275       47.172       35.471     2732.711     2225.181     1258.196        0.761        0.311       94.772       28.645        0.091      337.474        9.471      856.072
09/22/2013  01:43:00     -113.802       43.260      -19.422       58.437       60.916       33.866     3414.861     3710.705     1146.933        1.173        0.414      121.747       23.463        0.037      337.459        9.446      856.081
09/22/2013  01:44:00     -138.957      -39.687       -5.402       80.172       66.390       47.939     6427.492     4407.673     2298.128        1.702        0.657      144.513       47.560        0.108      337.398        9.343      856.078
09/22/2013  01:45:00      -83.893      275.459      -28.881      102.622      109.296       59.642    10531.209    11945.623     3557.140        5.489        1.302      287.951       70.577        0.060      337.414        9.367      856.100
09/22/2013  01:46:00     -126.926      118.373      -15.503       84.926      108.270       55.964     7212.491    11722.382     3131.981        2.621        1.103      173.558       64.211        0.137      337.437        9.410      856.097
09/22/2013  01:47:00     -125.671       13.355      -19.047       67.519       58.652       45.191     4558.804     3440.052     2042.256        1.319        0.502      126.379       33.488        0.070      337.390        9.331      856.094
09/22/2013  01:48:00      -93.583       94.800      -11.528       64.777       88.616       39.551     4196.103     7852.810     1564.263        1.574        0.681      133.210       48.006        0.130      337.419        9.379      856.121
09/22/2013  01:49:00     -158.347      211.864      -38.792       95.782      105.644       56.552     9174.264    11160.744     3198.161        4.749        1.177      264.500       45.713        0.030      337.356        9.271      856.151
09/22/2013  01:50:00     -172.356      126.272      -21.883       70.467       82.694       47.050     4965.660     6838.302     2213.690        3.007        0.701      213.662       45.168        0.045      337.369        9.293      856.137
09/22/2013  01:51:00     -114.765      158.516       -1.811       70.888      145.325       53.897     5025.042    21119.299     2904.928        3.367        1.452      195.700       61.084        0.097      337.337        9.240      856.133
09/22/2013  01:52:00      -76.020      175.477      -14.184       62.729       91.560       47.901     3934.989     8383.267     2294.535        2.569        0.731      191.236       44.025        0.053      337.370        9.296      856.123
09/22/2013  01:53:00     -205.326       69.614      -32.176      113.118       82.273       42.770    12795.731     6768.786     1829.315        3.471        1.070      216.806       44.925        0.043      337.401        9.349      856.135
09/22/2013  01:54:00     -152.700       33.359      -24.133       48.983       84.397       43.061     2399.299     7122.936     1854.245        1.819        0.569      156.301       26.752        0.029      337.356        9.275      856.145
09/22/2013  01:55:00     -165.864       75.948      -19.634       70.129      134.566       58.403     4918.042    18107.983     3410.870        3.005        1.322      182.425       67.309        0.136      337.331        9.232      856.164
09/22/2013  01:56:00     -151.271      121.986      -21.356       86.767       68.931       44.866     7528.433     4751.448     2012.996        2.625        0.715      194.328       39.788        0.042      337.297        9.175      856.183
09/22/2013  01:57:00     -121.780       16.824       -7.651       48.434       63.964       35.902     2345.872     4091.403     1288.948        1.145        0.386      122.937       24.128        0.039      337.313        9.203      856.198
09/22/2013  01:58:00     -116.084       63.142      -10.970       61.134       76.400       38.145     3737.344     5836.926     1455.076        1.430        0.551      132.146       27.402        0.043      337.285        9.157      856.211
09/22/2013  01:59:00     -137.280       24.460      -28.413       76.202       75.526       49.625     5806.690     5704.180     2462.640        1.711        0.699      139.442       51.723        0.138      337.304        9.186      856.229
09/22/2013  02:00:00      -72.163      -55.046       -4.047       87.539       64.810       31.600     7663.034     4200.322      998.560        1.056        0.643       90.762       35.355        0.152      337.317        9.208      856.232
09/22/2013  02:01:00     -175.282       72.499      -13.915       96.058       56.727       48.789     9227.200     3218.001     2380.406        2.550        0.741      189.684       37.837        0.040      337.235        9.071      856.260
09/22/2013  02:02:00     -204.720       59.216      -25.573       79.172       69.232       35.861     6268.143     4793.030     1286.043        2.921        0.617      213.112       31.189        0.021      337.233        9.066      856.265
09/22/2013  02:03:00     -199.274      116.327      -42.245       79.271       77.585       43.145     6283.924     6019.400     1861.455        3.459        0.708      230.742       44.656        0.037      337.225        9.053      856.262
09/22/2013  02:04:00     -130.444       53.320       -5.924       47.528       42.162       26.606     2258.875     1777.653      707.902        1.232        0.237      140.921       15.655        0.012      337.220        9.046      856.252
09/22/2013  02:05:00     -192.897       27.459      -20.430       65.608       59.864       34.535     4304.378     3583.736     1192.637        2.373        0.454      194.841       31.314        0.026      337.270        9.130      856.243
09/22/2013  02:06:00     -307.287       17.934      -21.048       82.391       81.791       37.189     6788.317     6689.849     1382.988        5.502        0.743      307.810       39.221        0.016      337.293        9.165      856.240
09/22/2013  02:07:00     -240.705       29.402      -17.687       77.641       62.431       40.572     6028.191     3897.677     1646.055        3.534        0.579      242.494       36.205        0.022      337.221        9.045      856.243
09/22/2013  02:08:00     -184.497      -83.388        0.655      127.565       72.047       54.835    16272.955     5190.777     3006.830        3.273        1.224      202.466       55.028        0.074      337.240        9.078      856.239
09/22/2013  02:09:00      -61.571      -63.504       16.688      102.496       73.169       52.273    10505.431     5353.729     2732.457        1.334        0.930       88.452       47.007        0.282      337.283        9.151      856.227
09/22/2013  02:10:00     -125.249      -41.569      -11.120       66.753       47.945       29.038     4455.990     2298.707      843.221        1.257        0.380      131.967       19.825        0.023      337.266        9.122      856.238
09/22/2013  02:11:00     -184.622      -78.812      -10.736       65.210       57.140       34.715     4252.376     3265.021     1205.131        2.457        0.436      200.741       23.589        0.014      337.230        9.062      856.232
09/22/2013  02:12:00     -197.537      -62.658       -0.456       78.547       68.092       38.908     6169.594     4636.510     1513.862        2.763        0.616      207.236       41.601        0.040      337.179        8.977      856.240
09/22/2013  02:13:00     -192.204      -35.402      -10.543       72.524       53.793       39.414     5259.759     2893.678     1553.453        2.400        0.485      195.437       40.888        0.044      337.176        8.971      856.258
09/22/2013  02:14:00     -240.226      -30.096      -11.645       76.898       96.598       45.325     5913.248     9331.092     2054.312        3.802        0.865      242.104       34.624        0.020      337.194        9.000      856.269
09/22/2013  02:15:00     -147.022      -27.763        5.650       87.186       75.378       41.923     7601.343     5681.884     1757.552        1.873        0.752      149.620       42.044        0.079      337.161        8.947      856.284
09/22/2013  02:16:00     -253.977      -50.999      -14.247      110.110       80.668       53.685    12124.294     6507.404     2882.082        4.441        1.076      259.047       55.977        0.047      337.156        8.938      856.305
09/22/2013  02:17:00     -159.293      -12.575       -9.164       72.012       55.815       38.568     5185.767     3115.271     1487.458        1.770        0.489      159.789       42.919        0.072      337.107        8.856      856.309
09/22/2013  02:18:00     -189.097      -31.513      -15.829       67.134       47.474       30.131     4507.032     2253.824      907.851        2.233        0.383      191.705       29.864        0.024      337.152        8.932      856.305
09/22/2013  02:19:00     -184.038      -54.970       -2.324       64.710       46.018       25.728     4187.426     2117.632      661.923        2.193        0.348      192.072       28.185        0.022      337.115        8.866      856.304
09/22/2013  02:20:00     -142.387      -30.328       -4.289       62.843       49.700       33.740     3949.263     2470.127     1138.371        1.438        0.378      145.581       37.401        0.066      337.101        8.846      856.295
09/22/2013  02:21:00      -38.072      -49.625       22.094       92.542       91.086       38.916     8564.037     8296.695     1514.419        1.138        0.919       62.547       52.318        0.700      337.139        8.910      856.279
09/22/2013  02:22:00     -144.306     -113.908       -4.713      108.508       87.889       44.531    11773.902     7724.535     1983.023        2.765        1.074      183.846       46.603        0.064      337.141        8.915      856.278
09/22/2013  02:23:00     -122.932      -53.045        2.072       95.938       79.522       42.874     9204.113     6323.687     1838.191        1.764        0.868      133.889       47.699        0.127      337.088        8.824      856.283
09/22/2013  02:24:00     -150.388      -51.736        1.320      100.128       62.959       38.470    10025.663     3963.793     1479.915        2.038        0.773      159.039       30.395        0.037      337.102        8.847      856.288
09/22/2013  02:25:00     -106.144      -62.535        2.103      124.977       84.758       56.902    15619.263     7183.845     3237.786        2.061        1.302      123.195       60.626        0.242      337.130        8.892      856.301
09/22/2013  02:26:00     -318.882       20.974      -16.799       72.291       71.288       45.083     5226.038     5081.929     2032.453        5.737        0.617      319.571       37.363        0.014      337.103        8.845      856.340
09/22/2013  02:27:00      -92.810      -61.196       15.361      125.940       55.076       60.466    15860.870     3033.402     3656.179        1.757        1.128      111.170       77.856        0.490      337.106        8.854      856.373
09/22/2013  02:28:00     -202.141      -31.337       -5.990      101.608       68.121       49.093    10324.184     4640.491     2410.109        2.962        0.869      204.555       51.424        0.063      337.079        8.808      856.396
09/22/2013  02:29:00     -161.353      -20.001        0.432       93.744       72.318       40.794     8788.024     5229.899     1664.141        2.106        0.784      162.588       41.369        0.065      337.081        8.810      856.408
09/22/2013  02:30:00     -219.670      -51.962       -2.994       91.384       78.077       46.922     8351.030     6095.978     2201.676        3.380        0.832      225.732       48.904        0.047      337.080        8.809      856.418
09/22/2013  02:31:00     -149.942      -14.945       -2.093       59.771       61.246       36.805     3572.579     3751.127     1354.606        1.569        0.434      150.685       34.352        0.052      337.068        8.790      856.414
09/22/2013  02:32:00     -151.088      -48.511       -9.080       88.031       58.562       46.535     7749.502     3429.542     2165.527        1.930        0.667      158.684       49.430        0.097      337.038        8.740      856.423
09/22/2013  02:33:00     -191.349     -119.474      -16.682      158.902      102.648       51.642    25249.725    10536.664     2666.922        4.480        1.923      225.585       61.992        0.076      337.060        8.776      856.419
09/22/2013  02:34:00     -150.576       -1.885        4.346       76.947       71.410       46.106     5920.789     5099.340     2125.788        1.792        0.657      150.588       37.917        0.063      337.033        8.732      856.421
09/22/2013  02:35:00     -225.766      -86.881       -9.355      136.163      102.414       56.164    18540.443    10488.625     3154.350        4.539        1.609      241.906       57.817        0.057      337.056        8.768      856.420
09/22/2013  02:36:00     -195.168      -56.300        3.599       84.013       73.647       50.133     7058.252     5423.880     2513.366        2.813        0.750      203.126       45.141        0.049      337.042        8.746      856.426
09/22/2013  02:37:00     -163.163      -30.838        1.018       98.247       88.207       41.568     9652.410     7780.476     1727.932        2.336        0.958      166.052       44.934        0.073      337.041        8.745      856.422
09/22/2013  02:38:00     -237.376      -16.633       -9.859       83.194       90.386       33.352     6921.261     8169.593     1112.371        3.646        0.810      237.958       31.193        0.017      337.030        8.725      856.435
09/22/2013  02:39:00     -108.069      -57.282       11.218       96.295       67.230       45.202     9272.720     4519.813     2043.189        1.546        0.792      122.312       53.098        0.188      336.986        8.652      856.447
09/22/2013  02:40:00     -145.976       -1.544      -11.294       94.957       57.559       30.937     9016.768     3313.072      957.098        1.736        0.664      145.984       37.537        0.066      337.005        8.684      856.455
09/22/2013  02:41:00      -60.347      -35.109        3.685       41.452       60.555       28.675     1718.234     3666.900      822.231        0.555        0.310       69.817       24.688        0.125      336.998        8.673      856.447
09/22/2013  02:42:00      -57.153       20.889       -0.096       39.881       19.091       22.022     1590.503      364.476      484.964        0.307        0.122       60.850       23.896        0.154      336.993        8.664      856.458
09/22/2013  02:43:00     -144.468       17.553      -14.128       47.579       75.631       38.635     2263.777     5720.097     1492.682        1.543        0.474      145.530       34.383        0.056      337.030        8.727      856.500
09/22/2013  02:44:00     -220.366       24.387      -13.636       96.972       73.092       40.988     9403.513     5342.479     1680.014        3.288        0.821      221.712       39.775        0.032      336.967        8.620      856.498
09/22/2013  02:45:00     -199.632      -11.025      -15.336       90.054       69.424       41.709     8109.695     4819.689     1739.644        2.744        0.733      199.936       45.366        0.051      336.981        8.645      856.520
09/22/2013  02:46:00     -205.973       24.824      -20.085       89.035       63.770       33.912     7927.219     4066.566     1150.031        2.829        0.657      207.464       29.470        0.020      336.983        8.650      856.545
09/22/2013  02:47:00      -85.802      -13.417      -14.275       51.604       36.135       23.715     2662.975     1305.745      562.391        0.614        0.227       86.845       19.598        0.051      336.975        8.637      856.553
09/22/2013  02:48:00      -74.512       42.527      -15.765       49.241       36.377       20.527     2424.668     1323.275      421.367        0.589        0.208       85.794        8.323        0.009      336.955        8.603      856.549
09/22/2013  02:49:00      -50.838       39.084       -3.561       62.849       45.706       25.341     3949.941     2089.010      642.145        0.540        0.334       64.125       30.906        0.232      336.928        8.559      856.540
09/22/2013  02:50:00     -111.885      125.045      -27.567       41.526       34.753       28.713     1724.426     1207.759      824.419        1.633        0.188      167.793       21.545        0.016      336.917        8.538      856.568
09/22/2013  02:51:00      -78.888      117.357       -5.697       54.354       75.529       31.821     2954.345     5704.687     1012.574        1.485        0.484      141.407       26.745        0.036      336.867        8.454      856.577
09/22/2013  02:52:00      -62.109      124.957      -22.418       46.737       40.434       27.707     2184.341     1634.931      767.680        1.228        0.229      139.541       24.500        0.031      336.949        8.592      856.608
09/22/2013  02:53:00      -85.707       88.466      -13.939       37.690       49.167       30.925     1420.552     2417.427      956.386        1.008        0.240      123.174       25.525        0.043      336.985        8.654      856.637
09/22/2013  02:54:00      -39.502      150.321      -12.118       38.466       47.849       29.433     1479.665     2289.504      866.317        1.447        0.232      155.424       18.653        0.014      336.971        8.629      856.662
09/22/2013  02:55:00      -32.111      212.727      -19.551       58.451       62.875       44.645     3416.575     3953.321     1993.135        2.801        0.468      215.137       31.065        0.021      336.946        8.586      856.682
09/22/2013  02:56:00       -2.451      138.395      -13.288       42.284       50.330       29.662     1787.970     2533.150      879.854        1.227        0.260      138.417       29.420        0.045      336.937        8.573      856.701
09/22/2013  02:57:00      -27.527      194.969      -23.888       56.424       61.790       29.487     3183.613     3818.019      869.507        2.360        0.394      196.903       32.565        0.027      336.981        8.645      856.721
09/22/2013  02:58:00       -9.217       94.605      -14.243       35.310       36.764       22.510     1246.800     1351.580      506.688        0.617        0.155       95.053       17.091        0.032      337.000        8.678      856.743
09/22/2013  02:59:00      -50.925      143.707       -6.482       61.120       88.266       32.792     3735.632     7790.968     1075.283        1.794        0.630      152.463       35.151        0.053      337.059        8.776      856.761
09/22/2013  03:00:00     -116.008       97.591      -21.675       66.889       78.917       40.545     4474.137     6227.951     1643.884        1.790        0.617      151.598       36.218        0.057      337.069        8.792      856.781
09/22/2013  03:01:00     -148.679       -2.414      -11.327       65.745       48.340       30.652     4322.343     2336.714      939.554        1.492        0.380      148.698       33.890        0.052      337.056        8.770      856.804
09/22/2013  03:02:00      -83.126       46.043      -24.398       55.785       46.682       22.830     3111.941     2179.241      521.201        0.772        0.291       95.026       21.621        0.052      337.084        8.820      856.832
09/22/2013  03:03:00     -116.392        2.316      -12.074       81.396       44.962       29.143     6625.342     2021.574      849.302        1.160        0.475      116.415       24.869        0.046      337.110        8.863      856.859
09/22/2013  03:04:00      -84.284       -0.738        3.250       31.261       36.648       28.739      977.238     1343.063      825.910        0.513        0.157       84.287       21.576        0.066      337.089        8.827      856.867
09/22/2013  03:05:00      -97.351       33.923       -7.557       58.119       56.840       27.917     3377.765     3230.839      779.353        0.904        0.369      103.092       29.964        0.084      337.110        8.862      856.863
09/22/2013  03:06:00     -127.738        1.086      -16.714       49.383       34.919       27.293     2438.687     1219.348      744.893        1.050        0.220      127.743       11.542        0.008      337.126        8.888      856.849
09/22/2013  03:07:00      -94.313        3.062       -3.564       34.316       28.406       18.583     1177.614      806.915      345.334        0.562        0.116       94.363       14.172        0.023      337.111        8.864      856.851
09/22/2013  03:08:00     -100.088       30.090      -14.370       47.942       62.773       26.140     2298.439     3940.438      683.285        0.902        0.346      104.513       23.027        0.049      337.089        8.826      856.854
09/22/2013  03:09:00      -52.830       29.750      -13.141       24.451       25.430       20.701      597.843      646.684      428.539        0.276        0.084       60.631       11.240        0.034      337.090        8.829      856.846
09/22/2013  03:10:00      -66.827       18.149      -14.260       54.044       54.924       27.083     2920.724     3016.695      733.491        0.583        0.334       69.248       20.087        0.084      337.072        8.798      856.840
09/22/2013  03:11:00     -114.501      -47.725       -4.104       56.179       42.981       23.799     3156.056     1847.405      566.415        1.049        0.278      124.049       16.924        0.019      337.055        8.768      856.849
09/22/2013  03:12:00      -56.366      -20.239       -3.384       55.437       46.673       33.361     3073.281     2178.372     1112.975        0.498        0.318       59.889       23.614        0.155      337.063        8.781      856.864
09/22/2013  03:13:00      -58.868        4.233       -2.648       32.939       40.926       24.140     1084.988     1674.914      582.733        0.342        0.167       59.020       18.720        0.101      337.045        8.753      856.866
09/22/2013  03:14:00      -58.141       65.307       -4.687       33.363       39.033       27.369     1113.094     1523.561      749.050        0.553        0.169       87.438       30.026        0.118      337.060        8.779      856.885
09/22/2013  03:15:00      -66.891       89.012      -15.522       37.744       50.791       24.772     1424.623     2579.712      613.661        0.863        0.231      111.345       26.603        0.057      337.106        8.855      856.912
09/22/2013  03:16:00      -93.048       92.615      -14.003       47.999       39.781       28.276     2303.901     1582.520      799.546        1.106        0.234      131.284       25.800        0.039      337.040        8.744      856.946
09/22/2013  03:17:00     -114.916       58.978      -24.529       36.838       27.327       22.695     1357.074      746.768      515.077        0.995        0.131      129.167       18.919        0.021      337.035        8.736      856.978
09/22/2013  03:18:00     -109.322       83.101      -23.421       39.909       39.372       23.443     1592.706     1550.135      549.554        1.155        0.185      137.321       19.702        0.021      337.031        8.731      857.008
09/22/2013  03:19:00      -73.420      149.705      -11.279       48.885       64.301       38.146     2389.779     4134.678     1455.092        1.795        0.399      166.740       28.632        0.029      337.062        8.781      857.026
09/22/2013  03:20:00     -114.584      104.494      -17.102       34.434       56.695       28.477     1185.706     3214.341      810.941        1.477        0.261      155.076       26.419        0.029      337.049        8.759      857.039
09/22/2013  03:21:00      -94.656       58.598       -8.957       32.290       35.439       23.738     1042.645     1255.892      563.491        0.767        0.143      111.326       11.257        0.010      337.039        8.743      857.048
09/22/2013  03:22:00      -93.494       49.397      -12.772       29.095       25.133       21.264      846.533      631.652      452.163        0.664        0.097      105.741       10.760        0.010      337.030        8.728      857.040
09/22/2013  03:23:00     -144.482       57.574      -15.473       41.747       60.537       29.765     1742.792     3664.701      885.969        1.536        0.315      155.530       29.428        0.036      337.100        8.844      857.035
09/22/2013  03:24:00     -168.429       24.887      -18.885      127.017       69.574       43.982    16133.350     4840.486     1934.408        2.612        1.145      170.258       50.217        0.087      337.084        8.815      857.006
09/22/2013  03:25:00     -138.480      -22.858       -2.840       60.798       63.557       45.051     3696.433     4039.503     2029.568        1.473        0.488      140.353       32.299        0.053      337.103        8.851      856.984
09/22/2013  03:26:00     -216.658        4.069      -26.232       96.723      118.550       38.661     9355.303    14054.050     1494.651        3.627        1.245      216.697       19.722        0.008      337.083        8.813      856.974
09/22/2013  03:27:00     -180.841      -77.962       -3.077       88.548       73.154       40.090     7840.747     5351.521     1607.186        2.679        0.740      196.931       35.425        0.032      337.035        8.735      856.976
09/22/2013  03:28:00     -112.915      -54.030      -10.649       60.974       53.480       34.214     3717.821     2860.098     1170.594        1.176        0.387      125.176       23.107        0.034      337.057        8.773      856.973
09/22/2013  03:29:00      -98.033        6.999      -16.384       58.479       51.717       38.166     3419.787     2674.619     1456.631        0.874        0.378       98.283       28.008        0.081      337.040        8.745      856.960
09/22/2013  03:30:00     -119.224      103.580       -3.139      111.154       79.491       52.987    12355.137     6318.891     2807.670        2.321        1.074      157.934       57.008        0.130      336.981        8.644      856.950
09/22/2013  03:31:00     -186.585       87.806      -19.870       73.517       59.193       36.684     5404.719     3503.860     1345.701        2.658        0.513      206.213       26.708        0.017      336.957        8.604      856.970
09/22/2013  03:32:00     -142.849       30.248        0.846       77.073      102.581       43.194     5940.187    10522.833     1865.741        1.982        0.916      146.016       37.198        0.065      337.019        8.709      856.989
09/22/2013  03:33:00     -106.259      117.199      -15.693       57.567       57.042       41.406     3313.913     3253.825     1714.489        1.678        0.414      158.198       39.530        0.062      336.947        8.590      857.000
09/22/2013  03:34:00     -155.883       19.666      -10.394       74.544       74.592       34.861     5556.846     5564.020     1215.300        1.856        0.617      157.118       39.301        0.063      336.971        8.629      857.018
09/22/2013  03:35:00     -174.663      -42.975      -22.007       84.153       94.654       55.264     7081.779     8959.300     3054.111        2.596        0.955      179.872       33.109        0.034      336.960        8.608      857.010
09/22/2013  03:36:00     -115.738       37.112      -19.355       68.624       75.733       42.694     4709.192     5735.517     1822.820        1.371        0.613      121.543       39.739        0.107      336.954        8.601      857.018
09/22/2013  03:37:00     -171.660       30.326      -24.616       68.523       55.003       43.834     4695.410     3025.293     1921.422        2.032        0.482      174.318       41.279        0.056      336.995        8.667      857.018
09/22/2013  03:38:00      -54.953       67.537        0.517       69.630       57.182       35.065     4848.301     3269.766     1229.542        0.846        0.467       87.070       37.205        0.183      336.944        8.585      857.006
09/22/2013  03:39:00     -121.823       29.720      -11.778       51.560       40.620       27.606     2658.386     1649.978      762.073        1.047        0.254      125.396       23.715        0.036      336.978        8.640      856.994
09/22/2013  03:40:00      -95.425       72.687      -19.171       38.438       51.673       30.633     1477.489     2670.080      938.370        0.992        0.254      119.955       21.919        0.033      336.935        8.570      856.999
09/22/2013  03:41:00     -113.899       39.415      -29.840       41.474       32.544       26.999     1720.103     1059.114      728.931        0.946        0.175      120.526       16.943        0.020      336.977        8.639      856.997
09/22/2013  03:42:00     -112.562       63.144      -10.653       59.097       61.236       35.554     3492.413     3749.875     1264.119        1.264        0.425      129.064       19.219        0.022      336.952        8.597      856.994
09/22/2013  03:43:00      -79.615      137.705       -9.122       65.931       98.103       45.128     4346.917     9624.196     2036.519        2.069        0.800      159.063       47.022        0.087      337.011        8.694      857.010
09/22/2013  03:44:00     -186.507      143.538      -24.796       78.624       94.497       51.850     6181.764     8929.664     2688.462        3.690        0.890      235.347       50.283        0.046      337.043        8.746      857.030
09/22/2013  03:45:00      -86.230      117.082      -12.533       68.904       80.687       30.961     4747.696     6510.450      958.553        1.676        0.611      145.409       31.128        0.046      336.985        8.651      857.037
09/22/2013  03:46:00      -99.462      163.740      -25.368       51.038       54.629       30.099     2604.877     2984.374      905.970        2.192        0.325      191.582       27.449        0.021      336.963        8.615      857.034
09/22/2013  03:47:00     -112.048       42.945      -13.081       89.380       78.524       23.515     7988.860     6166.082      552.971        1.464        0.735      119.995       16.407        0.019      336.980        8.644      857.036
09/22/2013  03:48:00     -203.636      -10.464      -24.571       96.153       59.569       33.343     9245.335     3548.459     1111.742        2.804        0.695      203.905       32.326        0.025      336.906        8.518      857.038
09/22/2013  03:49:00     -117.351      -37.024       -9.398       49.646       52.617       40.987     2464.740     2768.569     1679.904        1.107        0.346      123.053       30.743        0.062      336.886        8.486      857.038
09/22/2013  03:50:00     -148.229       -6.463      -10.327       73.439       89.587       43.518     5393.287     8025.865     1893.776        1.871        0.766      148.370       33.235        0.050      336.856        8.436      857.048
09/22/2013  03:51:00     -232.901       45.315      -23.407       84.637       69.743       40.448     7163.350     4864.093     1636.040        3.525        0.683      237.269       37.555        0.025      336.803        8.345      857.048
09/22/2013  03:52:00     -235.322      -54.343      -19.721       83.603       73.542       46.166     6989.442     5408.451     2131.335        3.662        0.726      241.515       46.724        0.037      336.802        8.344      857.037
09/22/2013  03:53:00     -149.820       11.005      -15.062      105.690       81.775       43.240    11170.397     6687.094     1869.731        2.126        0.986      150.224       47.571        0.100      336.786        8.321      857.048
09/22/2013  03:54:00     -119.790      118.997      -30.667       42.335       28.258       22.463     1792.278      798.535      504.594        1.627        0.155      168.849       19.397        0.013      336.983        8.649      857.041
09/22/2013  03:55:00      -63.586      158.688      -13.294       28.858       34.322       25.650      832.802     1177.975      657.939        1.603        0.133      170.953       20.662        0.015      336.829        8.392      857.036
09/22/2013  03:56:00      -81.100       72.692      -18.409       47.569       62.299       27.668     2262.851     3881.191      765.520        0.955        0.345      108.910       31.460        0.083      336.834        8.401      857.030
09/22/2013  03:57:00     -135.312       86.202      -26.320       46.425       51.981       26.116     2155.290     2701.980      682.053        1.598        0.277      160.437       27.633        0.030      336.788        8.324      857.040
09/22/2013  03:58:00      -95.148       96.921      -22.079       33.840       43.366       27.007     1145.135     1880.570      729.405        1.134        0.188      135.820       20.051        0.022      336.706        8.188      857.086
09/22/2013  03:59:00     -104.686       90.508      -17.837       39.175       36.381       21.754     1534.715     1323.606      473.258        1.140        0.167      138.387       19.480        0.020      336.685        8.153      857.106
09/22/2013  04:00:00      -70.422      128.043      -15.737       35.154       29.909       25.675     1235.824      894.552      659.219        1.220        0.139      146.131       21.536        0.022      336.702        8.183      857.110
09/22/2013  04:01:00     -106.790      138.623      -27.006       54.930       35.121       29.291     3017.345     1233.465      857.949        1.823        0.255      174.987       30.032        0.029      336.707        8.189      857.136
09/22/2013  04:02:00      -77.397      139.847      -18.066       37.401       47.987       32.697     1398.811     2302.788     1069.116        1.532        0.239      159.836       24.257        0.023      336.771        8.296      857.135
09/22/2013  04:03:00     -162.935       78.693      -21.095       52.782       66.060       24.569     2785.947     4363.860      603.632        2.047        0.388      180.943       17.699        0.010      336.790        8.326      857.146
09/22/2013  04:04:00     -150.334       70.224      -21.159       59.848       30.014       28.325     3581.831      900.867      802.300        1.663        0.264      165.927       22.157        0.018      336.861        8.444      857.152
09/22/2013  04:05:00     -155.507       40.365       -4.601       71.471       36.027       35.848     5108.175     1297.954     1285.046        1.676        0.385      160.660       35.670        0.049      336.847        8.421      857.152
09/22/2013  04:06:00      -93.701       83.196      -16.450       52.765       64.171       31.641     2784.154     4117.924     1001.158        1.194        0.395      125.305       27.443        0.048      336.855        8.436      857.148
09/22/2013  04:07:00     -112.019       11.145       -5.484       40.959       47.104       30.306     1677.643     2218.792      918.475        0.876        0.241      112.572       22.954        0.042      336.879        8.475      857.144
09/22/2013  04:08:00      -85.876       15.068      -12.631       33.145       31.493       27.647     1098.582      991.818      764.381        0.531        0.143       87.188       12.675        0.021      336.904        8.518      857.146
09/22/2013  04:09:00      -73.684       18.699       -0.986       42.497       30.542       28.296     1806.022      932.824      800.683        0.466        0.177       76.019       14.865        0.038      336.802        8.349      857.144
09/22/2013  04:10:00     -120.707       42.671      -15.697       60.632       67.781       46.467     3676.241     4594.231     2159.164        1.353        0.521      128.027       28.494        0.050      336.919        8.542      857.160
09/22/2013  04:11:00      -90.248       27.756       -2.932       63.361       97.915       39.786     4014.623     9587.363     1582.903        1.205        0.759       94.420       45.522        0.232      336.795        8.335      857.181
09/22/2013  04:12:00     -141.586       39.948      -10.581       85.115       53.700       47.006     7244.569     2883.662     2209.564        1.704        0.617      147.113       45.378        0.095      336.910        8.527      857.195
09/22/2013  04:13:00     -187.486      126.145      -23.360       50.495       48.093       39.434     2549.795     2312.939     1555.012        2.901        0.321      225.972       27.954        0.015      336.973        8.631      857.197
09/22/2013  04:14:00      -97.804      139.603      -20.219       51.863       62.440       29.251     2689.724     3898.702      855.626        1.845        0.372      170.454       18.634        0.012      336.854        8.432      857.214
09/22/2013  04:15:00     -103.375      192.378      -24.648       60.051       59.299       38.541     3606.103     3516.374     1485.395        2.845        0.430      218.393       34.360        0.025      336.886        8.485      857.214
09/22/2013  04:16:00     -108.324      201.833      -29.593       61.059       58.554       34.605     3728.221     3428.555     1197.490        3.085        0.418      229.065       31.066        0.018      336.849        8.421      857.212
09/22/2013  04:17:00      -60.620      147.269      -20.023       35.628       30.125       26.022     1269.349      907.521      677.162        1.431        0.143      159.257       16.287        0.010      336.793        8.333      857.211
09/22/2013  04:18:00      -53.985       98.195      -18.145       43.877       39.202       17.328     1925.153     1536.781      300.276        0.832        0.188      112.056       14.546        0.017      336.833        8.401      857.203
09/22/2013  04:19:00      -49.411       62.179      -12.086       36.448       47.062       20.929     1328.466     2214.859      438.035        0.522        0.199       79.421       11.818        0.022      336.849        8.428      857.196
09/22/2013  04:20:00      -21.092       46.239       -9.228       42.666       43.165       42.952     1820.346     1863.241     1844.916        0.410        0.276       50.822       10.507        0.043      336.847        8.423      857.184
09/22/2013  04:21:00      -55.633       95.449      -10.682       33.893       47.862       24.920     1148.727     2290.772      621.010        0.819        0.203      110.478       22.064        0.040      336.798        8.343      857.178
09/22/2013  04:22:00     -102.898      112.889      -16.444       41.023       67.723       23.133     1682.856     4586.352      535.154        1.520        0.340      152.748        9.386        0.004      336.759        8.278      857.189
09/22/2013  04:23:00      -82.685      -18.371       -5.638       44.691       37.822       24.468     1997.302     1430.474      598.681        0.562        0.201       84.702       15.534        0.034      336.779        8.311      857.196
09/22/2013  04:24:00     -107.171      -28.580      -13.888       38.621       47.646       23.460     1491.581     2270.105      550.385        0.840        0.216      110.916       14.471        0.017      336.740        8.245      857.213
09/22/2013  04:25:00     -127.064       62.710      -21.213       45.332       33.705       22.744     2055.013     1136.015      517.281        1.212        0.185      141.696       15.760        0.012      336.682        8.149      857.245
09/22/2013  04:26:00     -171.832       13.755      -24.102       40.540       41.246       27.530     1643.473     1701.241      757.903        1.720        0.205      172.382       21.809        0.016      336.687        8.157      857.280
09/22/2013  04:27:00     -148.713      -28.749      -16.353       44.844       38.756       23.247     2010.972     1502.006      540.421        1.363        0.203      151.466       27.039        0.032      336.682        8.148      857.281
09/22/2013  04:28:00      -33.748       -5.732       12.440       35.721       33.882       21.096     1276.006     1147.995      445.026        0.210        0.143       34.231       19.528        0.325      336.637        8.073      857.272
09/22/2013  04:29:00     -163.237       44.862      -25.845       92.949       60.752       31.796     8639.556     3690.773     1011.013        2.133        0.667      169.289       37.389        0.049      336.707        8.188      857.296
09/22/2013  04:30:00     -112.010       51.930      -17.954       34.960       52.678       20.256     1222.202     2774.964      410.303        0.999        0.220      123.463       17.496        0.020      336.705        8.187      857.312
09/22/2013  04:31:00     -161.670       56.029      -31.589       58.619       74.706       37.624     3436.182     5580.922     1415.575        2.035        0.522      171.104       38.601        0.051      336.768        8.290      857.326
09/22/2013  04:32:00     -136.862       58.908      -12.966       41.144       43.103       38.310     1692.805     1857.839     1467.622        1.369        0.251      149.001       26.120        0.031      336.775        8.303      857.324
09/22/2013  04:33:00     -129.771       66.955      -23.008       59.529       46.971       30.372     3543.721     2206.261      922.454        1.426        0.334      146.025       20.155        0.019      336.797        8.339      857.327
09/22/2013  04:34:00     -117.895      133.633      -29.664       61.004       61.231       38.232     3721.468     3749.270     1461.666        2.078        0.447      178.205       31.179        0.031      336.762        8.279      857.334
09/22/2013  04:35:00      -81.900      116.687      -15.150       53.566       53.455       28.736     2869.299     2857.458      825.769        1.355        0.328      142.560       26.464        0.034      336.774        8.302      857.340
09/22/2013  04:36:00      -57.443       54.340      -12.486       35.031       49.947       23.864     1227.202     2494.741      569.467        0.535        0.215       79.073       13.793        0.030      336.786        8.322      857.337
09/22/2013  04:37:00     -125.676       -1.680      -20.290       45.554       48.381       25.912     2075.185     2340.748      671.441        1.065        0.254      125.687       12.803        0.010      336.750        8.261      857.345
09/22/2013  04:38:00     -116.003      -16.027       -8.790       84.684       73.563       33.625     7171.458     5411.566     1130.609        1.375        0.686      117.105       18.017        0.024      336.669        8.126      857.369
09/22/2013  04:39:00     -195.231      -90.466      -11.315       68.557       74.354       37.225     4700.070     5528.524     1385.699        2.902        0.581      215.173       28.659        0.018      336.607        8.021      857.377
09/22/2013  04:40:00     -121.574      -51.848        4.855      121.166       45.611       41.229    14681.192     2080.360     1699.801        1.797        0.923      132.168       51.233        0.150      336.579        7.977      857.365
09/22/2013  04:41:00     -176.023      -61.544       -6.670       70.727       41.122       31.001     5002.347     1691.053      961.034        2.123        0.383      186.472       22.969        0.015      336.590        7.993      857.368
09/22/2013  04:42:00     -213.148      -19.313      -21.394       59.946       40.584       29.979     3593.559     1647.088      898.721        2.620        0.307      214.021       29.764        0.019      336.522        7.876      857.390
09/22/2013  04:43:00     -239.501      -75.539      -11.003       53.936       40.547       29.269     2909.139     1644.075      856.654        3.430        0.270      251.131       27.721        0.012      336.556        7.934      857.390
09/22/2013  04:44:00     -125.686      -77.569       -7.155       68.605       47.763       29.814     4706.711     2281.293      888.894        1.487        0.394      147.696       28.932        0.038      336.559        7.943      857.406
09/22/2013  04:45:00     -151.926       -8.260      -16.273       69.392       36.408       26.018     4815.212     1325.511      676.962        1.511        0.341      152.151       26.902        0.031      336.542        7.913      857.406
09/22/2013  04:46:00     -208.306      -17.675      -22.816       50.976       44.290       29.421     2598.525     1961.583      865.569        2.482        0.271      209.054       25.300        0.015      336.504        7.848      857.418
09/22/2013  04:47:00     -195.110      -26.323      -15.869       57.791       35.578       31.685     3339.792     1265.771     1003.935        2.231        0.280      196.878       29.707        0.023      336.535        7.902      857.435
09/22/2013  04:48:00     -165.298      -72.917       -2.767       55.189       46.644       30.294     3045.852     2175.705      917.750        1.939        0.307      180.666       31.349        0.030      336.486        7.819      857.446
09/22/2013  04:49:00     -145.017      -79.767       -6.019       43.485       44.367       31.526     1890.976     1968.442      993.916        1.614        0.243      165.508       21.509        0.017      336.499        7.843      857.449
09/22/2013  04:50:00     -159.989      -45.284       -7.268       53.820       63.302       34.245     2896.638     4007.149     1172.722        1.789        0.404      166.274       30.322        0.033      336.503        7.848      857.460
09/22/2013  04:51:00      -64.261      -24.486        3.584       47.407       38.896       27.974     2247.463     1512.894      782.566        0.464        0.227       68.768       24.574        0.128      336.374        7.631      857.475
09/22/2013  04:52:00      -93.036        4.222      -10.468       34.736       37.751       18.759     1206.588     1425.172      351.913        0.588        0.149       93.131        8.024        0.007      336.502        7.846      857.469
09/22/2013  04:53:00      -93.461      -35.548      -10.992       14.757       10.532       10.919      217.776      110.920      119.219        0.528        0.022       99.993        4.712        0.002      336.557        7.940      857.448
09/22/2013  04:54:00     -114.039       -2.909       -8.495       23.778       28.228       18.771      565.394      796.829      352.343        0.740        0.086      114.076       12.379        0.012      336.510        7.861      857.461
09/22/2013  04:55:00     -161.871       20.214      -25.355       17.533       31.331       15.021      307.405      981.612      225.630        1.438        0.076      163.128        7.760        0.002      336.528        7.891      857.466
09/22/2013  04:56:00     -156.910      -23.464      -19.279       18.992       17.525        9.342      360.713      307.134       87.280        1.315        0.038      158.654        8.810        0.003      336.511        7.864      857.470
09/22/2013  04:57:00     -129.963      -61.075      -12.175       40.438       28.352       17.971     1635.208      803.862      322.962        1.176        0.138      143.599       12.507        0.008      336.462        7.780      857.480
09/22/2013  04:58:00     -179.468     -110.066      -10.892       43.981       42.890       31.012     1934.338     1839.550      961.763        2.459        0.237      210.531       25.051        0.014      336.549        7.924      857.494
09/22/2013  04:59:00     -175.163      -70.145       -4.552       72.042       50.736       31.914     5190.093     2574.130     1018.533        2.220        0.439      188.686       33.933        0.032      336.636        8.070      857.503
09/22/2013  05:00:00     -163.451      -52.498       -1.840       65.353       48.298       34.021     4271.052     2332.735     1157.418        1.862        0.388      171.674       35.536        0.043      336.687        8.155      857.496
09/22/2013  05:01:00     -112.439      -25.421       -9.899       57.214       49.647       28.070     3273.437     2464.799      787.951        0.996        0.326      115.277       24.322        0.045      336.771        8.296      857.497
09/22/2013  05:02:00      -94.929       -0.133       -5.558       57.777       36.160       21.598     3338.195     1307.512      466.463        0.708        0.256       94.929       19.600        0.043      336.668        8.125      857.492
09/22/2013  05:03:00      -95.390      -33.671       -2.993       55.580       31.493       26.512     3089.135      991.802      702.874        0.751        0.239      101.158       27.213        0.072      336.641        8.080      857.492
09/22/2013  05:04:00     -122.759      -33.309      -13.174       28.822       25.476       18.761      830.722      649.034      351.992        0.909        0.092      127.198       14.470        0.013      336.736        8.239      857.494
09/22/2013  05:05:00      -97.913       -4.635      -10.002       34.856       18.828       16.441     1214.950      354.476      270.316        0.577        0.092       98.023       19.213        0.038      336.706        8.189      857.492
09/22/2013  05:06:00     -108.581      -31.555       -7.749       23.697       29.355       17.959      561.549      861.691      322.543        0.730        0.087      113.073       12.522        0.012      336.683        8.151      857.499
09/22/2013  05:07:00      -81.255      -20.056      -11.990       26.683       25.953       17.546      711.994      673.557      307.876        0.442        0.085       83.693       15.245        0.033      336.694        8.171      857.493
09/22/2013  05:08:00      -71.629      -48.048       -0.401       34.796       23.989       15.685     1210.742      575.464      246.004        0.474        0.102       86.252       15.065        0.031      336.727        8.224      857.492
09/22/2013  05:09:00      -43.409      -33.220       -1.387       46.752       19.936       13.461     2185.785      397.450      181.189        0.288        0.138       54.662       15.250        0.078      336.685        8.154      857.473
09/22/2013  05:10:00      -67.066       -7.955       -9.501       17.220       16.613       13.642      296.526      275.976      186.112        0.270        0.038       67.536        8.935        0.018      336.671        8.131      857.462
09/22/2013  05:11:00      -69.104      -15.063      -11.082       19.390       19.990       12.591      375.967      399.583      158.537        0.303        0.047       70.726        6.452        0.008      336.688        8.160      857.458
09/22/2013  05:12:00      -52.401      -41.827        0.512       34.248       21.330       15.715     1172.895      454.968      246.967        0.318        0.094       67.047       17.665        0.069      336.579        7.976      857.460
09/22/2013  05:13:00      -97.971      -56.993       -5.945       21.952       25.819       15.497      481.874      666.639      240.160        0.714        0.069      113.343        9.427        0.007      336.575        7.968      857.472
09/22/2013  05:14:00     -112.413      -34.444       -3.655       27.458       26.135       18.012      753.959      683.032      324.421        0.780        0.088      117.572       13.250        0.013      336.525        7.886      857.483
09/22/2013  05:15:00      -92.905      -28.947       -3.431       29.268       32.788       18.759      856.631     1075.058      351.917        0.588        0.114       97.311       17.912        0.034      336.433        7.731      857.487
09/22/2013  05:16:00      -90.181      -22.450        1.284       36.386       34.958       20.605     1323.942     1222.076      424.577        0.580        0.149       92.933       18.037        0.038      336.429        7.724      857.487
09/22/2013  05:17:00      -73.414      -17.548        0.578       37.794       30.344       21.743     1428.411      920.768      472.759        0.426        0.141       75.482       22.963        0.093      336.425        7.718      857.490
09/22/2013  05:18:00      -77.154       16.908       -7.449       18.393       17.227       11.297      338.287      296.766      127.621        0.353        0.038       78.985        8.696        0.012      336.432        7.730      857.495
09/22/2013  05:19:00      -75.663       32.851       -7.764       15.197       20.821        9.897      230.948      433.528       97.944        0.381        0.038       82.487        6.240        0.006      336.474        7.800      857.501
09/22/2013  05:20:00      -85.296       39.245      -15.539       17.830       18.468       12.602      317.909      341.067      158.799        0.494        0.041       93.891        5.445        0.003      336.544        7.918      857.507
09/22/2013  05:21:00      -81.478       19.906      -16.749       18.491       23.636       13.210      341.905      558.682      174.492        0.420        0.054       83.875        8.931        0.011      336.614        8.036      857.512
09/22/2013  05:22:00      -95.999       28.173      -16.622       23.001       19.369       15.145      529.042      375.166      229.372        0.571        0.057      100.048       10.533        0.011      336.608        8.023      857.501
09/22/2013  05:23:00     -103.664       20.608      -22.529       28.630       21.062       14.214      819.702      443.611      202.051        0.657        0.073      105.692       10.570        0.010      336.624        8.051      857.491
09/22/2013  05:24:00      -58.607      -13.097      -10.223       19.322       21.820       11.763      373.355      476.115      138.369        0.235        0.049       60.052       10.107        0.028      336.646        8.092      857.484
09/22/2013  05:25:00      -44.596        3.193       -6.060       16.138       16.443        9.568      260.432      270.371       91.541        0.133        0.031       44.711        6.805        0.023      336.596        8.003      857.483
09/22/2013  05:26:00      -33.271       11.818       -9.334       17.632       15.702        8.554      310.896      246.541       73.169        0.098        0.032       35.308       10.847        0.094      336.594        8.002      857.486
09/22/2013  05:27:00      -21.560       -1.519      -10.807        8.162       15.901       11.895       66.620      252.849      141.496        0.052        0.023       21.613        7.199        0.111      336.633        8.067      857.489
09/22/2013  05:28:00      -45.565       24.855       -5.336       23.376       16.484       10.906      546.435      271.724      118.949        0.183        0.047       51.903       10.543        0.041      336.541        7.912      857.501
09/22/2013  05:29:00      -73.227       46.293      -12.742       21.464       19.474       12.961      460.715      379.226      167.975        0.434        0.050       86.632        8.680        0.010      336.377        7.637      857.503
09/22/2013  05:30:00      -70.534       -1.000       -8.122       14.802       23.786        9.317      219.088      565.771       86.813        0.296        0.044       70.541        7.076        0.010      336.457        7.771      857.514
09/22/2013  05:31:00      -63.953      -12.933       -2.247       25.977       18.453       13.083      674.788      340.507      171.166        0.272        0.059       65.247        9.797        0.023      336.342        7.581      857.533
09/22/2013  05:32:00     -118.361      -52.693       -6.295       28.188       32.596       16.333      794.583     1062.525      266.777        0.947        0.106      129.560       15.082        0.014      336.316        7.535      857.543
09/22/2013  05:33:00      -25.495      -40.145       11.238       26.874       22.623       20.018      722.230      511.812      400.706        0.201        0.082       47.556       17.952        0.142      336.344        7.583      857.545
09/22/2013  05:34:00      -56.317      -93.199       -7.927       26.308       27.677       13.653      692.105      766.039      186.416        0.678        0.082      108.893        9.706        0.008      336.487        7.823      857.535
09/22/2013  05:35:00     -100.794      -57.833        3.656       64.281       42.759       34.976     4132.040     1828.350     1223.292        1.035        0.359      116.207       33.165        0.081      336.464        7.783      857.547
09/22/2013  05:36:00     -116.332      -48.337        0.971       80.987       46.889       25.269     6558.883     2198.533      638.503        1.263        0.470      125.974       22.615        0.032      336.385        7.650      857.570
09/22/2013  05:37:00     -108.216       -0.273        1.417       63.500       48.852       28.381     4032.213     2386.497      805.505        0.947        0.361      108.217       26.949        0.062      336.225        7.381      857.581
09/22/2013  05:38:00     -134.263       -3.397      -10.905       70.567       47.864       27.160     4979.712     2290.986      737.674        1.308        0.400      134.306       31.723        0.056      336.012        7.027      857.591
09/22/2013  05:39:00     -216.064      -56.260      -10.099       64.583       62.149       34.172     4170.947     3862.438     1167.747        2.957        0.460      223.269       39.675        0.032      336.053        7.093      857.597
09/22/2013  05:40:00     -167.150      -74.619       -5.496       41.064       34.125       25.613     1686.237     1164.493      656.038        1.852        0.175      183.049       26.146        0.020      336.117        7.203      857.605
09/22/2013  05:41:00      -99.877      -69.006        0.043       45.916       37.725       24.010     2108.264     1423.196      576.494        0.942        0.205      121.397       23.554        0.038      336.296        7.502      857.603
09/22/2013  05:42:00      -96.642      -79.490        3.139       41.601       37.298       32.260     1730.657     1391.133     1040.682        0.991        0.208      125.134       31.746        0.064      336.378        7.639      857.603
09/22/2013  05:43:00     -167.879      -83.537       -9.716       51.923       34.219       23.410     2695.985     1170.942      548.028        1.983        0.221      187.515       21.891        0.014      336.506        7.851      857.607
09/22/2013  05:44:00     -149.610      -77.170        3.055       73.215       54.796       29.771     5360.408     3002.597      886.315        1.880        0.462      168.340       35.445        0.044      336.683        8.148      857.591
09/22/2013  05:45:00      -94.226      -58.800        6.501       54.152       34.131       31.969     2932.417     1164.941     1021.994        0.875        0.256      111.067       29.957        0.073      336.510        7.861      857.584
09/22/2013  05:46:00     -100.150      -85.116        5.430       66.853       45.948       28.814     4469.283     2111.217      830.228        1.236        0.371      131.434       35.253        0.072      336.569        7.961      857.580
09/22/2013  05:47:00     -145.198      -57.605        2.308       74.664       35.699       28.061     5574.728     1274.391      787.432        1.602        0.382      156.208       38.458        0.061      336.505        7.851      857.579
09/22/2013  05:48:00     -185.338      -78.439      -10.713       62.257       48.427       33.928     3875.893     2345.164     1151.097        2.399        0.369      201.253       26.332        0.017      336.486        7.819      857.586
09/22/2013  05:49:00     -123.653      -17.950       -4.018       46.373       42.095       33.909     2150.473     1771.947     1149.787        1.035        0.254      124.949       31.504        0.064      336.439        7.741      857.590
09/22/2013  05:50:00     -109.103      -46.420       12.532       78.693       59.559       32.754     6192.597     3547.299     1072.817        1.251        0.541      118.568       30.662        0.067      336.361        7.610      857.594
09/22/2013  05:51:00     -123.081      -43.349        5.811       63.684       42.151       30.193     4055.657     1776.727      911.627        1.190        0.337      130.491       29.906        0.053      336.332        7.561      857.586
09/22/2013  05:52:00      -74.607      -55.129        1.924       42.897       34.203       25.148     1840.192     1169.827      632.438        0.613        0.182       92.766       20.359        0.048      336.303        7.514      857.586
09/22/2013  05:53:00      -85.791      -67.194        5.640       53.032       41.758       34.879     2812.343     1743.711     1216.567        0.884        0.289      108.973       26.917        0.061      336.273        7.464      857.588
09/22/2013  05:54:00      -51.939      -38.841       10.103       63.819       29.706       25.945     4072.875      882.435      673.134        0.497        0.281       64.855       35.909        0.307      336.242        7.412      857.591
09/22/2013  05:55:00      -72.690      -37.966       -1.238       37.256       22.120       15.420     1387.991      489.293      237.775        0.442        0.106       82.008       13.801        0.028      336.200        7.343      857.600
09/22/2013  05:56:00     -125.056      -24.810      -12.341       47.163       29.317       21.936     2224.339      859.489      481.206        0.999        0.178      127.493       17.235        0.018      336.121        7.209      857.601
09/22/2013  05:57:00     -152.608      -26.287        3.126       53.939       38.303       28.136     2909.413     1467.123      791.647        1.458        0.258      154.855       31.296        0.041      336.035        7.066      857.606
09/22/2013  05:58:00     -149.429      -43.624       -4.365       51.597       40.757       27.528     2662.201     1661.108      757.780        1.467        0.254      155.667       28.890        0.034      336.014        7.030      857.601
09/22/2013  05:59:00     -139.882      -78.786       -3.840       58.816       38.268       27.844     3459.281     1464.408      775.312        1.574        0.285      160.544       30.945        0.037      335.989        6.989      857.596
09/22/2013  06:00:00     -104.698      -29.237       -1.445       34.090       42.275       19.205     1162.101     1787.181      368.849        0.757        0.166      108.703       13.748        0.016      335.945        6.916      857.590
09/22/2013  06:01:00     -159.332      -33.343      -18.961       23.056       22.626       16.145      531.576      511.925      260.664        1.408        0.065      162.784       12.451        0.006      335.957        6.936      857.587
09/22/2013  06:02:00     -131.370      -32.103       -9.999       32.369       38.348       21.260     1047.772     1470.568      452.004        1.068        0.149      135.236       20.392        0.023      335.936        6.901      857.588
09/22/2013  06:03:00     -105.827      -17.428       -0.926       50.281       41.114       23.495     2528.167     1690.379      552.003        0.814        0.239      107.252       21.475        0.040      335.910        6.859      857.585
09/22/2013  06:04:00     -166.970      -47.860      -12.119       39.421       31.143       22.010     1554.015      969.887      484.432        1.666        0.150      173.694       18.398        0.011      336.024        7.048      857.595
09/22/2013  06:05:00     -136.585      -47.726       -8.262       35.018       31.769       20.785     1226.244     1009.272      432.006        1.183        0.133      144.684       14.342        0.010      335.986        6.986      857.612
09/22/2013  06:06:00     -143.275        0.409       -5.440       48.995       30.549       26.924     2400.464      933.241      724.894        1.231        0.203      143.276       28.776        0.040      336.034        7.065      857.623
09/22/2013  06:07:00     -193.602      -10.375       -5.407       61.364       61.301       28.496     3765.498     3757.771      812.041        2.298        0.417      193.880       29.071        0.022      336.083        7.145      857.640
09/22/2013  06:08:00     -232.583       -5.336      -29.605       54.681       37.313       29.002     2990.020     1392.237      841.144        3.011        0.261      232.645       27.256        0.014      336.046        7.081      857.666
09/22/2013  06:09:00     -132.123      -31.362      -18.146       37.493       36.173       26.934     1405.759     1308.480      725.414        1.110        0.172      135.794        5.413        0.002      335.965        6.949      857.696
09/22/2013  06:10:00      -93.566      -21.852       -9.189       45.985       37.337       18.401     2114.639     1394.022      338.580        0.658        0.192       96.084        7.436        0.006      335.944        6.914      857.727
09/22/2013  06:11:00      -61.911      -28.603      -11.042       28.807       47.028       26.243      829.869     2211.668      688.715        0.425        0.187       68.199       17.425        0.065      335.917        6.870      857.737
09/22/2013  06:12:00      -79.815      -14.129        4.189       55.282       61.380       26.238     3056.128     3767.471      688.449        0.705        0.376       81.056       20.926        0.067      335.856        6.768      857.756
09/22/2013  06:13:00     -108.201      -30.428       -6.424       35.991       30.070       30.383     1295.340      904.186      923.133        0.790        0.156      112.398       25.142        0.050      335.839        6.739      857.770
09/22/2013  06:14:00      -79.277       27.419       -3.208       42.713       52.168       34.407     1824.375     2721.514     1183.819        0.639        0.286       83.885       26.935        0.103      335.938        6.906      857.783
09/22/2013  06:15:00     -110.492       70.459      -18.654       35.549       46.538       25.195     1263.763     2165.808      634.789        1.079        0.203      131.046       22.660        0.030      335.989        6.990      857.810
09/22/2013  06:16:00      -62.300       14.727       -8.057       38.685       25.982       24.478     1496.539      675.088      599.189        0.347        0.139       64.017       18.684        0.085      335.968        6.954      857.825
09/22/2013  06:17:00      -11.453       -3.281        0.290       29.274       16.000       12.633      856.945      256.005      159.582        0.071        0.064       11.914       11.475        0.928      335.897        6.837      857.844
09/22/2013  06:18:00      -61.770       -6.681       -3.281       26.760       33.563       16.875      716.074     1126.460      284.764        0.300        0.106       62.130       17.178        0.076      335.903        6.845      857.880
09/22/2013  06:19:00      -67.705        9.283       -7.233       28.288       37.024       20.074      800.185     1370.757      402.964        0.365        0.129       68.339       17.668        0.067      335.872        6.795      857.908
09/22/2013  06:20:00        7.128       42.939       -6.386       49.276       31.927       24.600     2428.170     1019.313      605.181        0.299        0.203       43.527       28.895        0.441      335.914        6.865      857.909
09/22/2013  06:21:00      -20.762       82.959       -9.640       44.745       59.039       22.031     2002.144     3485.607      485.374        0.669        0.299       85.517       29.319        0.118      335.900        6.843      857.895
09/22/2013  06:22:00      -98.354       69.225      -13.499       47.754       22.862       23.520     2280.421      522.687      553.191        0.900        0.168      120.273       18.977        0.025      335.917        6.871      857.915
09/22/2013  06:23:00      -74.399       41.745       -9.899       41.190       36.236       20.753     1696.600     1313.037      430.692        0.541        0.172       85.310       22.521        0.070      335.906        6.852      857.937
09/22/2013  06:24:00      -74.595       33.166      -22.298       35.341       40.281       21.540     1248.967     1622.590      463.955        0.525        0.167       81.635       23.762        0.085      335.946        6.918      857.929
09/22/2013  06:25:00      -27.079       31.371       -2.988       15.834       42.080       18.999      250.725     1770.736      360.946        0.205        0.119       41.442       22.319        0.290      335.939        6.905      857.925
09/22/2013  06:26:00      -46.962       68.275        0.525       33.878       51.061       26.207     1147.697     2607.247      686.813        0.565        0.222       82.866       14.706        0.031      336.047        7.087      857.933
09/22/2013  06:27:00      -45.763        6.105       -0.248       28.969       39.106       18.668      839.214     1529.301      348.510        0.242        0.136       46.169       11.689        0.064      336.032        7.061      857.959
09/22/2013  06:28:00      -26.643        3.155       -4.655       23.226       14.313       10.480      539.450      204.874      109.825        0.080        0.043       26.829       11.672        0.189      336.013        7.028      857.973
09/22/2013  06:29:00      -84.637       26.161      -11.497       23.301       20.093       13.754      542.945      403.722      189.160        0.456        0.057       88.588        8.110        0.008      336.159        7.273      857.990
09/22/2013  06:30:00      -98.753      -20.792       -8.093       36.872       29.579       18.892     1359.572      874.921      356.925        0.642        0.130      100.918       21.592        0.046      336.017        7.036      858.004
09/22/2013  06:31:00      -84.404       -3.945      -18.121       31.929       27.175       21.948     1019.471      738.497      481.715        0.485        0.112       84.496       20.837        0.061      336.001        7.009      857.999
09/22/2013  06:32:00     -108.370       19.668      -13.826       23.389       25.810       15.869      547.032      666.153      251.813        0.689        0.073      110.140       12.559        0.013      336.049        7.090      858.004
09/22/2013  06:33:00      -83.086       -7.266      -11.995       25.526       32.282       15.938      651.584     1042.105      254.023        0.452        0.097       83.403       13.171        0.025      336.105        7.182      858.006
09/22/2013  06:34:00     -109.773      -26.944      -11.469       31.778       19.165       14.173     1009.862      367.294      200.867        0.724        0.079      113.031       12.261        0.012      335.960        6.943      858.013
09/22/2013  06:35:00      -61.889       -3.546      -10.058       19.587       29.452       16.131      383.653      867.409      260.210        0.273        0.076       61.991       11.921        0.037      336.012        7.027      858.015
09/22/2013  06:36:00      -61.831      -20.649       -0.315       24.994       34.440       22.231      624.692     1186.134      494.226        0.328        0.115       65.188       21.670        0.111      336.123        7.211      858.021
09/22/2013  06:37:00      -21.148      -31.140        3.901       23.547       22.713       13.855      554.450      515.859      191.953        0.135        0.063       37.642       10.169        0.073      336.000        7.007      858.023
09/22/2013  06:38:00      -32.945       -6.498       -6.559       16.656       13.592        7.465      277.431      184.739       55.727        0.084        0.026       33.580        6.146        0.033      336.021        7.041      858.022
09/22/2013  06:39:00     -113.372      -27.235      -12.291       43.851       25.868       18.499     1922.888      669.166      342.212        0.834        0.147      116.597       18.806        0.026      335.947        6.920      858.040
09/22/2013  06:40:00      -74.446       36.111      -20.165       26.927       52.655       12.563      725.060     2772.588      157.828        0.545        0.183       82.742        6.017        0.005      336.004        7.016      858.045
09/22/2013  06:41:00     -120.533       75.803      -19.822       36.665       31.581       22.960     1344.297      997.362      527.169        1.177        0.143      142.388       15.904        0.012      336.236        7.401      858.050
09/22/2013  06:42:00      -77.357       33.622      -11.940       47.013       67.827       32.088     2210.213     4600.466     1029.637        0.755        0.392       84.348       35.393        0.176      336.337        7.571      858.053
09/22/2013  06:43:00      -74.472       34.771       -9.381       28.494       21.385       18.834      811.918      457.325      354.734        0.423        0.081       82.189       17.911        0.047      336.149        7.257      858.070
09/22/2013  06:44:00      -32.716        3.096        2.280       26.330       22.886       10.184      693.294      523.756      103.713        0.120        0.066       32.863        5.710        0.030      336.101        7.175      858.070
09/22/2013  06:45:00      -40.363       80.301      -18.502       38.625       32.838       19.154     1491.863     1078.310      366.860        0.568        0.147       89.874       22.763        0.064      336.219        7.374      858.057
09/22/2013  06:46:00      -52.703      -31.095       -0.544       45.762       31.859       12.414     2094.200     1014.998      154.107        0.350        0.163       61.193       11.029        0.032      336.068        7.120      858.060
09/22/2013  06:47:00      -79.424      -53.708       -2.696       40.083       25.019       19.736     1606.639      625.971      389.525        0.591        0.131       95.878       20.713        0.047      335.958        6.937      858.071
09/22/2013  06:48:00     -131.794      -51.974       -5.428       32.477       34.393       16.100     1054.744     1182.844      259.212        1.130        0.125      141.672       13.764        0.009      335.872        6.795      858.097
09/22/2013  06:49:00     -150.011      -34.361      -14.047       42.101       38.673       21.572     1772.510     1495.586      465.369        1.381        0.187      153.896       12.704        0.007      335.746        6.585      858.122
09/22/2013  06:50:00     -141.222      -18.039      -17.383       55.466       41.497       28.827     3076.514     1721.993      830.995        1.310        0.281      142.369       23.790        0.028      335.690        6.490      858.152
09/22/2013  06:51:00     -131.700      -34.540       -8.541       53.268       42.196       27.108     2837.527     1780.538      734.851        1.198        0.268      136.153       28.196        0.043      335.728        6.556      858.170
09/22/2013  06:52:00     -100.124       14.797      -10.121       37.100       40.777       27.481     1376.397     1662.764      755.208        0.707        0.190      101.212       22.521        0.050      335.723        6.547      858.187
09/22/2013  06:53:00      -91.871       18.931      -13.810       64.328       45.618       26.389     4138.127     2080.963      696.387        0.795        0.346       93.801       27.986        0.089      335.762        6.613      858.200
09/22/2013  06:54:00      -30.091       11.465        0.141       33.829       34.774       21.684     1144.403     1209.263      470.176        0.193        0.141       32.202       18.659        0.336      335.759        6.608      858.220
09/22/2013  06:55:00      -24.526      100.502       -0.965       43.995       60.091       38.837     1935.517     3610.962     1508.283        0.888        0.353      103.451       25.140        0.059      335.984        6.982      858.216
09/22/2013  06:56:00      -54.210       17.592      -26.089       48.875       56.811       19.654     2388.800     3227.543      386.286        0.496        0.300       56.993       18.900        0.110      336.017        7.036      858.200
09/22/2013  06:57:00      -50.157        3.469      -21.797       28.913       38.004       19.439      835.938     1444.272      377.858        0.283        0.133       50.277       10.175        0.041      335.979        6.973      858.199
09/22/2013  06:58:00     -135.228       43.363      -10.593       41.994       32.582       23.206     1763.463     1061.578      538.540        1.182        0.168      142.011       18.158        0.016      336.177        7.304      858.194
09/22/2013  06:59:00      -88.125       32.229      -11.601       23.521       22.480       17.978      553.245      505.347      323.191        0.516        0.069       93.833       16.609        0.031      336.034        7.064      858.193
09/22/2013  07:00:00      -64.931       34.344       -9.771       17.729       14.144       12.062      314.318      200.041      145.494        0.308        0.033       73.454        3.907        0.003      335.994        6.998      858.198
09/22/2013  07:01:00      -56.933       50.722      -15.102       24.942       31.263       13.948      622.087      977.347      194.541        0.392        0.090       76.250       14.314        0.035      336.089        7.156      858.198
09/22/2013  07:02:00      -56.414      102.412      -18.370       45.382       33.049       21.051     2059.566     1092.222      443.129        0.880        0.180      116.922       15.088        0.017      336.074        7.131      858.192
09/22/2013  07:03:00       -1.960       58.336        8.176       25.071       25.100       17.986      628.572      630.011      323.496        0.253        0.079       58.369       16.472        0.080      336.075        7.134      858.185
09/22/2013  07:04:00       -6.308       83.051       -5.696       19.866       36.126       20.873      394.650     1305.074      435.695        0.455        0.107       83.290       20.086        0.058      336.157        7.269      858.188
09/22/2013  07:05:00        0.287       83.554      -13.195        6.903       16.778        6.502       47.657      281.509       42.278        0.376        0.019       83.555        5.843        0.005      336.054        7.096      858.191
09/22/2013  07:06:00       -7.386      103.766      -17.355       11.668       17.561        7.826      136.147      308.389       61.250        0.581        0.025      104.028        2.729        0.001      336.064        7.114      858.190
09/22/2013  07:07:00      -13.422       76.252       -7.913       19.005       23.702       12.903      361.189      561.791      166.497        0.357        0.054       77.424        8.852        0.013      336.058        7.103      858.192
09/22/2013  07:08:00       11.851       73.636       -8.521       16.055       12.819       11.159      257.772      164.318      124.518        0.309        0.027       74.583        7.201        0.009      336.074        7.130      858.179
09/22/2013  07:09:00        1.885       95.935      -11.807       18.959       35.507       15.368      359.462     1260.715      236.187        0.560        0.093       95.954       17.204        0.032      336.099        7.173      858.167
09/22/2013  07:10:00       10.447       82.715       -8.366       19.673       21.253       16.502      387.017      451.672      272.324        0.407        0.056       83.372       10.742        0.017      336.078        7.137      858.159
09/22/2013  07:11:00        6.658       73.855       -8.369       11.302       26.952       14.125      127.738      726.407      199.509        0.331        0.053       74.154       15.602        0.044      336.081        7.142      858.158
09/22/2013  07:12:00      -16.235       53.917      -11.986       22.265       26.218       13.219      495.711      687.401      174.733        0.234        0.068       56.308       15.165        0.073      336.175        7.301      858.153
09/22/2013  07:13:00        0.100       52.863       -5.996       18.036       12.323       11.941      325.297      151.853      142.587        0.172        0.031       52.863        5.666        0.011      336.061        7.109      858.158
09/22/2013  07:14:00      -11.435       14.670        8.828       17.110       24.670       11.857      292.753      608.589      140.597        0.073        0.052       18.601       10.857        0.341      336.022        7.044      858.164
09/22/2013  07:15:00      -14.152       -7.225        7.525       18.741        7.990        9.047      351.218       63.847       81.846        0.040        0.025       15.890        8.414        0.280      336.160        7.276      858.163
09/22/2013  07:16:00      -75.237        9.531       -6.948       10.421        9.892        6.768      108.594       97.847       45.799        0.303        0.013       75.839        5.414        0.005      336.197        7.337      858.169
09/22/2013  07:17:00      -57.429      -14.601       -7.378       13.476       13.850        8.855      181.594      191.817       78.415        0.201        0.023       59.256        5.378        0.008      336.275        7.469      858.180
09/22/2013  07:18:00      -41.254      -22.215        1.235       25.901       19.293       10.802      670.864      372.218      116.691        0.168        0.058       46.855       11.124        0.056      336.298        7.507      858.173
09/22/2013  07:19:00      -39.622      -21.738       -4.597       21.763        8.364        9.846      473.614       69.959       96.948        0.135        0.032       45.193       11.486        0.065      336.419        7.708      858.187
09/22/2013  07:20:00      -54.097      -27.566       -4.253       20.578       11.623        9.118      423.469      135.094       83.146        0.217        0.032       60.715        6.995        0.013      336.418        7.707      858.203
09/22/2013  07:21:00      -15.266      -16.107        5.276       15.249       17.518        7.455      232.540      306.897       55.584        0.056        0.030       22.192        7.736        0.122      336.329        7.557      858.200
09/22/2013  07:22:00      -54.132      -28.266       -7.130       24.881       12.814        8.190      619.065      164.195       67.082        0.232        0.043       61.067        4.045        0.004      336.251        7.427      858.218
09/22/2013  07:23:00      -17.358      -42.044       -6.872       21.358       25.279        9.451      456.175      639.037       89.315        0.165        0.059       45.486        6.687        0.022      336.279        7.473      858.236
09/22/2013  07:24:00        4.235      -36.113       -3.152       11.886       16.578       10.564      141.266      274.827      111.600        0.093        0.026       36.361       10.236        0.079      336.626        8.057      858.234
09/22/2013  07:25:00        1.739      -29.686       -0.547       18.154       23.676       21.996      329.556      560.565      483.808        0.113        0.069       29.737       16.037        0.291      336.491        7.829      858.248
09/22/2013  07:26:00       -0.002        8.838       18.863       12.480        8.934       11.711      155.761       79.812      137.155        0.040        0.019        8.838       10.024        1.286      336.537        7.906      858.265
09/22/2013  07:27:00        3.404       22.115        2.391        7.295       12.172        9.758       53.214      148.160       95.225        0.040        0.015       22.376        4.923        0.048      336.392        7.662      858.307
09/22/2013  07:28:00       14.072       23.283        4.395       12.882        9.853        7.648      165.947       97.075       58.489        0.054        0.016       27.206        4.666        0.029      336.429        7.724      858.318
09/22/2013  07:29:00       14.643       18.805       26.764       24.316       15.011       14.160      591.268      225.341      200.494        0.115        0.051       23.833        8.396        0.124      336.404        7.684      858.337
09/22/2013  07:30:00       12.375       23.100       33.282       20.113       20.776       18.231      404.517      431.632      332.379        0.148        0.058       26.206       15.507        0.350      336.278        7.474      858.338
09/22/2013  07:31:00       -2.616       11.828       33.038       10.075       15.149       12.928      101.497      229.478      167.136        0.087        0.025       12.114       11.407        0.887      336.513        7.865      858.356
09/22/2013  07:32:00        5.746       -3.979       20.139        9.972       15.734        8.191       99.440      247.545       67.088        0.043        0.021        6.990        9.276        1.761      336.503        7.849      858.378
09/22/2013  07:33:00        4.114       -3.928       14.564       11.817       16.081       13.844      139.632      258.587      191.657        0.042        0.029        5.688       13.575        5.696      336.538        7.907      858.382
09/22/2013  07:34:00       -5.514       17.583        8.152        9.023        9.266       13.176       81.406       85.858      173.597        0.037        0.017       18.427        6.373        0.120      336.478        7.806      858.395
09/22/2013  07:35:00       29.899       29.707        6.635       14.539        9.111       13.593      211.384       83.009      184.757        0.115        0.024       42.148        8.399        0.040      336.343        7.581      858.403
09/22/2013  07:36:00       16.849       19.763        4.891       10.660        9.620       11.539      113.633       92.544      133.139        0.052        0.017       25.970        8.361        0.104      336.339        7.575      858.403
09/22/2013  07:37:00       39.170       29.485        8.136       15.016       14.269       10.809      225.468      203.612      116.831        0.151        0.027       49.027        6.319        0.017      336.297        7.503      858.404
09/22/2013  07:38:00       61.536       49.344        5.492       12.747       12.816       12.286      162.479      164.257      150.938        0.336        0.024       78.877        8.265        0.011      336.262        7.445      858.398
09/22/2013  07:39:00       51.359       35.680        8.417       21.889       18.208       15.890      479.135      331.525      252.490        0.252        0.053       62.536        8.795        0.020      336.346        7.586      858.403
09/22/2013  07:40:00       64.969       51.126        9.257       13.876       19.927       27.864      192.556      397.068      776.417        0.414        0.068       82.673       12.044        0.021      336.311        7.527      858.415
09/22/2013  07:41:00       16.658       37.704       40.956       33.412       25.382       24.740     1116.373      644.237      612.085        0.287        0.119       41.220       23.119        0.315      336.469        7.793      858.428
09/22/2013  07:42:00        9.912       25.344       37.157       18.019       18.321       13.245      324.697      335.654      175.435        0.148        0.042       27.214        8.722        0.103      336.605        8.019      858.445
09/22/2013  07:43:00       28.966       36.320       42.419       27.797       24.897       16.425      772.686      619.876      269.788        0.281        0.083       46.456        6.503        0.020      336.589        7.992      858.466
09/22/2013  07:44:00       42.384       43.583       33.513       25.445       21.197       17.026      647.427      449.311      289.877        0.310        0.069       60.794       14.339        0.056      336.501        7.846      858.476
09/22/2013  07:45:00       64.877       10.924       -2.623       29.719       20.469       15.086      883.233      418.995      227.597        0.293        0.076       65.790        9.533        0.021      336.375        7.634      858.482
09/22/2013  07:46:00       49.979       37.047        6.170       16.672       19.390       20.334      277.962      375.962      413.460        0.249        0.053       62.212       10.967        0.031      336.459        7.775      858.487
09/22/2013  07:47:00       64.054       40.893        7.127       27.475       23.752       23.469      754.854      564.167      550.782        0.385        0.093       75.994       16.373        0.046      336.434        7.732      858.485
09/22/2013  07:48:00       55.725       44.653        6.807       18.834       20.413       19.210      354.703      416.683      369.020        0.314        0.057       71.408        8.374        0.014      336.442        7.747      858.489
09/22/2013  07:49:00       98.262       59.528       26.016       23.454       18.951       23.310      550.072      359.143      543.375        0.766        0.073      114.887       13.121        0.013      336.381        7.643      858.493
09/22/2013  07:50:00       97.425       68.466       24.581       25.901       19.201       20.842      670.887      368.674      434.398        0.813        0.074      119.076       11.425        0.009      336.489        7.825      858.498
09/22/2013  07:51:00       69.899       59.966       32.067       21.045       22.788       30.161      442.878      519.284      909.680        0.569        0.094       92.097       13.224        0.021      336.526        7.888      858.503
09/22/2013  07:52:00       72.818       71.600       41.060       39.962       23.099       27.797     1596.995      533.547      772.670        0.751        0.145      102.122       24.664        0.058      336.617        8.038      858.499
09/22/2013  07:53:00       98.136       76.816       49.170       37.199       21.902       30.191     1383.745      479.689      911.501        1.036        0.139      124.625       25.060        0.040      336.594        8.003      858.499
09/22/2013  07:54:00       27.305       77.315       82.333       39.404       45.749       34.812     1552.667     2092.969     1211.906        0.918        0.243       81.995       26.939        0.108      336.733        8.233      858.487
09/22/2013  07:55:00       98.659       87.900       48.689       35.107       30.629       43.190     1232.475      938.151     1865.409        1.193        0.202      132.137       31.099        0.055      336.601        8.013      858.474
09/22/2013  07:56:00       84.436       56.747       34.399       37.077       31.101       42.322     1374.668      967.272     1791.150        0.783        0.207      101.733       20.041        0.039      336.698        8.174      858.462
09/22/2013  07:57:00       21.772       18.734       19.636       30.243       25.626       24.953      914.634      656.676      622.663        0.170        0.110       28.723       24.872        0.750      337.055        8.772      858.457
09/22/2013  07:58:00       24.598       35.301       46.627       39.085       28.032       23.930     1527.663      785.769      572.662        0.346        0.144       43.026       18.931        0.194      337.124        8.886      858.459
09/22/2013  07:59:00       18.830       21.344       39.419       27.731       25.464       29.820      769.013      648.414      889.243        0.233        0.115       28.463       14.142        0.247      337.238        9.077      858.475
09/22/2013  08:00:00       63.739      -41.011       10.470       57.420       71.374       45.337     3297.103     5094.199     2055.399        0.815        0.522       75.792       56.428        0.554      337.045        8.755      858.479
09/22/2013  08:01:00       38.395       -7.486       20.743       42.935       48.947       38.646     1843.451     2395.846     1493.525        0.385        0.287       39.118       42.456        1.178      337.066        8.789      858.482
09/22/2013  08:02:00       15.810       41.279       54.049       47.172       29.745       23.844     2225.228      884.759      568.553        0.428        0.184       44.203       28.404        0.413      337.082        8.815      858.477
09/22/2013  08:03:00       53.132       61.785       73.503       42.348       41.086       29.115     1793.341     1688.023      847.677        0.819        0.216       81.488       22.832        0.079      336.982        8.648      858.469
09/22/2013  08:04:00       23.448       67.618       64.088       45.089       28.301       21.465     2033.028      800.963      460.738        0.626        0.165       71.568       24.410        0.116      336.965        8.620      858.472
09/22/2013  08:05:00       28.415       43.057       37.507       37.641       37.242       36.044     1416.845     1386.941     1299.183        0.408        0.205       51.588       24.183        0.220      337.095        8.838      858.490
09/22/2013  08:06:00       10.593       22.277       30.825       36.799       39.726       21.887     1354.172     1578.186      479.022        0.248        0.171       24.668       20.170        0.669      337.305        9.190      858.512
09/22/2013  08:07:00        8.817       32.566       60.627       27.533       32.665       21.763      758.084     1066.971      473.619        0.356        0.115       33.738       20.676        0.376      337.221        9.050      858.541
09/22/2013  08:08:00       75.080       26.320       26.708       45.722       37.578       36.813     2090.471     1412.120     1355.168        0.595        0.243       79.560       28.915        0.132      337.020        8.712      858.570
09/22/2013  08:09:00       46.540       36.445       24.598       45.749       47.161       37.810     2092.969     2224.160     1429.632        0.492        0.287       59.112       23.465        0.158      337.116        8.871      858.602
09/22/2013  08:10:00       45.891       75.924       81.164       43.305       41.386       30.791     1875.358     1712.760      948.115        0.950        0.227       88.716       27.126        0.093      337.140        8.912      858.646
09/22/2013  08:11:00       86.758       46.644       39.652       38.092       38.857       31.258     1450.990     1509.880      977.076        0.761        0.197       98.501       23.098        0.055      336.897        8.507      858.676
09/22/2013  08:12:00      102.365       75.468       60.270       43.540       45.723       33.936     1895.748     2090.580     1151.674        1.247        0.257      127.177       26.222        0.043      336.873        8.466      858.687
09/22/2013  08:13:00       50.860       38.554        3.819       25.185       18.752       14.603      634.261      351.622      213.249        0.264        0.060       63.822        9.547        0.022      336.744        8.252      858.700
09/22/2013  08:14:00       15.659       11.143       14.180       17.102       14.203       16.707      292.462      201.728      279.122        0.067        0.039       19.219        5.802        0.091      337.045        8.754      858.700
09/22/2013  08:15:00       23.305       45.056        5.445       27.403       31.294       19.986      750.913      979.311      399.446        0.237        0.106       50.726       18.819        0.138      337.106        8.856      858.695
09/22/2013  08:16:00        0.001       -1.907        8.450       13.701       46.253       19.008      187.711     2139.317      361.289        0.138        0.134        1.907       10.199       28.604      337.181        8.982      858.692
09/22/2013  08:17:00      -11.277       -8.195        0.884        8.721       14.943        8.129       76.057      223.290       66.075        0.028        0.018       13.940        8.137        0.341      337.093        8.835      858.701
09/22/2013  08:18:00      -41.124      -10.995       -7.736       16.022       17.925        9.995      256.692      321.290       99.906        0.127        0.034       42.568        7.955        0.035      337.001        8.680      858.718
09/22/2013  08:19:00      -26.056        6.916       -5.053       29.309       20.726       19.224      859.025      429.556      369.563        0.120        0.083       26.958        7.548        0.078      337.289        9.162      858.731
09/22/2013  08:20:00      -20.847      -10.563       -0.654       26.094       22.307       21.808      680.891      497.611      475.607        0.110        0.083       23.371       14.287        0.374      337.271        9.133      858.744
09/22/2013  08:21:00      -29.358      -34.940        0.619       26.304       22.648       15.664      691.919      512.945      245.356        0.177        0.073       45.636       10.254        0.050      337.302        9.184      858.755
09/22/2013  08:22:00      -49.690      -76.208       -6.002       19.478       27.742       16.745      379.390      769.591      280.398        0.487        0.071       90.976        9.449        0.011      336.991        8.663      858.762
09/22/2013  08:23:00      -58.185      -27.498        7.926       18.716       23.180       14.610      350.280      537.313      213.441        0.265        0.055       64.356       12.755        0.039      337.109        8.860      858.772
09/22/2013  08:24:00      -45.077       13.417        5.023       17.545       11.065       12.212      307.811      122.439      149.132        0.141        0.029       47.032        6.571        0.020      337.039        8.742      858.780
09/22/2013  08:25:00      -53.587       16.561        3.874       22.764       14.010       17.539      518.184      196.284      307.609        0.209        0.051       56.088       15.331        0.075      337.297        9.174      858.780
09/22/2013  08:26:00      -17.575        6.715       33.101       21.446       11.003        9.393      459.932      121.070       88.227        0.106        0.033       18.815        9.194        0.239      337.965       10.297      858.774
09/22/2013  08:27:00      -34.509        9.386       20.131       18.378       12.175       20.231      337.755      148.231      409.300        0.129        0.045       35.763       12.931        0.131      337.548        9.597      858.762
09/22/2013  08:28:00      -24.162        4.153        2.133       19.746       12.702       13.778      389.902      161.340      189.832        0.067        0.037       24.516       10.283        0.176      337.474        9.472      858.762
09/22/2013  08:29:00        1.354       22.730       11.900       12.221       16.241       24.462      149.343      263.760      598.380        0.084        0.051       22.770       14.031        0.380      338.046       10.431      858.763
09/22/2013  08:30:00       30.938       30.723       23.925       43.018       40.334       24.042     1850.528     1626.797      578.002        0.326        0.203       43.601       14.051        0.104      337.787        9.997      858.767
09/22/2013  08:31:00        0.004       23.972       28.023       30.897       39.288       24.602      954.612     1543.574      605.275        0.223        0.155       23.972       14.161        0.349      337.888       10.166      858.771
09/22/2013  08:32:00      -37.321       21.749       -2.019       16.820       24.251       17.443      282.911      588.100      304.272        0.152        0.059       43.196        9.852        0.052      337.255        9.107      858.755
09/22/2013  08:33:00      -15.457       -6.744        1.576       14.047       15.702       15.180      197.307      246.551      230.419        0.048        0.034       16.864       10.408        0.381      337.474        9.473      858.738
09/22/2013  08:34:00       45.416       38.529        6.310       34.188       32.215       28.194     1168.841     1037.816      794.909        0.329        0.150       59.557       15.872        0.071      337.586        9.661      858.717
09/22/2013  08:35:00       34.191       17.240       23.218       35.811       29.490       25.670     1282.463      869.659      658.971        0.241        0.141       38.292       21.686        0.321      337.887       10.164      858.702
09/22/2013  08:36:00        3.984       14.651       27.962       30.653       26.031       18.249      939.601      677.630      333.022        0.148        0.098       15.183       12.965        0.729      338.016       10.382      858.711
09/22/2013  08:37:00      -13.498       49.214        4.465       17.042       44.564       21.697      290.443     1985.928      470.759        0.269        0.137       51.031       25.963        0.259      337.676        9.812      858.729
09/22/2013  08:38:00      -16.833       33.115       12.475       27.973       28.674       26.300      782.504      822.175      691.668        0.192        0.115       37.147       21.203        0.326      337.944       10.261      858.751
09/22/2013  08:39:00       14.029       60.957        3.269       33.944       34.113       30.358     1152.181     1163.677      921.590        0.358        0.162       62.550       21.573        0.119      337.770        9.969      858.752
09/22/2013  08:40:00        2.556       40.663        6.770       22.569       43.080       30.692      509.360     1855.890      942.022        0.251        0.165       40.743       23.505        0.333      337.902       10.190      858.733
09/22/2013  08:41:00       32.525       30.914        7.874       20.233       27.961       29.790      409.378      781.809      887.471        0.208        0.104       44.873       17.361        0.150      337.779        9.985      858.720
09/22/2013  08:42:00       51.853       31.440       15.941       30.099       26.230       24.032      905.974      688.036      577.547        0.305        0.109       60.640       11.773        0.038      337.630        9.733      858.707
09/22/2013  08:43:00       65.537       25.993       17.906       27.500       22.131       28.965      756.255      489.762      838.976        0.369        0.104       70.504       17.659        0.063      337.546        9.593      858.713
09/22/2013  08:44:00       17.365       47.503      -12.029       34.423       21.155       24.217     1184.959      447.515      586.474        0.246        0.111       50.577       15.721        0.097      337.561        9.617      858.727
09/22/2013  08:45:00      -15.037       14.082        9.162       19.275       34.793       15.119      371.531     1210.530      228.581        0.116        0.091       20.601       11.806        0.328      338.040       10.421      858.754
09/22/2013  08:46:00      -38.046       10.698      -11.437       12.058       18.769        8.489      145.393      352.272       72.066        0.113        0.028       39.521        9.097        0.053      337.507        9.527      858.773
09/22/2013  08:47:00      -21.455      -13.525        2.819       16.827       12.802       10.978      283.154      163.879      120.512        0.061        0.028       25.363        7.266        0.082      337.576        9.642      858.792
09/22/2013  08:48:00      -54.930       16.269       -8.651       18.736       18.668       11.629      351.055      348.481      135.241        0.210        0.042       57.289       10.248        0.032      337.468        9.461      858.812
09/22/2013  08:49:00       12.510       15.599       20.793       32.559       19.677       22.251     1060.066      387.193      495.096        0.139        0.097       19.996       12.900        0.416      338.065       10.463      858.833
09/22/2013  08:50:00       27.977       44.522        0.089       27.355       36.931       22.752      748.313     1363.892      517.636        0.270        0.131       52.583       19.410        0.136      337.966       10.298      858.861
09/22/2013  08:51:00       27.011       74.058       -0.973       30.356       38.410       35.284      921.473     1475.341     1244.970        0.493        0.182       78.830       28.769        0.133      338.016       10.381      858.884
09/22/2013  08:52:00       23.440       52.624       13.795       37.938       53.333       29.864     1439.330     2844.405      891.841        0.434        0.259       57.608       31.052        0.291      338.085       10.498      858.931
09/22/2013  08:53:00       10.198       13.850       14.110       29.500       27.403       26.946      870.274      750.910      726.102        0.142        0.117       17.200       15.154        0.776      338.345       10.932      858.958
09/22/2013  08:54:00        0.970       28.553       16.060       26.495       28.996       25.176      702.001      840.755      633.845        0.162        0.109       28.570       22.693        0.631      338.683       11.502      858.974
09/22/2013  08:55:00       -3.253       15.093       19.194       33.094       22.887       25.320     1095.225      523.825      641.091        0.143        0.113       15.440       10.411        0.455      338.460       11.127      858.993
09/22/2013  08:56:00        3.246       33.605       27.685       27.196       45.791       26.503      739.615     2096.777      702.407        0.272        0.177       33.762       25.980        0.592      338.531       11.246      859.009
09/22/2013  08:57:00      -44.184       74.621       -5.094       49.948       36.201       33.535     2494.766     1310.494     1124.629        0.624        0.246       86.721       27.731        0.102      338.066       10.465      859.023
09/22/2013  08:58:00      -45.447       26.795      -16.649       35.989       34.905       17.514     1295.225     1218.355      306.730        0.294        0.141       52.758       18.285        0.120      337.799       10.017      859.038
09/22/2013  08:59:00        0.365       45.291        8.218       28.033       39.227       31.849      785.833     1538.770     1014.382        0.273        0.167       45.292       25.562        0.319      338.274       10.815      859.045
09/22/2013  09:00:00      -56.710       39.155       13.980       53.369       24.457       35.223     2848.302      598.155     1240.671        0.481        0.234       68.914       35.688        0.268      338.267       10.804      859.052
09/22/2013  09:01:00     -128.614       -7.552      -21.478       42.962       32.201       19.206     1845.766     1036.884      368.852        1.016        0.163      128.835       18.459        0.021      337.646        9.761      859.057
09/22/2013  09:02:00      -33.163        2.084        8.054       51.473       19.612       27.581     2649.490      384.612      760.699        0.248        0.190       33.229       32.487        0.956      338.203       10.695      859.059
09/22/2013  09:03:00        1.572      -46.787       -9.956       27.761       39.367       22.586      770.660     1549.726      510.148        0.256        0.142       46.814       21.007        0.201      337.876       10.145      859.040
09/22/2013  09:04:00      -69.084       27.277      -18.371       31.860       28.157       21.102     1015.031      792.838      445.293        0.405        0.113       74.274       13.845        0.035      337.754        9.941      859.041
09/22/2013  09:05:00      -54.194       24.330      -22.018       27.977       19.751       14.382      782.703      390.093      206.856        0.270        0.069       59.405       12.735        0.046      337.820       10.052      859.031
09/22/2013  09:06:00     -122.575       11.076      -10.514       61.474       37.155       23.372     3779.035     1380.476      546.262        1.048        0.285      123.074       18.701        0.023      337.786        9.994      859.022
09/22/2013  09:07:00     -106.890       35.772      -12.716       23.788       33.318       15.894      565.869     1110.082      252.620        0.740        0.096      112.717       12.318        0.012      337.743        9.923      859.021
09/22/2013  09:08:00      -73.201        1.332       -7.661       25.762       27.412       17.099      663.684      751.424      292.371        0.356        0.085       73.213       12.653        0.030      337.793       10.008      859.010
09/22/2013  09:09:00      -60.865      -17.747      -10.030       51.983       27.879       19.000     2702.225      777.255      361.017        0.398        0.192       63.399       20.379        0.103      337.929       10.236      859.004
09/22/2013  09:10:00     -136.719      -33.841      -13.382       61.140       27.149       27.761     3738.088      737.061      770.681        1.263        0.262      140.844       21.667        0.024      337.921       10.221      859.009
09/22/2013  09:11:00     -132.238       76.995      -25.151       53.184       46.942       32.188     2828.546     2203.545     1036.089        1.506        0.303      153.020       29.072        0.036      337.919       10.217      859.018
09/22/2013  09:12:00      -71.516       74.260       -8.144       59.217       38.675       40.440     3506.633     1495.780     1635.423        0.867        0.332      103.097       36.091        0.123      338.241       10.759      859.036
09/22/2013  09:13:00     -152.222      -31.939       -6.502       62.210       49.197       29.188     3870.129     2420.358      851.914        1.569        0.357      155.537       32.687        0.044      337.997       10.349      859.050
09/22/2013  09:14:00     -121.838      -71.961        4.974       80.855       55.567       38.022     6537.522     3087.708     1445.635        1.556        0.554      141.503       36.825        0.068      338.040       10.422      859.053
09/22/2013  09:15:00      -99.334       56.583       -3.729       50.210       69.246       34.278     2521.034     4795.069     1175.006        1.079        0.425      114.319       30.998        0.074      338.015       10.379      859.064
09/22/2013  09:16:00      -51.789       32.387       -1.060       33.753       27.653       26.398     1139.279      764.674      696.859        0.317        0.130       61.082       17.282        0.080      338.396       11.019      859.076
09/22/2013  09:17:00       29.243      -23.008        1.704       30.494       30.212       34.127      929.859      912.783     1164.684        0.220        0.150       37.209       20.906        0.316      338.366       10.967      859.072
09/22/2013  09:18:00      -18.850      -15.936       -6.198       58.520       40.628       40.495     3424.543     1650.671     1639.845        0.368        0.336       24.683       15.694        0.404      338.175       10.648      859.076
09/22/2013  09:19:00      -89.247      -29.602       -6.292       46.374       54.323       22.115     2150.533     2950.991      489.058        0.723        0.280       94.028       24.089        0.066      338.134       10.579      859.097
09/22/2013  09:20:00     -145.204      -15.924        7.816       76.154       57.705       33.657     5799.487     3329.905     1132.814        1.583        0.513      146.075       33.712        0.053      338.198       10.685      859.124
09/22/2013  09:21:00     -129.940      -27.432       -3.092       56.359       59.325       28.513     3176.311     3519.415      812.981        1.258        0.375      132.803       22.729        0.029      338.111       10.540      859.162
09/22/2013  09:22:00       10.029       18.904       28.714       44.342       27.709       31.319     1966.205      767.805      980.908        0.250        0.186       21.400       23.612        1.217      338.952       11.953      859.175
09/22/2013  09:23:00        9.521       42.640       17.049       24.173       26.817       25.786      584.311      719.168      664.933        0.208        0.098       43.690       17.312        0.157      338.954       11.957      859.173
09/22/2013  09:24:00       -1.433      135.973       -7.627       36.508       55.578       40.158     1332.816     3088.867     1612.666        1.229        0.302      135.981       33.414        0.060      338.594       11.353      859.176
09/22/2013  09:25:00       30.690      106.278        8.948       48.485       66.399       51.020     2350.778     4408.826     2602.996        1.084        0.468      110.621       43.123        0.152      338.733       11.584      859.166
09/22/2013  09:26:00      -45.928      164.180       -8.332       48.963       71.079       35.470     2397.415     5052.155     1258.096        1.892        0.435      170.483       33.174        0.038      338.394       11.015      859.161
09/22/2013  09:27:00      -24.217       79.827       11.075       51.377       52.013       35.035     2639.616     2705.340     1227.455        0.683        0.329       83.420       27.513        0.109      338.574       11.320      859.177
09/22/2013  09:28:00      114.252       98.376        8.002       82.689       46.235       42.367     6837.541     2137.647     1794.930        1.678        0.539      150.770       25.223        0.028      338.646       11.438      859.183
09/22/2013  09:29:00      110.373       56.995       -9.411       35.527       34.730       27.431     1262.198     1206.166      752.442        0.937        0.161      124.220       21.788        0.031      338.371       10.977      859.200
09/22/2013  09:30:00      120.742       71.541       28.021       58.812       42.679       43.235     3458.846     1821.493     1869.272        1.381        0.357      140.346       24.548        0.031      338.402       11.028      859.192
09/22/2013  09:31:00      110.116       51.740       33.149       67.664       41.191       44.198     4578.403     1696.664     1953.495        1.206        0.411      121.666       34.169        0.079      338.473       11.148      859.206
09/22/2013  09:32:00       25.248       51.375       -1.088       39.732       35.499       28.665     1578.656     1260.146      821.670        0.347        0.183       57.244       22.372        0.153      338.902       11.871      859.218
09/22/2013  09:33:00      -70.210       81.696      -23.233       53.518       39.188       23.796     2864.183     1535.727      566.237        0.855        0.248      107.720       20.033        0.035      338.573       11.316      859.228
09/22/2013  09:34:00     -106.785       79.346       -9.014       44.778       50.489       34.888     2005.028     2549.182     1217.169        1.177        0.289      133.037       31.083        0.055      338.403       11.031      859.248
09/22/2013  09:35:00      -32.319       61.909       14.000       41.441       70.605       38.545     1717.394     4985.135     1485.680        0.663        0.409       69.837       45.232        0.419      338.800       11.699      859.264
09/22/2013  09:36:00      -53.103        8.906        0.955       34.364       28.726       28.050     1180.868      825.180      786.815        0.285        0.140       53.845       22.174        0.170      338.682       11.500      859.271
09/22/2013  09:37:00      -90.197      -53.813       -2.333       64.414       60.572       34.792     4149.202     3668.928     1210.510        1.003        0.451      105.030       29.121        0.077      338.516       11.219      859.294
09/22/2013  09:38:00     -162.831        6.140      -25.424       49.372       53.849       32.433     2437.590     2899.768     1051.880        1.679        0.319      162.947       17.887        0.012      338.322       10.894      859.290
09/22/2013  09:39:00     -140.443      -14.952      -21.459       46.503       51.956       28.760     2162.516     2699.376      827.116        1.305        0.284      141.236       19.553        0.019      338.378       10.989      859.279
09/22/2013  09:40:00     -113.960        8.276       -8.823       38.348       43.783       19.917     1470.570     1916.909      396.693        0.846        0.189      114.261       19.426        0.029      338.183       10.661      859.265
09/22/2013  09:41:00      -52.580       11.829        5.924       33.289       53.031       37.952     1108.184     2812.279     1440.367        0.415        0.268       53.895       24.358        0.204      338.416       11.054      859.239
09/22/2013  09:42:00      -99.154      -13.330        2.231       64.103       74.911       40.700     4109.136     5611.603     1656.493        1.069        0.569      100.046       31.211        0.097      338.436       11.086      859.221
09/22/2013  09:43:00      -77.642        0.029      -18.496       30.508       48.149       25.698      930.710     2318.350      660.365        0.514        0.195       77.642       19.879        0.066      338.323       10.897      859.216
09/22/2013  09:44:00      -60.003      -32.865       -2.405       30.663       27.546       19.381      940.212      758.766      375.641        0.338        0.104       68.414       15.377        0.051      338.339       10.923      859.187
09/22/2013  09:45:00      -14.815      -12.891       15.748       54.674       40.846       34.407     2989.292     1668.409     1183.815        0.324        0.292       19.639       32.922        2.810      338.969       11.984      859.165
09/22/2013  09:46:00        6.780      -12.062       26.437       68.495       66.623       39.395     4691.576     4438.611     1551.997        0.578        0.534       13.837       33.076        5.714      338.957       11.963      859.134
09/22/2013  09:47:00      -28.338      -73.166       37.630      106.439       51.698       54.000    11329.190     2672.668     2916.007        1.224        0.846       78.462       62.551        0.636      338.518       11.224      859.100
09/22/2013  09:48:00     -172.906      -72.093        0.055       79.935       58.948       41.667     6389.644     3474.885     1736.124        2.335        0.580      187.334       43.932        0.055      338.219       10.721      859.081
09/22/2013  09:49:00      -69.088      -50.906       -7.281       45.322       35.591       20.176     2054.122     1266.712      407.079        0.557        0.186       85.817       19.049        0.049      338.309       10.872      859.060
09/22/2013  09:50:00      -63.810      -66.601       -2.692       63.576       31.232       30.590     4041.851      975.429      935.778        0.723        0.298       92.236       33.969        0.136      338.334       10.916      859.042
09/22/2013  09:51:00      -58.062      -31.621        0.616       36.753       27.997       21.504     1350.747      783.812      462.414        0.348        0.130       66.114       16.624        0.063      338.338       10.923      859.039
09/22/2013  09:52:00      -35.748      -49.246        2.724       19.100       32.358       20.763      364.801     1047.018      431.084        0.278        0.092       60.853       14.835        0.059      338.363       10.963      859.040
09/22/2013  09:53:00      -59.310      -81.961       -3.229       29.971       35.053       16.414      898.265     1228.744      269.433        0.632        0.120      101.170       16.634        0.027      338.198       10.687      859.049
09/22/2013  09:54:00      -84.507      -98.742       -4.581       70.716       59.470       30.657     5000.765     3536.679      939.842        1.319        0.474      129.967       35.834        0.076      338.322       10.893      859.064
09/22/2013  09:55:00     -140.623      -97.208        6.085       74.958       54.564       39.085     5618.691     2977.222     1527.676        1.969        0.506      170.951       42.757        0.063      338.342       10.926      859.069
09/22/2013  09:56:00      -63.906      -93.835       17.921       66.923       72.300       39.400     4478.697     5227.288     1552.352        1.223        0.563      113.530       42.103        0.138      338.564       11.301      859.084
09/22/2013  09:57:00     -102.310     -121.778        3.908       74.388       43.727       48.730     5533.587     1912.047     2374.569        1.756        0.491      159.051       50.743        0.102      338.422       11.062      859.078
09/22/2013  09:58:00      -77.153     -125.428        4.121       73.080       58.102       38.313     5340.637     3375.859     1467.915        1.594        0.509      147.257       38.430        0.068      338.412       11.044      859.074
09/22/2013  09:59:00      -77.219     -151.257       -0.255       56.870       44.760       31.587     3234.201     2003.445      997.707        1.754        0.312      169.828       32.656        0.037      338.339       10.921      859.070
09/22/2013  10:00:00      -80.230      -59.384       12.090       65.130       48.927       33.127     4241.934     2393.813     1097.369        0.892        0.387       99.817       34.639        0.120      338.621       11.397      859.078
09/22/2013  10:01:00     -120.582      -97.180        1.598       62.144       49.027       35.724     3861.894     2403.669     1276.170        1.576        0.377      154.868       31.100        0.040      338.553       11.282      859.091
09/22/2013  10:02:00      -78.453     -114.375      -12.184       36.362       24.396       23.156     1322.221      595.185      536.220        1.092        0.123      138.695       18.524        0.018      338.404       11.034      859.097
09/22/2013  10:03:00      -87.594      -58.960       -2.015       78.533       51.785       34.623     6167.460     2681.701     1198.767        1.060        0.502      105.588       29.254        0.077      338.734       11.586      859.096
09/22/2013  10:04:00      -37.829     -124.570        5.463       43.898       63.186       25.873     1927.060     3992.437      669.435        1.178        0.329      130.187       27.048        0.043      338.654       11.452      859.075
09/22/2013  10:05:00      -39.532     -176.305       -7.178       48.429       45.276       27.937     2345.406     2049.935      780.473        1.894        0.259      180.683       14.249        0.006      338.608       11.375      859.069
09/22/2013  10:06:00      -66.486     -119.641       -6.752       33.556       43.644       23.917     1125.977     1904.839      572.042        1.119        0.180      136.873       16.957        0.015      338.437       11.088      859.076
09/22/2013  10:07:00      -89.191     -110.246      -11.745       68.655       54.285       33.002     4713.504     2946.846     1089.111        1.450        0.437      141.808       36.089        0.065      338.513       11.215      859.100
09/22/2013  10:08:00      -22.199      -72.595        8.005       48.037       46.640       32.097     2307.591     2175.276     1030.243        0.567        0.276       75.914       29.359        0.150      338.700       11.530      859.115
09/22/2013  10:09:00     -102.600      -87.581        6.274       58.915       50.865       34.426     3470.939     2587.217     1185.177        1.274        0.362      134.897       32.427        0.058      338.627       11.407      859.123
09/22/2013  10:10:00      -58.779      -26.258        9.139       65.237       51.157       26.821     4255.906     2617.089      719.357        0.591        0.380       64.378       28.875        0.201      339.048       12.116      859.113
09/22/2013  10:11:00      -20.505      -15.620       12.461       41.325       45.521       25.577     1707.737     2072.125      654.167        0.263        0.222       25.777       22.600        0.769      339.414       12.732      859.115
09/22/2013  10:12:00      -51.826      -51.298       11.009       52.393       60.270       29.467     2745.057     3632.444      868.291        0.634        0.362       72.920       33.057        0.206      339.270       12.490      859.128
09/22/2013  10:13:00      -25.911      -10.208       20.348       49.270       48.253       24.332     2427.559     2328.380      592.037        0.327        0.267       27.849       24.773        0.791      339.402       12.712      859.135
09/22/2013  10:14:00      -51.387      -43.125       13.624       68.815       35.083       30.045     4735.458     1230.798      902.728        0.578        0.343       67.085       33.946        0.256      339.022       12.072      859.147
09/22/2013  10:15:00      -65.828      -65.646        3.470       50.924       29.082       24.928     2593.269      845.777      621.407        0.636        0.203       92.966       22.262        0.057      338.748       11.611      859.172
09/22/2013  10:16:00      -44.478      -50.501        3.869       36.413       35.249       24.303     1325.922     1242.484      590.652        0.385        0.158       67.295       21.300        0.100      338.839       11.764      859.201
09/22/2013  10:17:00      -66.165     -105.674       -5.010       31.173       41.848       20.187      971.771     1751.264      407.529        0.935        0.157      124.679       15.592        0.016      338.573       11.317      859.211
09/22/2013  10:18:00      -65.698     -123.047       -1.737       54.933       70.638       25.419     3017.589     4989.711      646.138        1.405        0.433      139.487       11.963        0.007      338.672       11.481      859.208
09/22/2013  10:19:00      -65.641     -126.616       -1.056       52.905       50.517       31.978     2798.953     2551.974     1022.623        1.336        0.319      142.619       28.610        0.040      338.616       11.387      859.180
09/22/2013  10:20:00      -50.318     -110.720       -7.546       13.463       44.988       10.906      181.256     2023.904      118.946        0.859        0.116      121.617        6.966        0.003      338.371       10.976      859.166
09/22/2013  10:21:00      -24.502        4.839       38.922       33.947       54.091       45.490     1152.419     2925.805     2069.318        0.414        0.307       24.976       28.278        1.282      339.267       12.484      859.142
09/22/2013  10:22:00       44.390        4.862       47.902       58.073       76.131       45.615     3372.489     5795.998     2080.707        0.777        0.562       44.656       54.194        1.473      339.454       12.799      859.148
09/22/2013  10:23:00       85.870      -82.544        9.306       63.874       97.471       62.169     4079.842     9500.637     3864.981        1.586        0.872      119.110       64.829        0.296      339.326       12.582      859.144
09/22/2013  10:24:00       54.263      -16.225       39.300       63.880       60.945       51.659     4080.678     3714.292     2668.684        0.761        0.523       56.637       45.780        0.653      339.551       12.961      859.156
09/22/2013  10:25:00       16.091      -63.783       -6.525       57.272       49.339       43.034     3280.045     2434.288     1851.911        0.597        0.378       65.781       31.367        0.227      339.076       12.163      859.156
09/22/2013  10:26:00       32.489        3.981       52.286       40.891       56.679       37.754     1672.071     3212.493     1425.334        0.506        0.315       32.732       39.352        1.445      339.365       12.650      859.153
09/22/2013  10:27:00       61.053       33.979       44.921       59.207       44.909       34.194     3505.522     2016.833     1169.239        0.679        0.335       69.871       26.801        0.147      339.109       12.217      859.128
09/22/2013  10:28:00        0.539       18.741       38.046       35.236       19.303       23.999     1241.552      372.623      575.963        0.199        0.110       18.748       14.395        0.590      339.863       13.488      859.111
09/22/2013  10:29:00      -34.426       -0.371       -7.601       25.341       26.394       17.705      642.160      696.622      313.482        0.145        0.083       34.428       12.863        0.140      339.422       12.743      859.099
09/22/2013  10:30:00      -32.600        9.720        7.626       34.968       38.987       29.858     1222.777     1519.980      891.493        0.242        0.182       34.018       28.995        0.726      339.473       12.832      859.087
09/22/2013  10:31:00      -50.592      -39.131       12.809       70.740       61.428       51.046     5004.079     3773.356     2605.727        0.782        0.569       63.960       51.338        0.644      339.326       12.582      859.064
09/22/2013  10:32:00      -90.451      -56.865        7.955       72.481       58.044       39.464     5253.433     3369.082     1557.381        1.083        0.509      106.841       28.228        0.070      339.103       12.207      859.069
09/22/2013  10:33:00      -70.255      -28.233       14.404       70.443       41.226       29.373     4962.190     1699.546      862.785        0.673        0.376       75.716       33.685        0.198      339.293       12.529      859.083
09/22/2013  10:34:00       10.220      -51.338       30.824       72.111       79.802       45.686     5199.981     6368.415     2087.167        0.867        0.683       52.345       38.293        0.535      339.610       13.061      859.093
09/22/2013  10:35:00       16.972       19.851       47.901       52.255       79.921       48.574     2730.572     6387.413     2359.458        0.722        0.574       26.118       52.808        4.088      339.541       12.945      859.106
09/22/2013  10:36:00       -8.878      -99.284      -11.910       80.954       62.038       35.637     6553.487     3848.695     1269.994        1.087        0.584       99.680       41.733        0.175      339.289       12.520      859.096
09/22/2013  10:37:00     -117.306      -89.187        6.828       81.669       55.960       31.053     6669.769     3131.522      964.265        1.626        0.538      147.360       33.257        0.051      339.272       12.492      859.106
09/22/2013  10:38:00      -75.861     -145.342       -0.928       57.039       72.137       31.442     3253.417     5203.744      988.578        1.816        0.472      163.949       39.284        0.057      338.918       11.895      859.122
09/22/2013  10:39:00     -111.727     -125.985       -7.273       66.352       50.584       29.535     4402.643     2558.763      872.306        1.812        0.392      168.390       23.150        0.019      338.758       11.624      859.144
09/22/2013  10:40:00     -111.370     -115.515      -10.350       47.304       58.353       27.970     2237.696     3405.115      782.298        1.614        0.321      160.459       13.505        0.007      338.891       11.850      859.164
09/22/2013  10:41:00      -93.969      -36.002        9.880       83.180       61.403       33.394     6918.940     3770.338     1115.160        1.101        0.590      100.630       42.749        0.180      339.471       12.829      859.161
09/22/2013  10:42:00     -180.014      -92.006       -8.206       87.112       58.105       43.879     7588.465     3376.172     1925.374        2.691        0.645      202.163       44.474        0.048      338.854       11.787      859.160
09/22/2013  10:43:00     -157.026      -58.167      -14.177       30.415       37.124       20.861      925.073     1378.189      435.197        1.549        0.137      167.453        8.479        0.003      338.735       11.588      859.163
09/22/2013  10:44:00     -185.770       -8.043      -22.446       52.652       59.861       28.976     2772.239     3583.369      839.624        2.114        0.360      185.944       26.049        0.020      338.683       11.500      859.171
09/22/2013  10:45:00     -162.619      -32.911      -26.581       18.800       20.862       18.667      353.443      435.230      348.459        1.469        0.057      165.916       12.043        0.005      338.682       11.499      859.182
09/22/2013  10:46:00     -139.572      -87.207      -11.648       51.060       54.911       30.107     2607.082     3015.235      906.447        1.687        0.326      164.576       12.394        0.006      338.766       11.640      859.187
09/22/2013  10:47:00     -137.009      -19.740      -24.404       26.599       33.666       17.728      707.500     1133.404      314.299        1.096        0.108      138.423       12.915        0.009      338.739       11.595      859.161
09/22/2013  10:48:00      -70.234      -40.238       -7.575       56.596       42.099       26.017     3203.150     1772.292      676.878        0.613        0.283       80.944       19.981        0.061      338.993       12.022      859.143
09/22/2013  10:49:00      -67.185      -53.122      -10.544       29.565       31.792       17.045      874.105     1010.758      290.518        0.481        0.109       85.649       11.157        0.017      339.073       12.157      859.126
09/22/2013  10:50:00      -42.846      -19.682        7.504       38.045       27.103       22.518     1447.418      734.590      507.082        0.248        0.134       47.151       25.266        0.287      339.553       12.967      859.136
09/22/2013  10:51:00      -16.824       27.890       18.066       29.327       20.447       20.881      860.080      418.068      436.008        0.155        0.086       32.571       11.068        0.115      340.078       13.850      859.162
09/22/2013  10:52:00      -10.007      214.343       -7.054       44.328       62.478       35.069     1965.009     3903.552     1229.814        2.659        0.355      214.577       26.886        0.016      339.193       12.357      859.202
09/22/2013  10:53:00       -8.792       62.048        6.916       27.283       84.747       35.332      744.353     7182.014     1248.341        0.657        0.459       62.668       37.502        0.358      339.686       13.189      859.235
09/22/2013  10:54:00       -1.923       75.250        5.168       25.627       51.698       33.553      656.761     2672.664     1125.820        0.507        0.223       75.275       35.813        0.226      339.749       13.297      859.256
09/22/2013  10:55:00        0.699      107.770       -7.227       38.464       51.877       37.089     1479.498     2691.176     1375.605        0.861        0.277      107.772       32.498        0.091      339.639       13.111      859.249
09/22/2013  10:56:00       -9.736      106.707       19.307       54.945       74.871       43.583     3018.992     5605.695     1899.473        1.119        0.526      107.151       35.744        0.111      339.996       13.713      859.255
09/22/2013  10:57:00      101.055       81.955       32.644       95.417       60.658       51.500     9104.402     3679.450     2652.219        1.671        0.772      130.111       59.758        0.211      339.955       13.642      859.241
09/22/2013  10:58:00       92.373      111.530       56.790       51.775       43.232       55.023     2680.682     1869.043     3027.514        1.589        0.379      144.816       33.005        0.052      339.434       12.766      859.237
09/22/2013  10:59:00      107.697       83.525       26.088       66.728       68.974       55.203     4452.662     4757.415     3047.327        1.575        0.613      136.290       32.967        0.059      339.611       13.062      859.231
09/22/2013  11:00:00       30.277       82.137       79.308       42.887       55.216       45.706     1839.318     3048.781     2089.008        1.046        0.349       87.539       31.412        0.129      339.828       13.427      859.234
09/22/2013  11:01:00       34.759      -70.590        8.802       25.179       52.305       34.358      633.995     2735.821     1180.457        0.541        0.228       78.684       37.202        0.224      339.378       12.671      859.235
09/22/2013  11:02:00       44.220      -30.619       21.797       36.528       96.547       39.297     1334.311     9321.397     1544.272        0.778        0.610       53.786       41.690        0.601      339.938       13.614      859.225
09/22/2013  11:03:00       25.906       40.325       41.579       47.045       32.975       39.573     2213.192     1087.319     1565.984        0.445        0.243       47.930       36.389        0.576      340.188       14.037      859.240
09/22/2013  11:04:00       32.518        3.693       49.078       54.879       69.095       38.669     3011.695     4774.138     1495.319        0.638        0.464       32.727       41.892        1.638      339.960       13.654      859.263
09/22/2013  11:05:00       49.374       17.062       31.407       31.218       46.471       33.270      974.546     2159.571     1106.906        0.398        0.212       52.239       25.326        0.235      339.557       12.972      859.279
09/22/2013  11:06:00       71.511       43.963       10.191       51.289       42.877       38.622     2630.531     1838.475     1491.634        0.655        0.298       83.944       16.382        0.038      339.753       13.304      859.275
09/22/2013  11:07:00       23.071      -33.324       13.227       56.363      105.267       64.317     3176.744    11081.054     4136.698        1.010        0.920       40.531       71.010        3.069      339.798       13.376      859.256
09/22/2013  11:08:00       55.117     -116.025       -9.444       65.189       64.332       61.361     4249.591     4138.575     3765.189        1.437        0.608      128.451       42.626        0.110      339.586       13.019      859.234
09/22/2013  11:09:00       20.823      -88.790       -0.146       46.672      103.164       49.362     2178.261    10642.901     2436.654        1.178        0.763       91.199       53.281        0.341      339.761       13.316      859.225
09/22/2013  11:10:00       16.265       70.207       88.205       57.090       54.046       37.329     3259.318     2920.989     1393.453        1.027        0.379       72.066       29.889        0.172      339.926       13.595      859.215
09/22/2013  11:11:00      133.105      105.592       20.965       66.180       40.838       52.404     4379.788     1667.723     2746.183        1.905        0.440      169.902       36.660        0.047      339.600       13.042      859.202
09/22/2013  11:12:00       95.756       87.742       27.545       64.995       68.026       49.029     4224.344     4627.502     2403.876        1.444        0.563      129.876       42.930        0.109      339.561       12.979      859.193
09/22/2013  11:13:00        3.434       78.453       -0.861       43.483       53.974       41.223     1890.762     2913.242     1699.373        0.633        0.325       78.528       34.650        0.195      339.687       13.191      859.187
09/22/2013  11:14:00      -14.887       51.872       -1.070       43.560       50.829       38.530     1897.497     2583.602     1484.582        0.444        0.298       53.966       30.533        0.320      339.829       13.431      859.197
09/22/2013  11:15:00      -60.979      107.897      -17.274       37.662       58.142       41.017     1418.426     3380.465     1682.381        1.107        0.324      123.936       35.474        0.082      339.604       13.052      859.196
09/22/2013  11:16:00        3.193      117.165      -22.504       68.369       65.973       45.290     4674.290     4352.390     2051.177        1.266        0.554      117.208       28.204        0.058      339.551       12.962      859.165
09/22/2013  11:17:00       85.889       73.380       20.787       66.018       47.028       46.466     4358.378     2211.655     2159.062        1.096        0.436      112.967       33.106        0.086      339.548       12.956      859.147
09/22/2013  11:18:00       65.734       76.117       12.677       51.909       52.552       38.975     2694.574     2761.733     1519.045        0.862        0.349      100.572       29.249        0.085      339.675       13.170      859.103
09/22/2013  11:19:00       92.926       63.742        5.680       31.030       40.081       34.606      962.883     1606.478     1197.588        0.825        0.188      112.687        9.596        0.007      339.294       12.529      859.088
09/22/2013  11:20:00       97.266      -23.519       -7.603       68.794       93.036       40.345     4732.606     8655.787     1627.709        1.254        0.751      100.069       45.341        0.205      339.689       13.192      859.069
09/22/2013  11:21:00       95.821      -36.491       40.523       69.484      119.409       70.801     4827.996    14258.431     5012.822        1.812        1.205      102.534       69.323        0.457      340.197       14.051      859.026
09/22/2013  11:22:00       22.539       -0.192       62.714       45.138       95.290       56.054     2037.479     9080.120     3142.032        0.935        0.713       22.540       69.067        9.390      340.132       13.943      859.030
09/22/2013  11:23:00       24.884      -46.815       33.573       56.264      116.583       61.294     3165.657    13591.663     3757.003        1.222        1.026       53.018       78.197        2.175      340.105       13.896      859.001
09/22/2013  11:24:00       -9.848       29.197       63.556       28.336       47.821       43.973      802.906     2286.843     1933.620        0.501        0.251       30.814       39.984        1.684      340.334       14.283      858.995
09/22/2013  11:25:00        5.345        5.595       42.202       33.106       61.079       32.934     1095.984     3730.684     1084.643        0.387        0.296        7.738       36.569       22.331      340.544       14.638      858.999
09/22/2013  11:26:00        3.569        6.038       41.021       20.042       29.101       20.269      401.668      846.877      410.846        0.170        0.083        7.014       10.539        2.258      341.087       15.557      858.999
09/22/2013  11:27:00      -25.601       -9.547       41.009       66.831       52.380       36.551     4466.408     2743.629     1335.996        0.549        0.427       27.323       29.238        1.145      340.785       15.045      859.008
09/22/2013  11:28:00      -36.000        2.547       28.975       64.761       46.306       38.845     4194.014     2144.267     1508.969        0.499        0.392       36.090       43.293        1.439      340.515       14.588      859.000
09/22/2013  11:29:00      -70.868      -97.927       -2.888       68.130       81.302       56.398     4641.741     6610.029     3180.721        1.452        0.722      120.880       42.931        0.126      339.950       13.633      858.994
09/22/2013  11:30:00      -40.746      -66.095       17.328       74.930       61.343       48.585     5614.506     3762.964     2360.485        0.903        0.587       77.645       41.553        0.286      340.234       14.113      859.006
09/22/2013  11:31:00      -50.892      -29.507       26.913       70.893       42.318       33.250     5025.801     1790.845     1105.581        0.605        0.396       58.827       37.546        0.407      340.203       14.062      859.009
09/22/2013  11:32:00        5.849      -34.178       18.946       35.674       52.549       32.452     1272.656     2761.448     1053.157        0.332        0.254       34.675       29.114        0.705      340.424       14.436      859.010
09/22/2013  11:33:00      -15.524     -117.838        1.048       89.374       70.405       59.541     7987.787     4956.839     3545.088        1.531        0.824      118.856       27.527        0.054      340.152       13.975      859.002
09/22/2013  11:34:00       48.356     -113.364        0.761       72.811      108.584       67.673     5301.504    11790.385     4579.586        1.843        1.084      123.246       67.899        0.304      340.434       14.450      858.994
09/22/2013  11:35:00       65.617      -60.994       20.854       73.465      112.264       86.285     5397.061    12603.164     7445.107        1.695        1.272       89.587       86.888        0.941      340.272       14.178      859.002
09/22/2013  11:36:00       35.121      -93.689       20.462       58.503       71.642       51.452     3422.553     5132.583     2647.343        1.081        0.560      100.055       56.650        0.321      340.105       13.896      859.017
09/22/2013  11:37:00       36.439     -102.346        4.776       36.734       52.430       36.910     1349.382     2748.873     1362.383        0.864        0.273      108.640       26.591        0.060      339.987       13.697      859.019
09/22/2013  11:38:00       44.797      -67.939        3.675       62.361       81.532       47.032     3888.884     6647.441     2212.032        0.969        0.637       81.379       55.716        0.469      339.986       13.697      859.023
09/22/2013  11:39:00       -0.140      -20.780       24.528       26.249       40.384       32.856      689.027     1630.848     1079.539        0.222        0.170       20.780       20.414        0.965      340.436       14.455      858.999
09/22/2013  11:40:00       23.004      -58.241       11.332       33.044       69.497       33.292     1091.894     4829.796     1108.350        0.554        0.352       62.620       33.829        0.292      340.164       13.997      858.989
09/22/2013  11:41:00       13.549      -70.048      -15.839       22.870       28.546       27.966      523.020      814.884      782.099        0.373        0.106       71.346       10.117        0.020      339.628       13.091      858.980
09/22/2013  11:42:00       12.914      -39.300      -33.742       43.762       51.246       33.371     1915.142     2626.150     1113.641        0.425        0.283       41.368       20.953        0.257      339.889       13.532      858.955
09/22/2013  11:43:00      -55.810       10.293      -13.585       28.598       36.901       23.714      817.867     1361.697      562.355        0.307        0.137       56.752       14.073        0.061      339.820       13.416      858.947
09/22/2013  11:44:00       33.329      -47.647        4.305       33.037       54.677       26.002     1091.442     2989.611      676.094        0.408        0.238       58.147       21.018        0.131      340.372       14.348      858.930
09/22/2013  11:45:00      -40.974       77.527        8.585       57.848       46.484       35.286     3346.425     2160.732     1245.080        0.726        0.338       87.689       34.319        0.153      340.469       14.512      858.919
09/22/2013  11:46:00       -8.306       72.714       13.875       39.916       81.065       35.814     1593.265     6571.462     1282.631        0.750        0.472       73.187       40.556        0.307      340.720       14.935      858.911
09/22/2013  11:47:00      -51.109       81.088        5.361       54.494       45.020       41.937     2969.546     2026.843     1758.673        0.798        0.338       95.851       36.088        0.142      340.605       14.742      858.880
09/22/2013  11:48:00      -76.648      120.312      -10.882       46.434       65.447       41.052     2156.079     4283.258     1685.250        1.429        0.406      142.653       27.969        0.038      340.196       14.048      858.869
09/22/2013  11:49:00      -80.762       60.872      -10.057       29.684       36.970       25.977      881.137     1366.771      674.818        0.663        0.146      101.133       21.735        0.046      339.924       13.592      858.862
09/22/2013  11:50:00     -104.103        8.528      -20.976       57.922       57.554       30.710     3354.957     3312.475      943.113        0.948        0.381      104.451       18.149        0.030      339.845       13.456      858.838
09/22/2013  11:51:00      -82.055      -78.868       -0.321       87.738       70.367       51.100     7697.926     4951.553     2611.192        1.410        0.763      113.812       45.826        0.162      340.330       14.276      858.824
09/22/2013  11:52:00     -115.020      -78.445        4.687       93.477       58.147       42.870     8737.997     3381.097     1837.856        1.668        0.698      139.224       49.381        0.126      340.115       13.914      858.813
09/22/2013  11:53:00      -97.228     -108.823      -10.519       71.146       56.993       37.738     5061.742     3248.252     1424.167        1.557        0.487      145.931       34.403        0.056      339.755       13.305      858.811
09/22/2013  11:54:00      -15.078      -20.821       14.934       20.170       18.321       14.974      406.821      335.647      224.233        0.093        0.048       25.707       15.724        0.374      340.252       14.146      858.798
09/22/2013  11:55:00      -27.910      -18.452       10.189       35.747       53.179       35.223     1277.867     2828.014     1240.684        0.328        0.267       33.458       25.307        0.572      340.527       14.609      858.757
09/22/2013  11:56:00       -4.164      -19.538       49.688       32.736       69.446       33.056     1071.641     4822.732     1092.714        0.493        0.349       19.977       34.878        3.048      341.074       15.535      858.750
09/22/2013  11:57:00       29.341       48.133       42.225       41.274       41.675       45.079     1703.530     1736.795     2032.155        0.522        0.274       56.371       10.025        0.032      340.857       15.167      858.743
09/22/2013  11:58:00       24.415       93.675       -5.511       28.473       48.808       28.086      810.706     2382.195      788.844        0.669        0.199       96.804       28.445        0.086      340.483       14.535      858.747
09/22/2013  11:59:00       32.860      125.550       10.327       50.413       95.834       46.260     2541.486     9184.137     2139.975        1.540        0.693      129.779       33.500        0.067      340.455       14.486      858.771
09/22/2013  12:00:00        4.621       44.243       41.120       39.848       54.812       38.616     1587.833     3004.397     1491.165        0.488        0.304       44.484       29.442        0.438      341.286       15.895      858.770
09/22/2013  12:01:00        3.573       68.486       -6.202       37.212       58.751       33.140     1384.698     3451.646     1098.261        0.534        0.297       68.579       32.033        0.218      340.724       14.944      858.771
09/22/2013  12:02:00      -84.102       61.547       -6.124       40.998       36.296       38.172     1680.872     1317.435     1457.114        0.768        0.223      104.217       25.443        0.060      340.489       14.546      858.748
09/22/2013  12:03:00      -24.166      101.775        5.968       48.580       57.143       44.814     2359.995     3265.357     2008.260        0.930        0.382      104.605       36.486        0.122      340.580       14.701      858.726
09/22/2013  12:04:00       12.315       37.751       29.779       43.315       39.432       30.634     1876.221     1554.885      938.432        0.342        0.218       39.709       29.147        0.539      341.068       15.524      858.698
09/22/2013  12:05:00      -45.479       96.538       -1.841       46.780       52.555       34.422     2188.350     2762.044     1184.842        0.876        0.307      106.714       36.725        0.118      340.697       14.899      858.687
09/22/2013  12:06:00      -66.205       70.565       -5.566       43.016       41.639       31.631     1850.409     1733.778     1000.522        0.699        0.229       96.760       29.787        0.095      340.600       14.733      858.674
09/22/2013  12:07:00      -40.921       96.872       -0.714       31.140       53.062       35.514      969.705     2815.576     1261.231        0.805        0.252      105.160       35.937        0.117      340.721       14.940      858.658
09/22/2013  12:08:00        3.793       14.159       21.648       34.522       36.700       26.002     1191.783     1346.874      676.105        0.195        0.161       14.658       14.919        1.036      341.161       15.682      858.652
09/22/2013  12:09:00       78.725       62.968       45.020       48.989       50.392       34.793     2399.961     2539.355     1210.552        0.917        0.307      100.810       19.317        0.037      340.646       14.811      858.610
09/22/2013  12:10:00      -43.382      128.846       -0.798       73.504       82.228       48.466     5402.895     6761.378     2348.932        1.650        0.726      135.954       56.407        0.172      340.654       14.823      858.597
09/22/2013  12:11:00      -19.728       93.433        3.854       39.788       68.507       37.004     1583.075     4693.270     1369.285        0.839        0.382       95.493       38.488        0.162      340.879       15.204      858.598
09/22/2013  12:12:00      -18.196       48.424        8.674       64.264       73.769       43.014     4129.813     5441.809     1850.219        0.708        0.571       51.730       31.366        0.368      340.480       14.530      858.572
09/22/2013  12:13:00     -101.607      157.187      -21.211       56.875       97.959       42.894     3234.723     9595.875     1839.875        2.507        0.734      187.167       38.179        0.042      340.488       14.539      858.548
09/22/2013  12:14:00      -12.623      130.069       -5.209       44.196       75.151       38.115     1953.260     5647.613     1452.743        1.308        0.453      130.680       36.184        0.077      340.758       15.000      858.560
09/22/2013  12:15:00       36.727       39.048       18.700       62.175       49.318       35.479     3865.781     2432.243     1258.735        0.539        0.378       53.607       27.700        0.267      341.044       15.485      858.554
09/22/2013  12:16:00      -20.207       17.241        0.469       25.086       50.902       34.602      629.296     2590.983     1197.269        0.256        0.221       26.563       32.589        1.505      341.100       15.578      858.525
09/22/2013  12:17:00        6.083       93.351        4.141       43.312       52.361       43.561     1875.958     2741.665     1897.571        0.764        0.326       93.549       36.176        0.150      341.165       15.690      858.519
09/22/2013  12:18:00      -88.795       60.119       17.642      103.252       59.427       51.018    10661.025     3531.560     2602.807        1.430        0.840      107.233       50.384        0.221      340.907       15.252      858.507
09/22/2013  12:19:00     -117.169       18.974      -15.755       87.546       42.135       42.025     7664.387     1775.385     1766.072        1.277        0.560      118.696       51.867        0.191      340.386       14.370      858.543
09/22/2013  12:20:00       36.729      -23.371       -6.904       64.553       29.769       30.603     4167.041      886.197      936.539        0.397        0.299       43.534       32.190        0.547      340.428       14.441      858.543
09/22/2013  12:21:00      -53.029      -18.703       -4.565       32.397       40.013       23.310     1049.573     1601.075      543.359        0.319        0.160       56.231       13.872        0.061      340.642       14.803      858.552
09/22/2013  12:22:00      -66.286       52.435       -8.373       69.671       44.399       37.252     4853.995     1971.310     1387.692        0.771        0.411       84.518       42.144        0.249      340.905       15.250      858.562
09/22/2013  12:23:00      -50.321       84.542       -2.961       46.279       40.242       43.688     2141.704     1619.426     1908.675        0.768        0.283       98.385       31.728        0.104      341.022       15.448      858.564
09/22/2013  12:24:00      -17.289       19.281       40.354       36.399       28.063       32.251     1324.869      787.541     1040.153        0.273        0.158       25.897       15.341        0.351      341.823       16.804      858.559
09/22/2013  12:25:00      -65.630       89.495      -16.322       60.250       63.017       39.302     3630.111     3971.154     1544.645        1.086        0.457      110.981       21.031        0.036      340.683       14.874      858.546
09/22/2013  12:26:00      -16.550       75.444       -5.366       34.289       56.727       28.900     1175.754     3217.955      835.202        0.561        0.261       77.238       26.304        0.116      340.847       15.150      858.541
09/22/2013  12:27:00      -41.433       91.199        3.085       49.438       70.198       42.061     2444.075     4927.793     1769.143        0.959        0.457      100.169       40.855        0.166      341.057       15.505      858.529
09/22/2013  12:28:00      -49.283      148.667       -1.490       34.242       55.486       42.332     1172.494     3078.648     1792.027        1.529        0.302      156.623       33.167        0.045      340.878       15.203      858.536
09/22/2013  12:29:00       11.829       62.527        7.795       48.589       56.139       35.287     2360.884     3151.566     1245.156        0.543        0.338       63.637       31.139        0.239      341.255       15.843      858.517
09/22/2013  12:30:00       43.100       77.170        5.068       52.632       57.227       34.049     2770.095     3274.926     1159.351        0.752        0.360       88.390       26.010        0.087      341.047       15.489      858.498
09/22/2013  12:31:00       72.974       67.676       14.232       55.746       45.150       43.397     3107.665     2038.529     1883.306        0.857        0.351       99.525       19.552        0.039      340.949       15.324      858.467
09/22/2013  12:32:00      133.691       95.645       -1.951       41.090       45.942       38.751     1688.406     2110.649     1501.603        1.616        0.265      164.381       26.738        0.026      340.771       15.020      858.438
09/22/2013  12:33:00      122.837       65.638        5.056       43.077       26.972       36.262     1855.654      727.515     1314.939        1.166        0.195      139.274       25.237        0.033      340.580       14.700      858.427
09/22/2013  12:34:00       45.530       95.107       -1.869       57.910       45.077       36.209     3353.533     2031.954     1311.090        0.891        0.335      105.444       25.670        0.059      340.651       14.819      858.415
09/22/2013  12:35:00      -64.142      105.144       -5.341       47.328       50.249       37.534     2239.938     2524.927     1408.813        1.068        0.309      123.164       32.102        0.068      341.094       15.570      858.426
09/22/2013  12:36:00     -162.457       44.619       -6.414       82.527       47.472       27.695     6810.646     2253.627      767.036        1.913        0.492      168.473       30.764        0.033      340.876       15.198      858.420
09/22/2013  12:37:00      -91.576      -35.115       -2.185       85.436       62.239       43.933     7299.371     3873.668     1930.109        1.136        0.655       98.078       20.811        0.045      341.201       15.748      858.415
09/22/2013  12:38:00      -67.992      -18.824       -2.689       56.521       41.008       28.626     3194.670     1681.645      819.465        0.534        0.285       70.550       30.960        0.193      340.801       15.074      858.410
09/22/2013  12:39:00      -12.819      -36.889       33.471       76.555       58.128       50.854     5860.666     3378.838     2586.156        0.723        0.591       39.053       54.353        1.937      341.198       15.745      858.392
09/22/2013  12:40:00       30.560       49.115       41.243       52.808       48.539       33.973     2788.726     2356.040     1154.137        0.567        0.315       57.846       28.178        0.237      341.632       16.480      858.396
09/22/2013  12:41:00       -9.090      189.150      -15.323       72.222       82.883       48.119     5216.029     6869.670     2315.423        2.525        0.720      189.368       42.998        0.052      340.872       15.190      858.398
09/22/2013  12:42:00       88.711       60.717        3.951       88.138       48.642       40.837     7768.248     2366.082     1667.681        1.168        0.590      107.500       24.827        0.053      341.058       15.506      858.407
09/22/2013  12:43:00      180.253      134.465       19.262       61.890       39.968       47.759     3830.349     1597.402     2280.939        2.932        0.385      224.882       21.538        0.009      340.520       14.592      858.415
09/22/2013  12:44:00      146.953       83.200        6.929       29.791       33.911       36.739      887.474     1149.938     1349.750        1.598        0.169      168.871        5.834        0.001      340.530       14.613      858.413
09/22/2013  12:45:00       82.669       42.964       16.614       47.260       52.644       27.993     2233.479     2771.393      783.594        0.737        0.289       93.167       14.528        0.024      340.676       14.863      858.421
09/22/2013  12:46:00       23.282       47.699        9.917       45.049       32.279       28.761     2029.378     1041.927      827.188        0.341        0.195       53.077       18.307        0.119      341.285       15.893      858.423
09/22/2013  12:47:00      -24.446      103.876       -7.138       22.952       41.475       24.092      526.812     1720.167      580.438        0.713        0.141      106.714       20.911        0.038      341.071       15.531      858.449
09/22/2013  12:48:00        1.452       38.208       13.824       28.345       36.643       29.592      803.425     1342.690      875.714        0.234        0.151       38.236       24.993        0.427      341.566       16.368      858.464
09/22/2013  12:49:00      -18.259      108.042        1.694       45.294       70.699       34.602     2051.511     4998.384     1197.305        1.013        0.412      109.574       36.560        0.111      341.272       15.868      858.453
09/22/2013  12:50:00       13.071       59.495       27.204       32.137       79.950       47.680     1032.789     6391.956     2273.396        0.707        0.485       60.914       33.367        0.300      341.735       16.654      858.460
09/22/2013  12:51:00      -45.535       23.262       13.425       46.945       41.068       30.627     2203.832     1686.583      938.038        0.381        0.241       51.133       28.947        0.320      341.710       16.612      858.450
09/22/2013  12:52:00        4.343       34.408       26.679       29.745       39.444       35.549      884.790     1555.820     1263.718        0.281        0.185       34.681       21.340        0.379      341.956       17.029      858.431
09/22/2013  12:53:00       56.086       49.513       33.169       54.918       40.220       30.555     3016.026     1617.664      933.637        0.613        0.278       74.814       14.310        0.037      341.353       16.006      858.431
09/22/2013  12:54:00      -28.913      -40.920        4.734       77.877       45.116       26.091     6064.773     2035.452      680.758        0.566        0.439       50.105       23.919        0.228      341.092       15.565      858.411
09/22/2013  12:55:00      -53.122      -91.288       -4.685       91.272       63.568       26.364     8330.530     4040.838      695.067        1.212        0.653      105.619       29.561        0.078      340.803       15.077      858.421
09/22/2013  12:56:00      -80.691      -61.840       -4.287       50.834       43.512       30.963     2584.064     1893.313      958.690        0.789        0.272      101.663       29.154        0.082      341.061       15.513      858.424
09/22/2013  12:57:00     -156.115      -59.451        9.189      103.528       57.611       39.288    10718.028     3319.000     1543.577        2.178        0.779      167.051       42.827        0.066      341.301       15.916      858.420
09/22/2013  12:58:00     -154.914      -84.297       -1.931       74.775       62.265       37.957     5591.317     3876.888     1440.748        2.101        0.545      176.364       38.528        0.048      341.033       15.463      858.424
09/22/2013  12:59:00     -183.838      -87.624      -25.463       54.156       65.160       40.082     2932.836     4245.805     1606.590        2.545        0.439      203.653       24.212        0.014      340.783       15.038      858.435
09/22/2013  13:00:00      -72.957       13.417       -7.597       37.151       43.454       26.162     1380.233     1888.252      684.438        0.476        0.198       74.180       20.628        0.077      341.133       15.635      858.442
09/22/2013  13:01:00      -38.758        3.403       13.188       39.685       31.959       21.749     1574.865     1021.371      473.007        0.238        0.153       38.907       14.960        0.148      341.476       16.216      858.428
09/22/2013  13:02:00      -63.861       -3.840        9.167       52.875       38.591       28.314     2795.749     1489.300      801.673        0.463        0.254       63.976       25.500        0.159      341.788       16.745      858.379
09/22/2013  13:03:00      -96.614      -12.267       -4.241       40.086       38.355       28.602     1606.904     1471.101      818.069        0.670        0.195       97.390       25.039        0.066      341.412       16.106      858.320
09/22/2013  13:04:00      -29.597       16.528       -9.085       46.679       31.542       18.164     2178.937      994.881      329.922        0.237        0.175       33.899       17.031        0.252      341.161       15.683      858.260
09/22/2013  13:05:00      -95.952      -38.567        5.564       80.826       74.859       40.806     6532.916     5603.838     1665.101        1.226        0.690      103.413       40.348        0.152      341.332       15.971      858.179
09/22/2013  13:06:00      -24.001      -82.064      -26.249       43.401       60.886       28.435     1883.676     3707.103      808.524        0.720        0.320       85.502       18.844        0.049      341.425       16.129      858.108
09/22/2013  13:07:00      -23.421     -125.564        1.940       78.781       66.285       45.821     6206.376     4393.687     2099.606        1.451        0.635      127.729       25.797        0.041      341.762       16.700      858.076
09/22/2013  13:08:00       75.804      -48.312       35.403       71.781       89.732       58.801     5152.525     8051.800     3457.529        1.299        0.833       89.891       57.891        0.415      341.676       16.553      858.050
09/22/2013  13:09:00      106.478      -83.284        7.638       76.202       88.710       46.318     5806.755     7869.513     2145.376        1.707        0.791      135.181       49.237        0.133      341.327       15.963      858.039
09/22/2013  13:10:00        6.219      -23.061       30.500       41.900       57.145       41.556     1755.569     3265.599     1726.941        0.412        0.337       23.885       36.821        2.377      341.877       16.896      858.032
09/22/2013  13:11:00        8.977     -106.914        0.832       53.285       62.712       36.202     2839.310     3932.812     1310.598        0.980        0.404      107.290       29.098        0.074      341.721       16.630      858.033
09/22/2013  13:12:00      -38.305      -67.637       16.886       95.879       53.421       39.982     9192.718     2853.760     1598.552        0.998        0.682       77.730       45.593        0.344      341.812       16.786      858.036
09/22/2013  13:13:00       22.625      -51.717       19.816       65.668       86.981       38.853     4312.341     7565.646     1509.531        0.848        0.669       56.449       47.236        0.700      341.456       16.182      858.050
09/22/2013  13:14:00       71.717      137.640      -30.439       40.253       30.682       33.263     1620.270      941.383     1106.422        1.434        0.183      155.203       22.241        0.021      341.322       15.954      858.006
09/22/2013  13:15:00       -4.274      123.226       -0.539       57.568       52.338       42.414     3314.044     2739.290     1798.947        1.153        0.393      123.300       44.393        0.130      341.320       15.951      857.967
09/22/2013  13:16:00      -67.665       19.894      -20.499       63.394       96.446       29.760     4018.830     9301.789      885.672        0.980        0.710       70.529       18.420        0.068      341.400       16.086      857.961
09/22/2013  13:17:00     -130.074       96.340        3.230      149.374       88.144       58.475    22312.703     7769.444     3419.292        2.985        1.675      161.866       73.433        0.206      341.570       16.372      857.926
09/22/2013  13:18:00     -213.081      -24.959      -23.105       95.616       70.723       42.188     9142.362     5001.799     1779.854        3.124        0.796      214.538       37.650        0.031      341.225       15.788      857.915
09/22/2013  13:19:00     -139.406       -9.009       -7.484       51.073       44.590       25.225     2608.403     1988.257      636.286        1.240        0.262      139.697       18.020        0.017      341.416       16.113      857.892
09/22/2013  13:20:00      -94.632       10.899      -13.516       30.725       27.616       16.103      944.011      762.621      259.298        0.561        0.098       95.258       18.601        0.038      341.265       15.858      857.857
09/22/2013  13:21:00      -45.138       31.377       12.420       49.578       42.360       29.174     2457.932     1794.404      851.138        0.414        0.255       54.972       16.899        0.095      342.280       17.579      857.825
09/22/2013  13:22:00      -43.808       40.793       15.017      105.214       63.909       52.075    11069.892     4084.305     2711.806        1.083        0.893       59.860       61.674        1.062      341.717       16.624      857.815
09/22/2013  13:23:00      -92.928      118.344      -14.642       98.177       68.911       50.456     9638.639     4748.722     2545.837        1.989        0.847      150.470       56.506        0.141      341.688       16.571      857.811
09/22/2013  13:24:00      -30.655       49.225        7.654       54.332       55.990       33.934     2951.979     3134.913     1151.526        0.533        0.362       57.990       26.865        0.215      342.218       17.475      857.795
09/22/2013  13:25:00      -12.174       22.389       17.397       45.628       60.209       39.857     2081.951     3625.109     1588.574        0.412        0.365       25.485       32.110        1.587      342.439       17.849      857.778
09/22/2013  13:26:00       36.303       23.765       23.332       40.823       29.682       27.239     1666.509      880.998      741.981        0.286        0.164       43.390        7.702        0.032      342.160       17.375      857.766
09/22/2013  13:27:00       78.255       58.740       22.702       63.768       53.291       51.185     4066.406     2839.925     2619.873        0.981        0.476       97.848       18.671        0.036      342.202       17.447      857.755
09/22/2013  13:28:00       52.292      101.374       12.243       76.622       87.860       50.694     5870.902     7719.453     2569.857        1.466        0.808      114.066       51.424        0.203      342.033       17.159      857.749
09/22/2013  13:29:00       53.282       85.344       24.598       87.455       61.032       39.653     7648.460     3724.894     1572.331        1.183        0.647      100.610       37.695        0.140      341.941       17.001      857.744
09/22/2013  13:30:00       35.768       41.293        0.721       47.622       33.719       24.816     2267.900     1136.946      615.836        0.350        0.201       54.630       21.833        0.160      342.225       17.487      857.742
09/22/2013  13:31:00       24.598       39.321       19.217       36.168       25.168       30.318     1308.136      633.422      919.180        0.269        0.143       46.381       23.764        0.263      342.178       17.406      857.733
09/22/2013  13:32:00        5.969       48.335       16.771       34.020       37.884       36.616     1157.366     1435.191     1340.758        0.329        0.197       48.703       24.846        0.260      342.228       17.491      857.755
09/22/2013  13:33:00        8.176      144.200      -12.433       35.943       47.179       33.051     1291.879     2225.855     1092.398        1.281        0.231      144.432       23.230        0.026      342.117       17.302      857.778
09/22/2013  13:34:00      -36.007       42.588       37.306       45.045       53.305       35.596     2029.014     2841.388     1267.049        0.532        0.307       55.770       33.190        0.354      342.579       18.089      857.808
09/22/2013  13:35:00      -15.960       39.240       29.993       37.337       25.388       22.463     1394.052      644.537      504.565        0.262        0.127       42.361       18.984        0.201      342.404       17.789      857.816
09/22/2013  13:36:00       -6.687       -4.803       10.756       41.579       65.666       29.596     1728.811     4312.029      875.917        0.355        0.346        8.233       25.634        9.693      342.320       17.647      857.801
09/22/2013  13:37:00      -68.797       89.274      -20.769       43.482       69.832       32.742     1890.666     4876.546     1072.010        1.049        0.392      112.707       28.850        0.066      341.587       16.403      857.793
09/22/2013  13:38:00       30.119       80.100       -2.185       73.041       80.949       50.851     5334.968     6552.780     2585.855        1.090        0.724       85.575       19.626        0.053      341.636       16.485      857.782
09/22/2013  13:39:00        2.289        9.856       11.363       46.168       79.642       40.213     2131.499     6342.829     1617.087        0.516        0.505       10.118       18.680        3.408      341.888       16.914      857.758
09/22/2013  13:40:00       53.759       15.591       42.710       34.265       23.181       26.369     1174.094      537.349      695.341        0.368        0.120       55.974        9.001        0.026      342.116       17.302      857.755
09/22/2013  13:41:00       19.645       87.901       -8.537       49.443       54.103       32.898     2444.603     2927.100     1082.274        0.732        0.323       90.069       24.050        0.071      341.887       16.911      857.755
09/22/2013  13:42:00       26.016       44.614        3.613       27.924       43.246       23.565      779.722     1870.255      555.302        0.294        0.160       51.645       17.349        0.113      341.989       17.086      857.736
09/22/2013  13:43:00       13.194      -30.976       -7.289       28.416       29.213       25.597      807.497      853.423      655.205        0.175        0.116       33.669       15.769        0.219      341.908       16.949      857.721
09/22/2013  13:44:00       -7.825       -0.493        8.749       11.114       24.129       28.719      123.516      582.198      824.778        0.083        0.077        7.840       17.064        4.737      342.556       18.050      857.703
09/22/2013  13:45:00       50.497       33.946       23.262       48.728       30.456       24.980     2374.372      927.563      623.995        0.408        0.196       60.847       21.845        0.129      342.277       17.572      857.683
09/22/2013  13:46:00      143.310       89.863       27.629       68.261       60.013       45.749     4659.504     3601.522     2092.936        1.986        0.518      169.154       38.047        0.051      342.025       17.144      857.660
09/22/2013  13:47:00      121.412       47.714       23.996       72.847       56.244       36.681     5306.710     3163.417     1345.531        1.370        0.491      130.451       29.608        0.052      341.940       17.001      857.646
09/22/2013  13:48:00       40.636       25.928       21.966       33.148       27.421       29.969     1098.808      751.918      898.133        0.278        0.137       48.203       21.008        0.190      342.225       17.486      857.626
09/22/2013  13:49:00       96.308       69.027       30.917       45.984       31.579       40.435     2114.511      997.224     1634.991        0.987        0.237      118.491       16.436        0.019      342.108       17.287      857.606
09/22/2013  13:50:00      123.043       76.690       22.836       56.988       51.740       52.986     3247.643     2677.019     2807.483        1.514        0.437      144.986       28.503        0.039      342.238       17.508      857.604
09/22/2013  13:51:00      102.330       65.046       18.131       60.847       69.415       47.532     3702.386     4818.460     2259.258        1.290        0.539      121.253       28.482        0.055      342.112       17.295      857.581
09/22/2013  13:52:00       89.123       15.804       42.453       81.813       87.009       51.491     6693.437     7570.514     2651.366        1.345        0.846       90.513       39.730        0.193      342.418       17.814      857.579
09/22/2013  13:53:00      -20.028       24.009        9.838       45.541       39.635       31.563     2073.982     1570.948      996.228        0.286        0.232       31.266       18.349        0.344      342.823       18.504      857.580
09/22/2013  13:54:00      -41.208      100.121       -0.931       65.890       89.607       44.854     4341.540     8029.410     2011.911        1.305        0.719      108.269       44.595        0.170      342.696       18.286      857.600
09/22/2013  13:55:00      -39.963      125.492       13.227       56.466       65.932       48.998     3188.456     4347.084     2400.785        1.373        0.497      131.701       39.354        0.089      342.543       18.026      857.607
09/22/2013  13:56:00       -9.698      162.088        4.179       44.342       89.873       45.603     1966.232     8077.067     2079.641        1.925        0.606      162.377       44.163        0.074      342.304       17.618      857.623
09/22/2013  13:57:00       52.755       74.088       14.704       49.649       41.872       38.241     2465.020     1753.295     1462.341        0.708        0.284       90.951       24.698        0.074      342.251       17.531      857.647
09/22/2013  13:58:00       63.702      128.724       -5.849       91.248       75.308       54.680     8326.177     5671.252     2989.941        1.882        0.849      143.624       48.911        0.116      341.985       17.078      857.651
09/22/2013  13:59:00       53.028       56.405        4.503       81.633       64.701       46.314     6663.940     4186.206     2144.977        0.950        0.650       77.418       38.602        0.249      342.157       17.372      857.654
09/22/2013  14:00:00       76.835       93.731       12.683       63.670       54.516       55.281     4053.878     2971.988     3055.963        1.246        0.504      121.198       45.501        0.141      342.351       17.699      857.665
09/22/2013  14:01:00       78.790      130.056       -3.554       70.228       53.660       44.906     4931.916     2879.358     2016.509        1.648        0.491      152.060       29.774        0.038      342.073       17.226      857.684
09/22/2013  14:02:00       31.960       23.278       -0.765       63.967       53.629       27.964     4091.721     2876.039      781.994        0.466        0.387       39.539       16.523        0.175      342.243       17.517      857.677
09/22/2013  14:03:00       48.220      -78.799      -23.177       59.742      111.778       33.505     3569.161    12494.309     1122.592        1.313        0.859       92.383       42.253        0.209      342.217       17.470      857.658
09/22/2013  14:04:00      190.206     -234.459      -65.135       93.160       93.902       50.270     8678.870     8817.625     2527.117        5.770        1.001      301.910       38.046        0.016      342.070       17.218      857.621
09/22/2013  14:05:00       94.067     -156.861      -45.828       70.196       80.458       51.757     4927.410     6473.554     2678.805        2.481        0.704      182.904       43.550        0.057      341.959       17.033      857.640
09/22/2013  14:06:00      -51.920      -65.720        8.133       98.313       39.913       39.481     9665.484     1593.043     1558.756        0.995        0.641       83.754       41.152        0.241      342.404       17.789      857.652
09/22/2013  14:07:00     -149.106      -84.600      -25.521       40.557       57.735       32.852     1644.889     3333.278     1079.253        1.805        0.303      171.435       23.978        0.020      342.277       17.573      857.641
09/22/2013  14:08:00      -99.113       -6.878       14.995       71.233       60.651       41.258     5074.190     3678.565     1702.242        1.027        0.523       99.352       39.927        0.162      342.688       18.274      857.653
09/22/2013  14:09:00      -86.486      -11.169        7.050       51.803       48.887       36.817     2683.588     2389.928     1355.511        0.704        0.321       87.204       34.329        0.155      342.777       18.424      857.679
09/22/2013  14:10:00      -44.240      -65.106       17.529       52.654       73.946       40.733     2772.488     5468.014     1659.215        0.820        0.495       78.714       41.447        0.277      342.691       18.278      857.709
09/22/2013  14:11:00     -127.882     -123.505      -10.600       77.930       61.975       53.858     6073.135     3840.946     2900.722        2.226        0.641      177.784       23.574        0.018      342.242       17.513      857.751
09/22/2013  14:12:00      -93.704        9.733       -3.180       56.751       32.926       27.324     3220.704     1084.117      746.612        0.697        0.253       94.208       22.313        0.056      342.641       18.192      857.770
09/22/2013  14:13:00     -136.450      -21.737      -19.268       46.537       51.047       26.203     2165.739     2605.768      686.587        1.246        0.273      138.170       15.759        0.013      342.123       17.312      857.758
09/22/2013  14:14:00     -115.772      -49.430      -15.222       63.250       59.720       30.576     4000.562     3566.476      934.869        1.229        0.425      125.882       33.152        0.069      342.373       17.737      857.744
09/22/2013  14:15:00      -27.813       59.460        3.899       47.761       41.045       36.595     2281.114     1684.693     1339.188        0.481        0.265       65.644       30.444        0.215      342.653       18.212      857.742
09/22/2013  14:16:00       34.580       26.328       16.555       36.024       43.824       32.515     1297.730     1920.525     1057.193        0.322        0.214       43.462       28.165        0.420      342.524       17.995      857.729
09/22/2013  14:17:00       13.976       11.544        4.042       48.015       35.220       26.436     2305.444     1240.438      698.879        0.229        0.212       18.127       16.105        0.789      342.479       17.918      857.695
09/22/2013  14:18:00      -20.977       31.334        6.993       43.443       30.708       32.431     1887.303      943.000     1051.756        0.268        0.194       37.707       23.656        0.394      342.796       18.457      857.684
09/22/2013  14:19:00      132.124       86.789       13.844       70.267       57.083       52.920     4937.481     3258.439     2800.526        1.809        0.550      158.079       38.092        0.058      342.813       18.484      857.652
09/22/2013  14:20:00      141.494      123.450        6.124       77.029       57.262       43.971     5933.538     3278.966     1933.444        2.322        0.557      187.777       31.451        0.028      342.342       17.682      857.642
09/22/2013  14:21:00      118.092      102.978       15.854       46.238       32.535       34.043     2137.966     1058.534     1158.903        1.458        0.218      156.685       12.061        0.006      342.202       17.446      857.606
09/22/2013  14:22:00       58.305      -19.848       16.332       61.281       71.428       44.559     3755.376     5101.927     1985.474        0.745        0.542       61.591       40.867        0.440      342.300       17.614      857.612
09/22/2013  14:23:00       14.972       -4.033       -0.427       53.351       35.897       33.714     2846.311     1288.569     1136.619        0.276        0.264       15.505       27.087        3.052      342.310       17.630      857.614
09/22/2013  14:24:00       39.246      -69.610        2.547       42.147       70.257       33.612     1776.384     4936.106     1129.740        0.712        0.392       79.911       38.984        0.238      342.378       17.745      857.601
09/22/2013  14:25:00       65.868      -67.599       37.966       62.342       66.873       40.549     3886.479     4471.942     1644.236        1.017        0.500       94.383       40.490        0.184      342.759       18.394      857.579
09/22/2013  14:26:00       25.219      -14.403       62.289       58.141       83.982       56.213     3380.420     7052.975     3159.883        0.916        0.680       29.042       46.225        2.533      342.988       18.784      857.560
09/22/2013  14:27:00      132.545       96.034       46.331       72.278       47.533       57.167     5224.172     2259.426     3268.079        1.984        0.538      163.679       25.341        0.024      342.302       17.614      857.559
09/22/2013  14:28:00       12.664      156.933       -3.827       80.174       86.185       43.490     6427.822     7427.834     1891.368        2.027        0.787      157.444       39.514        0.063      342.593       18.110      857.480
09/22/2013  14:29:00      109.652       77.778       61.101       94.746       82.479       63.548     8976.723     6802.769     4038.353        2.081        0.991      134.436       45.089        0.112      342.972       18.755      857.458
09/22/2013  14:30:00       72.784      -29.879       31.102      104.179       99.904       58.638    10853.354     9980.793     3438.370        1.571        1.214       78.678       64.614        0.674      342.971       18.754      857.466
09/22/2013  14:31:00       85.166        2.474       48.337       85.908       76.050       55.541     7380.265     5783.661     3084.783        1.292        0.812       85.202       62.420        0.537      342.853       18.553      857.479
09/22/2013  14:32:00       59.421       15.213       70.411       80.859      108.492       73.428     6538.155    11770.506     5391.607        1.621        1.185       61.338       82.537        1.811      342.459       17.883      857.480
09/22/2013  14:33:00       12.301     -147.816      -32.775       64.590       58.507       37.046     4171.870     3423.093     1372.430        1.602        0.448      148.327       19.517        0.017      342.612       18.142      857.477
09/22/2013  14:34:00       53.703     -101.874        2.818       74.203       75.359       47.241     5506.065     5678.957     2231.691        1.334        0.671      115.162       50.416        0.192      342.602       18.125      857.486
09/22/2013  14:35:00       47.419       27.747       92.390       68.337      109.205       74.757     4669.965    11925.795     5588.671        1.687        1.109       54.940       77.101        1.969      342.591       18.106      857.410
09/22/2013  14:36:00       53.241     -153.977       -8.638       73.617       59.304       54.550     5419.511     3516.918     2975.700        1.926        0.596      162.922       30.021        0.034      343.101       18.974      857.400
09/22/2013  14:37:00      -58.117       28.727        3.585       71.964       74.587       39.929     5178.757     5563.169     1594.359        0.827        0.617       64.830       31.722        0.239      343.248       19.225      857.425
09/22/2013  14:38:00       26.935       59.129       -7.937       46.991       46.991       46.319     2208.111     2208.181     2145.427        0.542        0.328       64.975       33.420        0.265      342.965       18.744      857.411
09/22/2013  14:39:00        0.583      -41.859        1.434       51.272       57.907       42.082     2628.781     3353.186     1770.857        0.475        0.388       41.863       25.171        0.362      342.688       18.272      857.393
09/22/2013  14:40:00       61.587      -51.047       30.682       44.160       55.744       50.721     1950.080     3107.430     2572.649        0.748        0.382       79.992       36.785        0.211      342.700       18.292      857.375
09/22/2013  14:41:00      -11.941      -75.741       11.267       97.776       49.373       43.177     9560.178     2437.673     1864.250        0.993        0.693       76.676       31.911        0.173      342.671       18.244      857.375
09/22/2013  14:42:00     -230.285     -105.504       -7.554      107.692       76.027       48.094    11597.562     5780.106     2313.074        4.195        0.985      253.303       47.491        0.035      342.693       18.277      857.340
09/22/2013  14:43:00      -46.602      -40.711       20.469       81.473       59.547       41.721     6637.890     3545.884     1740.683        0.808        0.596       61.880       40.250        0.423      343.174       19.100      857.336
09/22/2013  14:44:00      -34.827      -51.561       -8.983       48.591       42.866       28.429     2361.133     1837.479      808.183        0.448        0.250       62.221       18.847        0.092      343.148       19.056      857.310
09/22/2013  14:45:00      -50.336     -105.481       -1.142       63.186       90.631       47.609     3992.468     8213.928     2266.663        1.406        0.724      116.876       35.499        0.092      342.981       18.769      857.293
09/22/2013  14:46:00       37.130      -46.053       28.155       91.882      104.598       59.204     8442.228    10940.723     3505.172        1.359        1.144       59.157       65.194        1.215      342.821       18.499      857.271
09/22/2013  14:47:00        4.311       -0.850       48.391       53.732      100.618       56.279     2887.147    10123.899     3167.361        0.927        0.809        4.394       71.122      261.950      342.958       18.732      857.237
09/22/2013  14:48:00      -40.530      -22.305       31.665       85.832       67.665       35.726     7367.147     4578.584     1276.381        0.818        0.661       46.263       40.238        0.756      343.194       19.133      857.225
09/22/2013  14:49:00       -8.163       -8.545       10.533       60.205       57.492       41.687     3624.682     3305.332     1737.768        0.446        0.433       11.818       19.266        2.658      343.091       18.959      857.224
09/22/2013  14:50:00      -84.620      -11.572        4.312       47.222       46.924       37.492     2229.961     2201.863     1405.658        0.657        0.292       85.407       29.321        0.118      343.356       19.411      857.225
09/22/2013  14:51:00      -76.989      -96.160       11.153      119.979       96.279       41.863    14394.876     9269.684     1752.474        2.035        1.271      123.183       39.719        0.104      343.277       19.273      857.218
09/22/2013  14:52:00     -150.359      -78.595       -6.979      104.331       45.219       33.280    10884.904     2044.775     1107.575        2.143        0.702      169.661       36.083        0.045      343.011       18.820      857.215
09/22/2013  14:53:00     -187.027     -158.620       -3.875      149.579       91.328       50.600    22373.861     8340.770     2560.367        4.671        1.664      245.233       56.584        0.053      342.934       18.690      857.233
09/22/2013  14:54:00     -149.788      -79.524       -4.920       71.261       75.932       39.371     5078.096     5765.653     1550.106        2.059        0.620      169.589       39.208        0.053      342.734       18.349      857.237
09/22/2013  14:55:00     -151.048      -90.607       -1.046       89.051       91.600       39.486     7930.014     8390.627     1559.156        2.445        0.894      176.139       41.121        0.055      342.717       18.321      857.210
09/22/2013  14:56:00     -114.616        7.353        6.535       89.674       53.122       33.426     8041.352     2821.898     1117.277        1.260        0.599      114.852       40.908        0.127      342.765       18.404      857.192
09/22/2013  14:57:00       -6.423     -174.595       16.262       44.065       45.789       26.331     1941.737     2096.600      693.335        1.776        0.237      174.713       13.609        0.006      342.580       18.089      857.160
09/22/2013  14:58:00      -97.001     -161.232       -6.839       59.303       60.583       32.685     3516.798     3670.277     1068.292        2.185        0.413      188.162       29.987        0.025      342.835       18.520      857.148
09/22/2013  14:59:00     -133.832      -93.298       -6.091       85.746       58.868       39.660     7352.431     3465.442     1572.917        1.952        0.620      163.143       41.343        0.064      342.788       18.443      857.149
09/22/2013  15:00:00      -28.851      -76.057        4.399       42.448       69.689       27.521     1801.821     4856.546      757.430        0.702        0.371       81.345       18.721        0.053      342.621       18.159      857.134
09/22/2013  15:01:00       -7.307      -36.912       11.166       51.334       59.631       31.049     2635.225     3555.878      964.058        0.435        0.358       37.629       30.879        0.673      342.990       18.787      857.109
09/22/2013  15:02:00       87.242      -81.480       13.403       56.274       67.275       37.772     3166.725     4525.958     1426.696        1.177        0.456      119.374       31.131        0.068      342.826       18.507      857.114
09/22/2013  15:03:00      -52.368     -253.759       -9.084      131.066       97.069       47.748    17178.351     9422.349     2279.874        4.804        1.444      259.106       58.416        0.051      342.713       18.311      857.131
09/22/2013  15:04:00       67.406     -234.460        0.749       78.095       98.753       76.252     6098.761     9752.173     5814.380        4.059        1.083      243.957       44.286        0.033      342.715       18.316      857.103
09/22/2013  15:05:00     -160.441     -118.192        8.709      122.169      111.046       57.166    14925.281    12331.189     3267.950        3.515        1.526      199.275       48.460        0.059      343.031       18.855      857.076
09/22/2013  15:06:00     -216.179     -120.596       12.229      131.410      116.535       64.727    17268.718    13580.333     4189.632        4.823        1.752      247.541       64.801        0.069      342.834       18.518      857.056
09/22/2013  15:07:00     -137.901      -48.124       -0.625       78.346       42.662       32.363     6138.087     1820.071     1047.340        1.517        0.450      146.057       24.094        0.027      342.847       18.541      857.060
09/22/2013  15:08:00        9.639        4.805       10.236       23.839       32.778       24.997      568.276     1074.390      624.845        0.124        0.113       10.771       13.017        1.461      342.957       18.732      857.047
09/22/2013  15:09:00       22.488      -27.010        1.166       28.008       46.639       30.867      784.444     2175.164      952.780        0.257        0.196       35.146       18.572        0.279      342.693       18.281      857.036
09/22/2013  15:10:00       23.857       -3.507       16.503       43.300       44.615       21.518     1874.925     1990.532      463.020        0.259        0.216       24.114       19.402        0.647      342.808       18.477      857.012
09/22/2013  15:11:00       61.789       53.949       32.191       42.324       43.636       33.363     1791.283     1904.093     1113.071        0.629        0.240       82.026       19.199        0.055      342.952       18.722      856.993
09/22/2013  15:12:00       27.717       14.584       41.274       32.833       33.238       22.746     1077.988     1104.783      517.400        0.269        0.135       31.320       23.168        0.547      343.119       19.006      856.966
09/22/2013  15:13:00        3.887        8.423        4.468       51.989       47.443       27.051     2702.851     2250.805      731.760        0.289        0.284        9.276       27.916        9.057      343.167       19.087      856.937
09/22/2013  15:14:00        7.412       76.176        5.974       50.260       63.218       34.816     2526.073     3996.503     1212.175        0.681        0.387       76.536       31.143        0.166      343.388       19.466      856.920
09/22/2013  15:15:00       -7.377       27.747        0.268       34.385       65.031       31.896     1182.336     4229.026     1017.344        0.363        0.321       28.711       12.999        0.205      343.581       19.793      856.953
09/22/2013  15:16:00      -32.581       13.013       35.250      133.592      130.352       66.328    17846.871    16991.741     4399.430        2.085        1.962       35.084       73.490        4.388      343.404       19.490      856.959
09/22/2013  15:17:00      -47.364     -344.108       24.881      164.438      145.195       88.609    27039.886    21081.698     7851.560        8.861        2.799      347.352       85.598        0.061      343.283       19.283      856.923
09/22/2013  15:18:00     -379.613     -283.887       10.823      306.369      237.553      140.516    93861.743    56431.570    19744.627       19.739        8.502      474.023      170.949        0.130      343.332       19.368      856.831
09/22/2013  15:19:00     -201.985      -28.884      -12.918      159.956      150.818       63.775    25585.765    22746.105     4067.311        4.709        2.620      204.040       59.782        0.086      343.337       19.375      856.999
09/22/2013  15:20:00     -310.102       33.572      -28.243      157.220      112.504       49.718    24718.113    12657.189     2471.864        6.896        1.992      311.914       53.513        0.029      343.469       19.599      857.014
09/22/2013  15:21:00     -233.955       55.378        1.480      192.955      134.346       59.252    37231.732    18048.819     3510.774        5.829        2.940      240.420       67.439        0.079      343.403       19.487      856.998
09/22/2013  15:22:00     -113.667        0.833       -3.757       98.978       69.677       40.812     9796.594     4854.874     1665.656        1.462        0.816      113.670       53.097        0.218      343.545       19.732      857.015
09/22/2013  15:23:00     -111.847       89.098       -8.565       87.970       50.927       51.024     7738.657     2593.553     2603.452        1.673        0.647      142.997       52.365        0.134      343.618       19.857      857.013
09/22/2013  15:24:00       45.024       21.676       20.732       67.114       82.241       45.960     4504.248     6763.635     2112.308        0.815        0.669       49.970       26.349        0.278      343.730       20.047      857.019
09/22/2013  15:25:00     -148.308      -42.033       17.661      146.847       80.819       60.199    21564.166     6531.746     3623.904        2.789        1.586      154.149       68.629        0.198      343.656       19.920      857.039
09/22/2013  15:26:00     -305.477      -26.568      -16.070      112.318      112.591       62.708    12615.244    12676.708     3932.331        6.175        1.461      306.630       62.633        0.042      343.393       19.469      857.069
09/22/2013  15:27:00     -186.220      -81.880        0.152      128.476       80.118       48.224    16506.139     6418.905     2325.533        3.331        1.263      203.426       59.820        0.086      343.472       19.604      857.067
09/22/2013  15:28:00     -116.299      159.892      -17.394      105.939      113.303       53.148    11222.999    12837.573     2824.719        3.313        1.344      197.714       64.912        0.108      343.549       19.735      857.098
09/22/2013  15:29:00     -121.728      -18.867      -15.256       99.727      117.291       39.497     9945.417    13757.288     1559.977        2.033        1.263      123.182       33.531        0.074      343.752       20.083      857.132
09/22/2013  15:30:00     -135.630        4.386      -18.352       80.655       80.106       45.570     6505.256     6417.049     2076.651        1.687        0.750      135.701       42.291        0.097      343.633       19.881      857.174
09/22/2013  15:31:00     -118.176      -12.521        2.404      109.098       72.935       55.265    11902.433     5319.510     3054.237        1.720        1.014      118.838       65.865        0.307      343.848       20.248      857.214
09/22/2013  15:32:00      -63.883      -14.538       22.145      111.407       80.723       43.289    12411.463     6516.247     1873.944        1.279        1.040       65.517       57.200        0.762      344.013       20.530      857.221
09/22/2013  15:33:00      -99.350        2.726      -12.431      112.055       76.340       59.886    12556.354     5827.861     3586.305        1.600        1.099       99.387       65.246        0.431      343.556       19.749      857.247
09/22/2013  15:34:00     -151.349       31.174        1.891      102.859       77.250       48.783    10580.032     5967.531     2379.815        2.140        0.946      154.526       59.944        0.150      343.419       19.515      857.226
09/22/2013  15:35:00      -14.829       -0.046       -0.212      116.018       68.257       42.703    13460.120     4659.065     1823.528        1.008        0.997       14.829       31.773        4.591      343.220       19.178      857.247
09/22/2013  15:36:00      -40.600       45.880       -8.892       26.543       30.777       28.781      704.545      947.197      828.369        0.316        0.124       61.265       16.762        0.075      343.268       19.260      857.242
09/22/2013  15:37:00     -122.383       96.807      -16.998       89.687      106.494       45.937     8043.807    11340.921     2110.182        2.306        1.075      156.043       62.137        0.159      343.545       19.732      857.239
09/22/2013  15:38:00      -71.320      140.831      -12.987       39.532       45.330       38.248     1562.813     2054.769     1462.874        1.508        0.254      157.860       28.864        0.033      343.361       19.417      857.223
09/22/2013  15:39:00      -13.948      162.439      -13.270       37.402       43.826       29.646     1398.894     1920.716      878.871        1.548        0.210      163.037       24.909        0.023      343.158       19.072      857.191
09/22/2013  15:40:00       70.403       52.092        9.127       47.569       39.823       30.378     2262.784     1585.850      922.852        0.626        0.239       87.579       11.062        0.016      343.027       18.848      857.150
09/22/2013  15:41:00       15.975       59.711        4.305       23.778       58.692       26.696      565.415     3444.788      712.702        0.428        0.236       61.811       22.758        0.136      343.444       19.560      857.122
09/22/2013  15:42:00      -34.898       41.625       -1.842       51.029       64.010       31.569     2603.993     4097.217      996.622        0.532        0.385       54.318       32.636        0.361      343.770       20.116      857.144
09/22/2013  15:43:00      -56.662      -56.395       31.024       94.638      114.296       43.824     8956.257    13063.566     1920.571        1.564        1.197       79.944       53.161        0.442      343.660       19.925      857.081
09/22/2013  15:44:00     -236.695     -202.739       -0.857      167.388      135.102       81.454    28018.813    18252.587     6634.783        7.501        2.645      311.654       78.696        0.064      343.619       19.855      857.015
09/22/2013  15:45:00     -203.389       -3.432       -0.341      124.946       77.976       68.405    15611.456     6080.220     4679.284        3.387        1.319      203.418       71.327        0.123      343.778       20.126      857.065
09/22/2013  15:46:00      -58.674      -68.939        2.676       58.169       49.939       37.717     3383.666     2493.870     1422.538        0.775        0.365       90.527       23.286        0.066      343.844       20.241      857.078
09/22/2013  15:47:00     -138.263     -117.879       -2.317      125.564      103.962       55.095    15766.388    10808.136     3035.438        3.131        1.480      181.693       44.420        0.060      343.767       20.110      857.075
09/22/2013  15:48:00     -114.940     -193.277       -3.394      128.369       91.994       50.696    16478.544     8462.931     2570.050        3.904        1.376      224.871       51.141        0.052      343.377       19.442      857.096
09/22/2013  15:49:00     -126.662      -25.410       -8.854       65.682       36.813       33.666     4314.178     1355.194     1133.433        1.178        0.340      129.185       37.095        0.082      343.261       19.247      857.095
09/22/2013  15:50:00     -178.565       -2.130      -15.109       43.906       50.702       32.508     1927.766     2570.693     1056.760        1.884        0.278      178.577       23.221        0.017      343.320       19.348      857.075
09/22/2013  15:51:00     -167.589       28.494      -13.818       51.784       80.228       30.232     2681.554     6436.453      913.983        1.956        0.502      169.994       24.367        0.021      343.525       19.697      857.040
09/22/2013  15:52:00     -303.135      -29.559      -37.063      166.390       91.667       50.860    27685.723     8402.805     2586.754        6.640        1.934      304.572       73.636        0.058      343.563       19.759      857.044
09/22/2013  15:53:00     -293.770      -84.720      -15.637      106.432      100.371       50.228    11327.843    10074.334     2522.895        5.882        1.196      305.742       54.876        0.032      343.640       19.891      857.027
09/22/2013  15:54:00     -237.871      -72.814      -26.163       66.539       68.485       37.914     4427.430     4690.204     1437.440        3.656        0.528      248.766       24.841        0.010      343.589       19.804      857.002
09/22/2013  15:55:00     -342.077     -116.985        6.339      228.530      168.143       68.265    52225.800    28271.904     4660.044       10.793        4.258      361.528       83.931        0.054      343.914       20.360      856.997
09/22/2013  15:56:00     -306.058     -171.593        7.689      204.081      156.033       96.720    41648.963    24346.212     9354.744        9.925        3.767      350.879      101.212        0.083      343.699       19.990      857.051
09/22/2013  15:57:00     -336.539      -94.716      -11.546      185.384      103.054       60.599    34367.185    10620.182     3672.202        8.550        2.433      349.613       78.627        0.051      343.629       19.873      857.030
09/22/2013  15:58:00     -359.259     -101.239      -17.490      141.551      118.567       57.843    20036.545    14058.139     3345.783        8.852        1.872      373.251       62.514        0.028      343.565       19.763      857.040
09/22/2013  15:59:00     -385.784      -29.005      -22.478      153.510      152.468       70.788    23565.195    23246.535     5010.872       10.099        2.591      386.873       59.685        0.024      343.559       19.752      857.001
09/22/2013  16:00:00     -102.292      -71.823       30.217      145.735       88.733       63.995    21238.830     7873.554     4095.323        2.487        1.660      124.989       76.191        0.372      343.926       20.382      857.004
09/22/2013  16:01:00     -179.206     -152.176        7.347      185.089      122.711       78.332    34257.808    15058.034     6135.925        5.538        2.773      235.101       99.241        0.178      343.761       20.098      857.012
09/22/2013  16:02:00     -332.894     -298.269      -19.065      190.779      167.966       79.199    36396.546    28212.556     6272.425       13.550        3.544      446.971       84.115        0.035      343.680       19.959      856.962
09/22/2013  16:03:00     -306.236      -68.584      -18.587       93.930       91.923       57.159     8822.900     8449.796     3267.144        5.968        1.027      313.822       57.663        0.034      343.743       20.066      856.954
09/22/2013  16:04:00      -72.704     -128.427       19.637      147.417      100.957       56.174    21731.787    10192.261     3155.490        2.862        1.754      147.579       59.011        0.160      344.111       20.696      856.947
09/22/2013  16:05:00     -155.705     -120.767       17.461      142.635       97.602       57.842    20344.701     9526.244     3345.703        3.617        1.661      197.050       71.923        0.133      344.207       20.859      856.975
09/22/2013  16:06:00     -291.780     -142.593      -21.527      132.219      118.222       56.658    17481.969    13976.524     3210.104        7.029        1.733      324.758       37.501        0.013      343.666       19.936      856.958
09/22/2013  16:07:00     -312.369      -91.680        2.914      167.827      140.867       82.213    28166.046    19843.545     6759.052        8.037        2.738      325.545       93.653        0.083      343.637       19.886      856.921
09/22/2013  16:08:00     -279.584     -130.127      -10.286      141.262      137.984       68.931    19954.967    19039.713     4751.522        6.947        2.187      308.384       75.681        0.060      343.813       20.185      856.962
09/22/2013  16:09:00     -260.461     -117.277       -1.165      159.310      168.901       60.700    25379.707    28527.428     3684.494        6.958        2.880      285.646       67.188        0.055      343.972       20.458      856.983
09/22/2013  16:10:00     -326.109     -251.395      -11.111      155.898      143.424       81.878    24304.249    20570.416     6704.054       11.061        2.579      411.760       86.974        0.045      343.484       19.624      857.005
09/22/2013  16:11:00     -218.263     -112.165       -1.595      176.120      140.075       77.567    31018.171    19620.887     6016.689        5.843        2.833      245.397       80.082        0.106      343.525       19.697      856.971
09/22/2013  16:12:00     -189.019      -65.356        9.444      144.107      116.075       67.691    20766.919    13473.485     4582.023        3.945        1.941      199.999       69.840        0.122      343.853       20.255      856.999
09/22/2013  16:13:00     -102.289      -46.181       -2.456       82.990       44.059       41.095     6887.404     1941.221     1688.801        1.156        0.526      112.231       46.488        0.172      343.988       20.487      857.028
09/22/2013  16:14:00     -194.439     -112.486       23.605      209.707      178.226       68.201    43976.921    31764.517     4651.422        6.569        4.020      224.633       94.890        0.178      343.979       20.469      857.010
09/22/2013  16:15:00     -229.234     -145.343      -10.104      183.074      104.125       71.673    33516.268    10841.948     5137.057        6.163        2.475      271.428       82.969        0.093      343.709       20.009      857.002
09/22/2013  16:16:00     -225.794     -110.788      -10.342      201.299      263.327       89.828    40521.106    69341.186     8069.082        9.062        5.897      251.509       90.034        0.128      343.674       19.949      856.975
09/22/2013  16:17:00     -324.117     -157.019       -1.608      226.484      184.521       97.163    51294.794    34047.943     9440.626       11.223        4.739      360.148      102.843        0.082      343.698       19.990      857.009
09/22/2013  16:18:00     -482.422     -170.473      -33.077      172.492      135.852       73.066    29753.419    18455.828     5338.686       15.821        2.677      511.656       69.443        0.018      343.395       19.473      857.005
09/22/2013  16:19:00     -297.520     -245.069      -22.265      155.729      112.394       75.785    24251.486    12632.398     5743.377        9.584        2.131      385.456       89.604        0.054      343.466       19.595      857.014
09/22/2013  16:20:00     -227.589     -152.691       11.416      169.502      114.219       68.486    28730.787    13045.954     4690.281        6.085        2.323      274.064       79.990        0.085      343.702       19.996      857.027
09/22/2013  16:21:00     -468.857     -309.989      -23.134      179.252      146.902       98.297    32131.206    21580.196     9662.236       18.990        3.169      562.068       88.893        0.025      343.545       19.729      857.045
09/22/2013  16:22:00     -375.111     -155.817       -8.552      214.039      180.904       84.675    45812.621    32726.349     7169.789       12.537        4.285      406.186       95.466        0.055      343.568       19.768      857.076
09/22/2013  16:23:00     -396.625      -80.275      -10.936      163.748      120.842       72.051    26813.556    14602.705     5191.365       10.523        2.330      404.667       75.120        0.034      343.581       19.789      857.096
09/22/2013  16:24:00     -368.763      -92.494      -16.229      202.298      111.573       66.630    40924.310    12448.441     4439.590       10.130        2.891      380.186       87.799        0.053      343.707       20.006      857.132
09/22/2013  16:25:00     -344.093      -52.669      -13.503      176.064      144.980       88.693    30998.708    21019.207     7866.483        9.061        2.994      348.101       86.248        0.061      343.746       20.073      857.149
09/22/2013  16:26:00     -413.505      -98.967      -11.596      224.070      142.454       84.551    50207.417    20293.230     7148.800       12.927        3.882      425.183      110.084        0.067      343.598       19.818      857.128
09/22/2013  16:27:00     -423.645     -106.120       -2.198      201.821      139.103       78.502    40731.640    19349.621     6162.607       12.848        3.312      436.734       80.708        0.034      343.493       19.641      857.140
09/22/2013  16:28:00     -321.050      -35.605      -17.399      160.783      113.443       63.147    25851.278    12869.367     3987.579        7.367        2.135      323.018       77.459        0.058      343.768       20.111      857.165
09/22/2013  16:29:00     -228.440      -42.153       -7.134      149.986      108.285       56.134    22495.759    11725.549     3151.065        4.569        1.869      232.296       62.116        0.072      343.918       20.366      857.194
09/22/2013  16:30:00     -482.273     -133.282      -19.892      197.879      137.371       85.142    39155.929    18870.892     7249.094       15.800        3.264      500.352       96.229        0.037      343.618       19.853      857.216
09/22/2013  16:31:00     -458.637       25.398      -35.199      166.051      155.175       82.036    27572.966    24079.334     6729.914       13.530        2.919      459.340       84.011        0.033      343.742       20.064      857.230
09/22/2013  16:32:00     -326.480      -66.275      -12.540      166.579      175.749       88.748    27748.651    30887.702     7876.140        8.881        3.326      333.139       83.437        0.063      343.824       20.205      857.256
09/22/2013  16:33:00     -384.613     -134.654      -15.747      177.552      138.481       77.528    31524.641    19176.879     6010.637       11.150        2.836      407.503       88.842        0.048      343.625       19.864      857.279
09/22/2013  16:34:00     -400.292     -216.085      -15.394      161.377      132.409       78.981    26042.440    17532.198     6237.950       12.848        2.491      454.892       69.804        0.024      343.414       19.505      857.281
09/22/2013  16:35:00     -344.116     -175.865      -26.736      131.790      101.971       56.769    17368.474    10398.104     3222.771        9.052        1.549      386.451       53.616        0.019      343.662       19.927      857.299
09/22/2013  16:36:00     -245.092       26.115       -7.978      198.475       77.604       66.795    39392.261     6022.376     4461.532        5.534        2.494      246.479       83.554        0.115      343.826       20.210      857.316
09/22/2013  16:37:00     -321.530      -74.441      -19.505      102.057       71.792       47.883    10415.719     5154.125     2292.812        6.358        0.893      330.035       50.382        0.023      343.798       20.160      857.321
09/22/2013  16:38:00     -427.395      -47.386      -26.699      157.818      124.421       70.041    24906.415    15480.642     4905.676       11.545        2.265      430.014       78.686        0.033      343.554       19.744      857.297
09/22/2013  16:39:00     -284.850      -46.888       -2.472      125.854      125.801       64.188    15839.163    15825.958     4120.089        5.956        1.789      288.683       66.065        0.052      343.815       20.189      857.294
09/22/2013  16:40:00     -237.667      -92.497        2.763      159.045      123.681       65.207    25295.306    15297.077     4251.919        5.494        2.242      255.032       74.782        0.086      343.623       19.862      857.309
09/22/2013  16:41:00     -298.306     -189.202       -5.516      151.041      143.318       63.681    22813.282    20540.135     4055.324        8.610        2.370      353.248       50.477        0.020      343.522       19.689      857.321
09/22/2013  16:42:00     -317.948     -174.319      -14.863      182.731      122.740       92.258    33390.564    15065.046     8511.482        9.432        2.848      362.599       92.899        0.066      343.556       19.748      857.304
09/22/2013  16:43:00     -271.579     -136.478       -2.043      208.803      184.321       92.501    43598.693    33974.320     8556.521        8.924        4.306      303.943       98.503        0.105      343.593       19.811      857.299
09/22/2013  16:44:00     -246.349     -126.495        7.973      172.699      142.589       70.222    29824.967    20331.521     4931.067        6.591        2.754      276.927       86.016        0.096      343.648       19.905      857.296
09/22/2013  16:45:00     -255.715      -15.748       -8.138      203.257      118.612       68.732    41313.213    14068.851     4724.144        6.289        3.005      256.199       94.112        0.135      343.721       20.029      857.343
09/22/2013  16:46:00     -482.135      -67.596      -31.575      210.130      159.177       85.866    44154.518    25337.207     7372.918       15.743        3.843      486.851       95.854        0.039      343.554       19.742      857.331
09/22/2013  16:47:00     -472.961     -135.931       -3.236      163.548      144.264       68.430    26747.823    20812.169     4682.677       14.720        2.612      492.107       68.543        0.019      343.572       19.774      857.358
09/22/2013  16:48:00     -210.365     -163.197        4.192      201.373      128.339       90.030    40551.192    16471.020     8105.344        6.800        3.256      266.246      112.540        0.179      343.572       19.774      857.362
09/22/2013  16:49:00     -406.291     -221.637      -13.505      172.967      143.850       70.584    29917.511    20692.893     4982.171       13.497        2.780      462.813       64.297        0.019      343.395       19.472      857.337
09/22/2013  16:50:00     -356.984     -187.929       10.584      187.133      162.312       99.141    35018.909    26345.318     9828.873       11.702        3.560      403.429      107.953        0.072      343.474       19.608      857.312
09/22/2013  16:51:00     -373.274     -289.477      -14.490      286.653      195.076      116.559    82169.795    38054.557    13586.055       17.855        6.691      472.367      142.042        0.090      343.398       19.480      857.344
09/22/2013  16:52:00     -358.750     -269.566       -3.851      264.193      180.635      104.934    69797.754    32628.860    11011.222       15.739        5.672      448.739      127.779        0.081      343.320       19.346      857.361
09/22/2013  16:53:00     -436.490     -310.106      -20.980      198.778      145.894       84.678    39512.659    21285.108     7170.393       17.754        3.398      535.434       92.928        0.030      343.351       19.397      857.375
09/22/2013  16:54:00     -366.886     -180.270       -9.191      146.654      153.488       78.279    21507.264    23558.715     6127.654       10.918        2.560      408.782       73.456        0.032      343.487       19.630      857.411
09/22/2013  16:55:00     -333.895     -262.035       -8.165      167.124      158.287       76.616    27930.296    25054.707     5870.060       11.952        2.943      424.439       69.126        0.027      343.445       19.558      857.403
09/22/2013  16:56:00     -388.622      -63.501       -9.004      212.062      123.083       97.956    44970.264    15149.402     9595.282       11.241        3.486      393.776      104.160        0.070      343.466       19.593      857.412
09/22/2013  16:57:00     -268.664      -76.690       10.791      154.601      121.215       80.195    23901.460    14693.174     6431.166        6.159        2.251      279.395       84.672        0.092      343.518       19.683      857.425
09/22/2013  16:58:00     -283.673     -155.690        0.556      154.604      114.873       68.363    23902.498    13195.748     4673.550        7.323        2.089      323.588       80.196        0.061      343.579       19.786      857.464
09/22/2013  16:59:00     -378.626     -136.485       -0.561      177.937      121.442       69.241    31661.419    14748.186     4794.360       10.659        2.560      402.475       84.514        0.044      343.423       19.521      857.483
09/22/2013  17:00:00     -260.560      -76.212        6.741      158.203      128.554       70.774    25028.178    16526.179     5008.958        6.015        2.328      271.477       72.284        0.071      343.469       19.601      857.504
09/22/2013  17:01:00     -380.157     -241.001       -5.065      213.427      172.238       82.904    45550.965    29666.048     6873.082       14.234        4.105      450.112       75.497        0.028      343.363       19.420      857.503
09/22/2013  17:02:00     -455.869     -174.228      -13.388      245.346      208.743       90.312    60194.634    43573.566     8156.288       17.512        5.596      488.029      100.522        0.042      343.278       19.273      857.520
09/22/2013  17:03:00     -293.186     -158.928       -5.083      148.630      141.655       69.691    22090.963    20066.193     4856.784        7.912        2.351      333.491       64.179        0.037      343.388       19.461      857.548
09/22/2013  17:04:00     -269.033     -138.770       -2.796      189.096      156.173       74.848    35757.413    24389.913     5602.176        7.868        3.287      302.714       93.431        0.095      343.460       19.583      857.578
09/22/2013  17:05:00     -385.500      -69.055      -28.193      138.187      110.683       66.387    19095.715    12250.805     4407.225        9.496        1.788      391.636       57.180        0.021      343.514       19.676      857.622
09/22/2013  17:06:00     -314.833     -142.987       -5.189      205.084      147.476       77.911    42059.584    21749.213     6070.124        9.472        3.494      345.782       65.510        0.036      343.513       19.674      857.642
09/22/2013  17:07:00     -390.314     -184.265      -12.884      205.764      173.969       98.570    42338.963    30265.238     9716.089       13.438        4.116      431.623       96.573        0.050      343.337       19.374      857.664
09/22/2013  17:08:00     -300.147     -134.417       -8.495      135.302      117.866       71.921    18306.595    13892.335     5172.662        7.279        1.869      328.870       63.711        0.038      343.446       19.560      857.691
09/22/2013  17:09:00     -196.985      -52.131        2.972      158.519      104.338       82.209    25128.150    10886.456     6758.300        4.214        2.139      203.767       85.419        0.176      343.560       19.757      857.712
09/22/2013  17:10:00     -226.142      -63.535      -25.115      158.070      104.533       63.307    24986.019    10927.107     4007.830        4.786        1.996      234.898       72.942        0.096      343.610       19.840      857.737
09/22/2013  17:11:00     -329.498      -77.231      -10.727      223.010      142.219       82.683    49733.295    20226.235     6836.455        9.571        3.840      338.428       85.129        0.063      343.401       19.482      857.693
09/22/2013  17:12:00     -383.974      -23.877      -14.138      167.151      140.886       76.738    27939.530    19848.957     5888.715       10.093        2.684      384.716       69.871        0.033      343.368       19.428      857.688
09/22/2013  17:13:00     -323.885      -92.938       -7.997      233.642      202.469       70.210    54588.466    40993.810     4929.459       10.704        5.026      336.956       90.081        0.071      343.425       19.523      857.683
09/22/2013  17:14:00     -242.396     -122.488       10.277      240.872      162.677      106.654    58019.261    26463.695    11375.146        8.484        4.793      271.586      127.773        0.221      343.423       19.522      857.668
09/22/2013  17:15:00     -300.385     -105.180        7.821      210.089      154.011       92.142    44137.254    23719.370     8490.139        8.884        3.817      318.267      106.634        0.112      343.334       19.370      857.680
09/22/2013  17:16:00     -484.301     -145.885       -5.848      215.996      161.356       90.863    46654.325    26035.848     8256.113       16.839        4.047      505.796      107.371        0.045      343.264       19.249      857.693
09/22/2013  17:17:00     -433.013      -91.975      -39.979      179.946      171.439       62.765    32380.410    29391.310     3939.438       13.162        3.286      442.674       64.619        0.021      343.183       19.110      857.718
09/22/2013  17:18:00     -424.981      -39.154      -18.520      166.763      114.645       73.268    27809.767    13143.535     5368.268       11.439        2.316      426.781       74.471        0.030      343.230       19.192      857.777
09/22/2013  17:19:00     -273.369      -37.647       -4.352      171.539      123.804       68.755    29425.638    15327.553     4727.193        6.281        2.474      275.949       63.350        0.053      343.347       19.391      857.793
09/22/2013  17:20:00     -255.679     -105.282      -11.167      173.150      110.945       66.777    29980.915    12308.795     4459.194        6.166        2.337      276.507       72.503        0.069      343.199       19.139      857.792
09/22/2013  17:21:00     -284.495       36.665      -12.598      194.386      120.283       70.654    37785.922    14468.001     4991.990        6.983        2.862      286.848       71.899        0.063      343.219       19.172      857.832
09/22/2013  17:22:00     -392.912       26.247      -38.179      123.910      151.309       61.900    15353.641    22894.272     3831.632        9.929        2.104      393.787       47.122        0.014      343.161       19.075      857.853
09/22/2013  17:23:00     -487.005       65.919      -46.489      182.180      119.054       73.928    33189.413    14173.801     5465.357       14.824        2.641      491.446       77.367        0.025      343.133       19.026      857.869
09/22/2013  17:24:00     -214.259      -56.723       -3.016       97.851      120.294       54.804     9574.846    14470.683     3003.479        3.809        1.352      221.640       52.875        0.057      343.194       19.131      857.877
09/22/2013  17:25:00     -300.734       76.446      -13.500      111.969       88.232       50.165    12537.046     7784.969     2516.561        5.965        1.142      310.299       46.459        0.022      343.218       19.172      857.899
09/22/2013  17:26:00     -303.182      -77.809      -10.866      172.790      114.420       64.881    29856.425    13091.837     4209.505        7.262        2.358      313.008       69.841        0.050      343.219       19.172      857.917
09/22/2013  17:27:00     -394.968       -9.041      -20.481      230.197      163.090       78.899    52990.445    26598.305     6224.998       12.114        4.291      395.072       90.724        0.053      343.116       18.998      857.868
09/22/2013  17:28:00     -269.452       -4.709      -13.442      111.002      129.048       65.654    12321.535    16653.436     4310.478        5.304        1.664      269.493       49.925        0.034      343.205       19.149      857.931
09/22/2013  17:29:00     -217.655       -0.509       -8.464      110.673      110.215       48.735    12248.533    12147.389     2375.073        3.710        1.339      217.655       46.366        0.045      343.151       19.057      857.954
09/22/2013  17:30:00     -281.332     -166.176       -4.991      196.864      166.935       75.650    38755.587    27867.241     5722.915        8.955        3.617      326.745       99.675        0.093      343.120       19.006      857.949
09/22/2013  17:31:00     -504.676      -23.620      -31.810      226.668      147.665       85.592    51378.298    21804.947     7326.011       16.837        4.025      505.229       94.848        0.035      343.112       18.991      857.970
09/22/2013  17:32:00     -389.645      -85.000      -37.554      176.110      172.290       84.782    31014.745    29683.803     7188.002       11.416        3.394      398.809       72.463        0.033      342.995       18.792      857.987
09/22/2013  17:33:00     -242.324      143.139      -18.532      175.389      166.271       89.631    30761.275    27645.958     8033.776        7.298        3.322      281.442       73.724        0.069      343.016       18.826      858.029
09/22/2013  17:34:00     -226.247      140.963      -29.807      148.765      158.521       82.459    22131.012    25129.030     6799.434        6.299        2.703      266.568       78.974        0.088      343.097       18.966      858.007
09/22/2013  17:35:00     -143.133        9.782      -22.114      118.614      114.724       59.078    14069.188    13161.620     3490.261        2.589        1.536      143.467       65.074        0.206      343.184       19.115      857.973
09/22/2013  17:36:00     -260.132      -64.043        5.343      225.331       97.870       72.917    50773.939     9578.529     5316.931        6.872        3.283      267.899       93.390        0.122      343.163       19.079      857.970
09/22/2013  17:37:00     -367.436     -117.683      -10.593      188.608      145.334       78.714    35572.866    21121.976     6195.920       10.592        3.145      385.821       73.698        0.036      343.072       18.922      857.958
09/22/2013  17:38:00     -322.483      -56.079      -16.721      191.467      129.602       79.830    36659.602    16796.614     6372.825        8.361        2.991      327.323       90.505        0.076      343.113       18.992      857.981
09/22/2013  17:39:00     -389.010     -126.395      -27.207      163.883      121.221       64.505    26857.525    14694.457     4160.901       10.687        2.286      409.029       71.336        0.030      343.096       18.964      857.960
09/22/2013  17:40:00     -354.279        7.079       -9.778      164.838      108.752       69.415    27171.531    11827.062     4818.423        8.473        2.191      354.350       85.250        0.058      343.087       18.948      857.962
09/22/2013  17:41:00     -299.258       44.831      -18.954      192.948       98.951       55.857    37229.058     9791.250     3120.031        7.102        2.507      302.598       73.764        0.059      343.067       18.914      857.970
09/22/2013  17:42:00     -236.411        1.702       -7.564      141.375       98.977       54.273    19986.900     9796.457     2945.511        4.433        1.636      236.417       55.012        0.054      342.973       18.755      857.953
09/22/2013  17:43:00     -239.014      -44.318      -10.284      124.234       99.810       57.034    15434.201     9962.000     3252.824        4.392        1.432      243.088       65.531        0.073      342.944       18.706      857.952
09/22/2013  17:44:00     -348.194       54.329      -23.181      114.883       81.423       44.988    13198.142     6629.719     2023.965        7.329        1.093      352.407       42.217        0.014      342.904       18.637      857.925
09/22/2013  17:45:00     -200.957      -55.490       -3.281      121.915      132.370       66.825    14863.382    17521.825     4465.532        4.015        1.843      208.477       64.017        0.094      342.893       18.618      857.896
09/22/2013  17:46:00     -260.301      -25.261      -24.008      124.188      111.084       56.732    15422.690    12339.679     3218.507        4.997        1.549      261.524       51.393        0.039      342.902       18.633      857.893
09/22/2013  17:47:00     -397.739     -136.341      -16.265      166.375      178.276       68.154    27680.800    31782.493     4644.992       12.057        3.205      420.459       61.007        0.021      342.817       18.488      857.873
09/22/2013  17:48:00     -296.290     -186.640      -28.293      172.341      113.321       68.597    29701.493    12841.548     4705.585        8.533        2.362      350.174       65.627        0.035      342.828       18.508      857.872
09/22/2013  17:49:00     -327.967      -59.390      -17.463      133.279      123.589       65.282    17763.160    15274.151     4261.775        7.434        1.865      333.301       69.964        0.044      342.873       18.584      857.908
09/22/2013  17:50:00     -299.150     -131.659        0.533      161.836      136.218       79.616    26190.750    18555.308     6338.665        7.894        2.554      326.840       92.665        0.080      342.870       18.580      857.923
09/22/2013  17:51:00     -452.882     -131.298      -25.888      148.444      130.551       65.221    22035.688    17043.682     4253.808       13.316        2.167      471.531       66.278        0.020      342.795       18.451      857.942
09/22/2013  17:52:00     -306.318     -100.412      -11.114      149.838      130.387       62.813    22451.326    17000.896     3945.416        7.371        2.170      322.356       56.978        0.031      342.825       18.502      857.965
09/22/2013  17:53:00     -358.645     -153.599       -3.280      146.202      114.188       68.847    21375.069    13038.849     4739.936        9.568        1.958      390.152       70.561        0.033      342.780       18.426      857.982
09/22/2013  17:54:00     -240.953      -57.152       -7.766      156.002      107.923       62.686    24336.738    11647.425     3929.556        5.064        1.996      247.638       58.465        0.056      342.792       18.447      858.025
09/22/2013  17:55:00     -283.223      -47.826        1.124      153.551       98.339       61.073    23578.030     9670.522     3729.902        5.973        1.849      287.233       71.011        0.061      342.820       18.497      858.040
09/22/2013  17:56:00     -226.262      -46.160       -0.126      123.407      110.772       58.517    15229.181    12270.501     3424.208        4.212        1.546      230.923       67.064        0.084      342.831       18.516      858.034
09/22/2013  17:57:00     -264.523     -110.814       -4.435      146.872      117.868       60.595    21571.312    13892.882     3671.762        6.070        1.957      286.796       64.765        0.051      342.826       18.504      858.031
09/22/2013  17:58:00     -318.831      -42.078      -21.018      131.521       97.118       49.473    17297.779     9431.854     2447.611        6.652        1.459      321.595       51.594        0.026      342.856       18.554      858.049
09/22/2013  17:59:00     -435.534      -28.874      -34.276      118.504      119.012       55.698    14043.139    14163.940     3102.312       11.150        1.565      436.490       40.371        0.009      342.802       18.464      858.049
09/22/2013  18:00:00     -345.479     -136.795      -25.424      161.570      114.879       64.389    26104.881    13197.204     4145.920        9.107        2.172      371.576       66.225        0.032      342.769       18.408      858.052
09/22/2013  18:01:00     -318.305      -92.153      -13.570      150.935      120.993       66.704    22781.516    14639.382     4449.462        7.592        2.094      331.377       69.109        0.043      342.792       18.448      858.070
09/22/2013  18:02:00     -346.381      -49.839       -2.786      114.212      155.074       66.846    13044.457    24047.815     4468.380        8.201        2.078      349.948       44.459        0.016      342.762       18.396      858.075
09/22/2013  18:03:00     -220.105      -28.466        1.805      162.680      111.394       63.870    26464.732    12408.562     4079.393        4.610        2.148      221.938       81.908        0.136      342.776       18.420      858.090
09/22/2013  18:04:00     -224.042      -37.258      -15.854       94.795       80.518       48.402     8986.085     6483.165     2342.761        3.482        0.891      227.119       50.081        0.049      342.810       18.477      858.144
09/22/2013  18:05:00     -368.275       14.528      -38.381      122.159       81.247       67.194    14922.780     6601.018     4515.015        8.167        1.302      368.562       63.103        0.029      342.708       18.303      858.158
09/22/2013  18:06:00     -347.725      -77.029      -25.412      194.999      115.880       90.718    38024.661    13428.193     8229.779        9.358        2.984      356.154      106.142        0.089      342.717       18.319      858.162
09/22/2013  18:07:00     -181.703      -78.392       -5.896      112.859      103.353       57.747    12737.243    10681.770     3334.682        3.297        1.338      197.892       57.912        0.086      342.743       18.363      858.173
09/22/2013  18:08:00      -75.155        9.726       -2.371       61.172       80.115       47.505     3741.965     6418.419     2256.764        0.908        0.621       75.782       33.741        0.198      342.775       18.421      858.179
09/22/2013  18:09:00     -132.144      -56.476       -8.196       75.724       55.475       29.448     5734.049     3077.512      867.161        1.520        0.484      143.707       27.707        0.037      342.740       18.360      858.198
09/22/2013  18:10:00     -186.184      -49.100        2.164       73.646       57.969       29.428     5423.802     3360.353      866.026        2.336        0.483      192.549       29.860        0.024      342.745       18.367      858.214
09/22/2013  18:11:00     -229.227      -55.885      -11.998      126.334       94.105       43.278    15960.252     8855.761     1872.965        4.125        1.334      235.941       48.492        0.042      342.724       18.330      858.226
09/22/2013  18:12:00     -255.254      -93.486      -22.005      144.717       94.666       57.619    20942.898     8961.712     3319.930        5.380        1.661      271.835       37.019        0.019      342.724       18.332      858.227
09/22/2013  18:13:00     -265.208      -97.556      -24.896      134.390       84.039       54.847    18060.776     7062.540     3008.226        5.430        1.407      282.581       56.841        0.040      342.703       18.294      858.271
09/22/2013  18:14:00     -348.970     -140.489      -10.939      132.218       92.477       54.725    17481.613     8551.993     2994.851        8.533        1.451      376.187       47.779        0.016      342.644       18.195      858.292
09/22/2013  18:15:00     -191.799      -32.410      -18.939      122.164      105.879       41.115    14923.960    11210.320     1690.424        3.300        1.391      194.518       42.036        0.047      342.686       18.267      858.315
09/22/2013  18:16:00     -387.008     -111.642      -19.444      143.619      136.303       72.225    20626.465    18578.392     5216.448       10.351        2.221      402.789       78.891        0.038      342.644       18.196      858.322
09/22/2013  18:17:00     -326.078     -121.360      -11.634      102.856      100.873       73.095    10579.303    10175.459     5342.925        7.364        1.305      347.930       58.403        0.028      342.605       18.128      858.332
09/22/2013  18:18:00     -380.776      -24.978      -23.582      144.621      120.830       63.737    20915.362    14599.776     4062.404        9.287        1.979      381.594       65.939        0.030      342.605       18.129      858.370
09/22/2013  18:19:00     -310.099       39.338      -22.720      126.814      117.882       59.256    16081.718    13896.167     3511.232        6.585        1.674      312.584       56.089        0.032      342.617       18.150      858.396
09/22/2013  18:20:00     -296.029      -75.856        2.487      143.407      123.949       71.800    20565.601    15363.477     5155.193        6.723        2.054      305.593       79.912        0.068      342.612       18.140      858.419
09/22/2013  18:21:00     -199.582      -44.545      -17.793      161.836      130.123       70.672    26190.733    16932.108     4994.505        4.512        2.406      204.493       84.601        0.171      342.621       18.155      858.421
09/22/2013  18:22:00     -350.790     -130.604      -11.995      164.229      101.346       56.487    26971.212    10270.977     3190.732        9.034        2.022      374.314       47.534        0.016      342.570       18.069      858.460
09/22/2013  18:23:00     -441.308     -128.633      -35.406      115.230      106.765       50.178    13277.849    11398.759     2517.807       11.987        1.360      459.673       37.282        0.007      342.558       18.049      858.489
09/22/2013  18:24:00     -344.816      -95.310      -20.150      115.751      103.379       55.772    13398.280    10687.178     3110.512        7.779        1.360      357.746       54.208        0.023      342.591       18.105      858.529
09/22/2013  18:25:00     -320.364     -110.740      -13.362      200.159      107.646       77.306    40063.763    11587.554     5976.168        8.634        2.881      338.964       97.097        0.082      342.563       18.058      858.547
09/22/2013  18:26:00     -314.318      -51.742      -20.334      102.550       94.629       49.821    10516.485     8954.736     2482.098        6.192        1.098      318.548       42.628        0.018      342.561       18.054      858.580
09/22/2013  18:27:00     -227.380        9.064      -23.832       91.505       74.712       43.434     8373.115     5581.820     1886.476        3.409        0.792      227.561       36.555        0.026      342.608       18.136      858.598
09/22/2013  18:28:00     -361.910      -15.487      -31.855      112.950      165.514       60.329    12757.773    27394.812     3639.646        8.800        2.190      362.241       59.300        0.027      342.545       18.026      858.605
09/22/2013  18:29:00     -245.356      -85.090        7.639      135.199       82.629       60.984    18278.647     6827.520     3719.044        4.816        1.441      259.692       68.852        0.070      342.539       18.016      858.600
09/22/2013  18:30:00     -248.587     -107.313      -12.591       82.122       91.834       45.016     6743.996     8433.417     2026.466        4.533        0.860      270.762       35.951        0.018      342.542       18.023      858.630
09/22/2013  18:31:00     -267.885        4.945      -21.168      119.153       86.638       46.088    14197.489     7506.171     2124.096        4.803        1.191      267.930       47.249        0.031      342.536       18.013      858.638
09/22/2013  18:32:00     -218.957      -58.404      -18.134       79.792       78.048       42.573     6366.808     6091.504     1812.419        3.297        0.714      226.612       35.125        0.024      342.505       17.959      858.653
09/22/2013  18:33:00     -262.617     -111.716      -11.559      134.004       95.085       52.877    17957.070     9041.227     2795.969        5.568        1.490      285.392       59.829        0.044      342.509       17.967      858.670
09/22/2013  18:34:00      -35.757       59.397       24.177       55.832       44.577       39.548     3117.239     1987.102     1564.020        0.603        0.333       69.330       40.057        0.334      342.486       17.930      858.692
09/22/2013  18:35:00     -197.149      -38.971      -17.729       77.768       87.070       32.481     6047.907     7581.225     1055.001        2.769        0.734      200.964       33.640        0.028      342.502       17.955      858.711
09/22/2013  18:36:00     -168.412      -80.510       -1.054      115.439       67.096       37.527    13326.048     4501.858     1408.245        2.704        0.962      186.666       47.110        0.064      342.447       17.862      858.718
09/22/2013  18:37:00     -253.927     -104.555      -17.190      108.834       71.548       49.065    11844.881     5119.166     2407.330        4.754        0.969      274.610       46.596        0.029      342.417       17.809      858.712
09/22/2013  18:38:00     -287.774      -40.753      -30.685       82.283       81.478       42.094     6770.484     6638.681     1771.937        5.030        0.759      290.645       43.774        0.023      342.423       17.820      858.709
09/22/2013  18:39:00     -266.568      -23.187      -11.615       88.521       61.310       47.395     7835.987     3758.936     2246.244        4.278        0.692      267.574       50.185        0.035      342.428       17.829      858.724
09/22/2013  18:40:00     -241.898      -46.310      -17.269      102.594       84.390       42.076    10525.537     7121.734     1770.385        4.018        0.971      246.291       45.232        0.034      342.395       17.771      858.721
09/22/2013  18:41:00     -216.719      -61.199       -5.976      140.498      114.534       64.519    19739.785    13117.923     4162.687        4.388        1.851      225.194       66.696        0.088      342.355       17.705      858.723
09/22/2013  18:42:00     -201.509      -57.729       -3.731       99.060      103.520       46.710     9812.847    10716.481     2181.868        3.333        1.136      209.615       39.397        0.035      342.371       17.731      858.735
09/22/2013  18:43:00     -256.469      -89.011       -8.677       59.121       46.361       33.549     3495.310     2149.347     1125.512        4.027        0.339      271.476       20.416        0.006      342.340       17.677      858.744
09/22/2013  18:44:00     -211.303      -74.864      -11.271       70.276       68.708       35.019     4938.722     4720.818     1226.346        3.063        0.544      224.173       33.357        0.022      342.365       17.720      858.749
09/22/2013  18:45:00     -163.323      -43.533       -3.214      114.830      105.131       46.829    13186.043    11052.449     2192.925        2.750        1.322      169.025       33.015        0.038      342.352       17.699      858.761
09/22/2013  18:46:00     -232.837        3.229       -6.450      149.021      117.042       65.244    22207.257    13698.827     4256.737        4.721        2.008      232.859       73.884        0.101      342.277       17.571      858.758
09/22/2013  18:47:00     -298.730      -39.529       -6.118      133.466      121.816       59.433    17813.304    14839.046     3532.260        6.351        1.809      301.334       59.577        0.039      342.240       17.508      858.755
09/22/2013  18:48:00     -503.671      -43.388      -28.067      203.084      157.649       90.235    41243.186    24853.286     8142.422       16.528        3.712      505.536      104.180        0.042      342.205       17.449      858.733
09/22/2013  18:49:00     -367.878      -72.177      -10.384      156.708      115.201       68.601    24557.285    13271.296     4706.040        9.158        2.127      374.891       73.529        0.038      342.196       17.433      858.714
09/22/2013  18:50:00     -311.173     -143.753      -11.731      180.460      143.134       76.838    32565.855    20487.468     5904.126        8.828        2.948      342.773       86.113        0.063      342.195       17.432      858.704
09/22/2013  18:51:00     -350.806      -92.140       -8.190      134.202      114.712       68.361    18010.227    13158.898     4673.271        8.372        1.792      362.704       67.781        0.035      342.162       17.375      858.701
09/22/2013  18:52:00     -165.132      -40.822       16.411      130.543      108.193       69.099    17041.468    11705.718     4774.706        3.136        1.676      170.103       64.223        0.143      342.194       17.431      858.681
09/22/2013  18:53:00     -388.974      -90.729      -22.841      143.714      149.871       69.117    20653.605    22461.288     4777.124       10.396        2.395      399.415       70.132        0.031      342.146       17.348      858.675
09/22/2013  18:54:00     -288.704      -41.971      -17.365      120.204      123.688       61.146    14449.051    15298.751     3738.825        5.944        1.674      291.738       55.387        0.036      342.146       17.349      858.664
09/22/2013  18:55:00     -265.986      -90.564       -8.639      138.005      149.158       59.905    19045.263    22248.158     3588.606        6.194        2.244      280.981       63.714        0.051      342.101       17.273      858.664
09/22/2013  18:56:00     -394.871     -170.669      -13.477      183.355      165.075       82.410    33619.026    27249.758     6791.343       12.643        3.383      430.176       94.596        0.048      342.069       17.217      858.642
09/22/2013  18:57:00     -280.644      -66.998      -15.979      146.601      102.698       71.591    21491.904    10546.798     5125.285        6.033        1.858      288.531       80.259        0.077      342.071       17.221      858.641
09/22/2013  18:58:00     -170.831      -27.549       -6.514      104.510       95.042       54.135    10922.335     9033.022     2930.601        2.643        1.144      173.038       48.194        0.078      342.053       17.192      858.647
09/22/2013  18:59:00     -262.607     -163.991       11.449      198.244      143.243       86.622    39300.668    20518.419     7503.413        8.164        3.366      309.605       97.445        0.099      342.005       17.110      858.642
09/22/2013  19:00:00     -325.714      -77.880       -8.772      174.747      128.471       75.908    30536.435    16504.732     5761.995        8.251        2.640      334.895       76.097        0.052      342.015       17.124      858.650
09/22/2013  19:01:00     -329.865     -117.497      -41.700      167.708      125.828       79.679    28125.934    15832.570     6348.714        8.732        2.515      350.166       75.646        0.047      342.004       17.106      858.638
09/22/2013  19:02:00     -270.914      -68.536       -7.789      191.941      112.753       75.779    36841.451    12713.283     5742.531        6.671        2.765      279.449       79.359        0.081      342.004       17.107      858.640
09/22/2013  19:03:00     -237.103      -43.552        2.903      141.169      128.409       69.530    19928.691    16488.785     4834.422        4.968        2.063      241.070       73.837        0.094      341.955       17.025      858.615
09/22/2013  19:04:00     -280.412      -63.530      -10.023      154.968      125.413       64.785    24015.163    15728.446     4197.040        6.335        2.197      287.518       67.889        0.056      341.929       16.981      858.598
09/22/2013  19:05:00     -330.282      -56.515       -4.218      196.361      156.995       86.062    38557.703    24647.483     7406.614        9.144        3.531      335.082       95.647        0.081      341.901       16.932      858.589
09/22/2013  19:06:00     -302.741     -109.965        4.812      167.819      178.452       88.303    28163.343    31845.041     7797.452        8.577        3.390      322.094       86.722        0.072      341.895       16.921      858.608
09/22/2013  19:07:00     -258.753      -88.206       -2.678      169.888      129.017       74.231    28861.801    16645.296     5510.228        6.287        2.551      273.374       88.897        0.106      341.903       16.936      858.628
09/22/2013  19:08:00     -251.926      -56.582       -6.949      126.497      103.467       58.828    16001.449    10705.356     3460.734        4.844        1.508      258.202       60.647        0.055      341.898       16.927      858.654
09/22/2013  19:09:00     -211.152     -115.883       14.621      154.226      109.259       65.020    23785.755    11937.452     4227.628        4.908        1.998      240.861       64.576        0.072      341.880       16.896      858.652
09/22/2013  19:10:00     -150.556      -47.549        3.856       93.232       89.729       49.518     8692.203     8051.328     2452.050        2.207        0.960      157.886       41.214        0.068      341.871       16.883      858.659
09/22/2013  19:11:00     -399.856     -123.640      -19.887      176.753      118.234       74.243    31241.711    13979.194     5511.987       11.314        2.537      418.535       79.698        0.036      341.852       16.848      858.664
09/22/2013  19:12:00     -321.635     -125.946      -22.250      160.088      120.929       71.406    25628.192    14623.719     5098.821        8.257        2.268      345.415       78.785        0.052      341.855       16.853      858.673
09/22/2013  19:13:00     -247.980      -54.238      -13.932       90.561       98.084       50.140     8201.293     9620.541     2514.016        4.248        1.017      253.842       39.253        0.024      341.846       16.839      858.672
09/22/2013  19:14:00     -148.842      -42.125       17.727       90.509       80.562       48.221     8191.807     6490.247     2325.256        2.062        0.850      154.688       49.540        0.103      341.805       16.770      858.670
09/22/2013  19:15:00     -137.071      -56.492        0.186       98.012       78.907       47.799     9606.372     6226.338     2284.762        2.005        0.906      148.256       44.859        0.092      341.845       16.839      858.692
09/22/2013  19:16:00     -272.566      -82.064       -5.724      133.656       92.265       64.749    17864.022     8512.771     4192.401        5.581        1.528      284.652       62.188        0.048      341.816       16.787      858.699
09/22/2013  19:17:00     -226.995      -82.932       -9.027      104.785      101.130       49.825    10979.817    10227.352     2482.577        4.108        1.184      241.670       50.294        0.043      341.808       16.775      858.739
09/22/2013  19:18:00     -365.129     -107.961      -14.510      222.897      123.096       67.590    49682.855    15152.515     4568.401       10.728        3.470      380.755       86.307        0.051      341.770       16.710      858.758
09/22/2013  19:19:00     -389.570        4.761      -23.282      144.877       93.476       52.017    20989.232     8737.678     2705.791        9.237        1.622      389.599       60.238        0.024      341.792       16.747      858.760
09/22/2013  19:20:00     -221.121      -28.633      -10.848      102.876       83.279       47.375    10583.528     6935.427     2244.438        3.479        0.988      222.967       48.949        0.048      341.755       16.685      858.780
09/22/2013  19:21:00     -305.187      -60.683       -3.183      165.857      106.676       69.364    27508.472    11379.870     4811.381        7.026        2.185      311.161       86.373        0.077      341.738       16.656      858.783
09/22/2013  19:22:00     -283.592      -67.146      -12.779      127.261      112.428       60.468    16195.299    12639.960     3656.359        5.879        1.625      291.433       59.442        0.042      341.720       16.624      858.783
09/22/2013  19:23:00     -428.470     -104.609      -15.062      175.968      142.440       70.823    30964.689    20289.038     5015.842       12.550        2.813      441.055       83.382        0.036      341.717       16.619      858.779
09/22/2013  19:24:00     -334.394      -61.027      -11.614      148.138       98.042       63.635    21944.807     9612.233     4049.399        7.564        1.780      339.917       67.573        0.040      341.692       16.577      858.796
09/22/2013  19:25:00     -246.378      -46.469       -2.804      117.232      101.957       68.195    13743.311    10395.236     4650.599        4.582        1.439      250.722       71.301        0.081      341.694       16.582      858.796
09/22/2013  19:26:00     -283.917     -124.370       -6.371      125.186      117.810       62.140    15671.484    13879.228     3861.349        6.476        1.671      309.962       67.272        0.047      341.694       16.582      858.769
09/22/2013  19:27:00     -166.260      -40.382        8.568      108.231      103.935       62.167    11713.903    10802.427     3864.724        2.786        1.319      171.094       67.282        0.155      341.656       16.518      858.766
09/22/2013  19:28:00     -323.930      -29.558       -9.424      161.639      126.434       64.222    26127.278    15985.615     4124.411        7.606        2.312      325.276       62.703        0.037      341.643       16.495      858.766
09/22/2013  19:29:00     -341.628      -84.709       -0.501      182.363      151.050       72.503    33256.118    22816.078     5256.708        9.260        3.066      351.974       82.326        0.055      341.622       16.461      858.767
09/22/2013  19:30:00     -262.845      -58.377       -9.272      104.762      114.604       61.730    10975.172    13134.110     3810.540        5.025        1.396      269.249       57.772        0.046      341.615       16.449      858.779
09/22/2013  19:31:00     -201.426      -39.974        6.272      135.508      111.032       60.783    18362.300    12328.174     3694.584        3.829        1.719      205.354       65.991        0.103      341.630       16.473      858.808
09/22/2013  19:32:00     -272.312      -61.081      -14.904      136.194       94.639       58.489    18548.919     8956.566     3420.977        5.451        1.546      279.079       68.579        0.060      341.614       16.446      858.832
09/22/2013  19:33:00     -183.286      -28.756        5.567      114.392       98.701       52.328    13085.621     9741.894     2738.185        3.000        1.278      185.528       43.180        0.054      341.579       16.388      858.831
09/22/2013  19:34:00     -353.561      -90.694      -14.534      185.383      111.102       63.831    34367.010    12343.620     4074.381        9.210        2.539      365.008       75.058        0.042      341.610       16.438      858.842
09/22/2013  19:35:00     -306.175      -82.056        9.485      180.786      127.771       69.933    32683.402    16325.434     4890.666        7.722        2.695      316.980       81.773        0.067      341.573       16.377      858.865
09/22/2013  19:36:00     -358.499      -52.031      -19.366      142.819       99.708       60.171    20397.155     9941.753     3620.521        8.278        1.698      362.255       63.740        0.031      341.598       16.418      858.879
09/22/2013  19:37:00     -311.200      -15.383      -21.315       95.715       76.593       49.798     9161.279     5866.542     2479.816        5.752        0.875      311.580       43.733        0.020      341.590       16.403      858.901
09/22/2013  19:38:00     -183.405      -80.019       -2.351       95.843       88.468       56.013     9185.868     7826.590     3137.405        3.009        1.007      200.101       56.301        0.079      341.568       16.368      858.903
09/22/2013  19:39:00     -222.787      -64.520        2.634      102.410       94.482       44.029    10487.710     8926.935     1938.564        3.757        1.068      231.941       40.339        0.030      341.563       16.360      858.908
09/22/2013  19:40:00     -281.151      -25.917       -9.912      126.921      121.549       53.965    16109.021    14774.128     2912.265        5.680        1.690      282.343       47.920        0.029      341.498       16.248      858.931
09/22/2013  19:41:00     -286.791      -51.381       -7.554      176.617      110.588       62.321    31193.583    12229.638     3883.845        6.612        2.365      291.358       71.843        0.061      341.519       16.286      858.932
09/22/2013  19:42:00     -195.995      -24.053        1.521      121.789       90.919       70.406    14832.668     8266.209     4957.064        3.352        1.403      197.465       75.314        0.145      341.489       16.235      858.953
09/22/2013  19:43:00     -251.277      -93.404        5.150      149.568      118.652       68.438    22370.593    14078.254     4683.719        5.650        2.057      268.076       63.636        0.056      341.494       16.243      858.964
09/22/2013  19:44:00     -413.465     -156.000      -21.546      150.255      123.396       68.028    22576.615    15226.489     4627.773       11.908        2.122      441.915       71.806        0.026      341.486       16.227      859.005
09/22/2013  19:45:00     -317.085     -120.499      -13.713      151.546      133.511       58.153    22966.214    17825.226     3381.751        7.970        2.209      339.209       61.513        0.033      341.477       16.214      859.020
09/22/2013  19:46:00     -136.816      -15.513       12.405      165.405       72.126       62.342    27358.742     5202.101     3886.473        2.777        1.822      137.693       77.686        0.318      341.451       16.170      859.043
09/22/2013  19:47:00     -106.769       13.479       18.027      114.963       80.330       64.112    13216.584     6452.892     4110.339        1.784        1.189      107.617       57.649        0.287      341.420       16.120      859.064
09/22/2013  19:48:00     -212.228      -43.530        2.763      134.031       83.740       48.925    17964.245     7012.389     2393.698        3.715        1.369      216.646       58.904        0.074      341.435       16.142      859.077
09/22/2013  19:49:00     -205.062      -63.496       -3.856      104.884       91.406       59.663    11000.573     8355.128     3559.691        3.450        1.146      214.667       53.457        0.062      341.422       16.119      859.087
09/22/2013  19:50:00     -317.284      -69.545      -13.060      132.040       87.271       48.883    17434.600     7616.169     2389.537        6.655        1.372      324.816       52.826        0.026      341.397       16.079      859.112
09/22/2013  19:51:00     -370.563      -69.761      -16.341      103.396      118.627       64.918    10690.744    14072.371     4214.399        8.571        1.449      377.073       58.116        0.024      341.385       16.057      859.107
09/22/2013  19:52:00     -259.787      -56.018       -3.209      129.028      129.961       57.643    16648.327    16889.890     3322.771        5.374        1.843      265.758       60.134        0.051      341.372       16.035      859.122
09/22/2013  19:53:00     -400.335      -56.164      -18.161      170.180      148.856       71.655    28961.396    22157.978     5134.395       10.999        2.813      404.255       77.260        0.037      341.371       16.033      859.119
09/22/2013  19:54:00     -371.440     -101.511       -3.826      155.412      113.558       77.481    24152.906    12895.396     6003.255        9.566        2.153      385.062       84.746        0.048      341.357       16.009      859.124
09/22/2013  19:55:00     -379.900      -45.323       -9.323      141.764      110.293       72.496    20097.080    12164.458     5255.637        9.198        1.876      382.594       72.916        0.036      341.349       15.997      859.146
09/22/2013  19:56:00     -309.666      -62.676       -3.873      121.946       98.482       57.236    14870.875     9698.619     3275.917        6.384        1.392      315.945       65.899        0.044      341.334       15.970      859.161
09/22/2013  19:57:00     -265.629      -86.094       -3.595      131.766      109.270       66.197    17362.252    11940.020     4382.103        5.583        1.684      279.233       69.333        0.062      341.315       15.940      859.191
09/22/2013  19:58:00     -346.138      -70.867      -11.165      137.618      105.929       63.989    18938.741    11220.871     4094.648        7.960        1.713      353.318       67.113        0.036      341.334       15.970      859.204
09/22/2013  19:59:00     -355.078      -96.249       -4.974      142.926      131.773       68.918    20427.977    17364.016     4749.691        8.895        2.127      367.892       79.781        0.047      341.325       15.956      859.240
09/22/2013  20:00:00     -261.441       -5.629       -9.092      120.157       99.879       57.462    14437.711     9975.826     3301.910        4.809        1.386      261.501       54.737        0.044      341.308       15.928      859.253
09/22/2013  20:01:00     -346.927      -19.882      -17.239      165.184      157.043       62.194    27285.697    24662.561     3868.108        8.842        2.791      347.496       64.869        0.035      341.287       15.893      859.267
09/22/2013  20:02:00     -245.860       41.220      -15.074      114.581       99.272       75.077    13128.789     9854.931     5636.483        4.549        1.431      249.292       67.157        0.073      341.249       15.829      859.271
09/22/2013  20:03:00     -421.962      -97.371      -16.048      146.454      121.073       65.101    21448.798    14658.631     4238.113       11.406        2.017      433.051       61.979        0.020      341.288       15.893      859.302
09/22/2013  20:04:00     -232.485      -74.837       -2.193      130.026      110.243       58.117    16906.744    12153.623     3377.636        4.604        1.622      244.234       64.352        0.069      341.269       15.861      859.321
09/22/2013  20:05:00     -214.268      -23.348        2.727      139.623       90.824       51.211    19494.548     8249.042     2622.605        3.841        1.518      215.537       49.477        0.053      341.252       15.834      859.349
09/22/2013  20:06:00     -126.040      -54.946       -1.062      128.210      104.781       56.987    16437.921    10979.018     3247.498        2.478        1.533      137.496       63.378        0.212      341.278       15.877      859.351
09/22/2013  20:07:00     -327.528        8.574      -30.759      135.818      107.701       57.274    18446.495    11599.507     3280.315        7.080        1.666      327.641       68.430        0.044      341.273       15.868      859.382
09/22/2013  20:08:00     -241.083      -78.412      -16.093       78.871       81.424       45.011     6220.636     6629.853     2025.976        3.970        0.744      253.514       36.995        0.021      341.270       15.863      859.398
09/22/2013  20:09:00     -311.353     -132.333      -20.223      168.734      118.101       68.659    28471.227    13947.887     4714.080        8.099        2.357      338.309       60.765        0.032      341.222       15.782      859.435
09/22/2013  20:10:00     -282.864      -37.808      -22.278       82.595       74.761       45.558     6821.953     5589.169     2075.489        4.821        0.724      285.380       40.794        0.020      341.192       15.730      859.451
09/22/2013  20:11:00     -399.991      -46.932      -35.388       73.255       81.921       41.641     5366.316     6711.002     1733.975        8.863        0.691      402.735       32.881        0.007      341.220       15.778      859.467
09/22/2013  20:12:00     -325.378      -80.408       -9.363      131.426       91.620       60.545    17272.791     8394.238     3665.674        7.087        1.467      335.166       65.804        0.039      341.167       15.688      859.480
09/22/2013  20:13:00     -261.785     -103.853      -10.377       94.020       81.067       39.193     8839.740     6571.799     1536.090        4.818        0.847      281.632       28.738        0.010      341.188       15.725      859.498
09/22/2013  20:14:00     -145.703      -50.267       -8.665      109.123       66.336       45.012    11907.745     4400.488     2026.081        2.108        0.917      154.130       56.076        0.132      341.151       15.662      859.519
09/22/2013  20:15:00     -176.004      -90.624       -6.148       72.500       69.235       44.174     5256.264     4793.418     1951.307        2.561        0.600      197.965       38.080        0.037      341.182       15.714      859.545
09/22/2013  20:16:00      -74.850       -3.513       11.754       56.435       45.708       32.098     3184.875     2089.246     1030.263        0.603        0.315       74.932       29.186        0.152      341.161       15.682      859.562
09/22/2013  20:17:00     -127.878      -29.557       -9.682       55.868       89.302       36.160     3121.270     7974.838     1307.573        1.486        0.620      131.250       27.871        0.045      341.153       15.668      859.594
09/22/2013  20:18:00     -148.559     -112.111      -13.218       80.261       56.792       41.297     6441.805     3225.275     1705.417        2.309        0.569      186.114       36.177        0.038      341.163       15.684      859.648
09/22/2013  20:19:00     -162.096      -20.553       -8.427       71.475       60.978       35.372     5108.622     3718.343     1251.201        1.842        0.504      163.394       28.458        0.030      341.154       15.670      859.668
09/22/2013  20:20:00     -236.264      -14.415      -28.332       76.917       59.622       42.552     5916.211     3554.739     1810.681        3.405        0.564      236.703       35.488        0.022      341.154       15.665      859.676
09/22/2013  20:21:00     -245.576       -0.140      -28.740       82.023       58.496       34.172     6727.728     3421.749     1167.738        3.622        0.566      245.576       29.859        0.015      341.167       15.687      859.690
09/22/2013  20:22:00     -153.925       76.612      -23.059       66.947       69.907       39.367     4481.930     4887.019     1549.798        2.050        0.546      171.937       26.640        0.024      341.208       15.760      859.650
09/22/2013  20:23:00      -36.993       58.628        2.253       39.108       78.918       37.525     1529.474     6228.083     1408.111        0.699        0.458       69.324       23.524        0.115      341.183       15.719      859.655
09/22/2013  20:24:00     -158.647      -54.876        4.325      140.516       99.292       42.126    19744.860     9858.806     1774.592        2.978        1.569      167.869       58.809        0.123      341.135       15.636      859.674
09/22/2013  20:25:00     -247.658     -137.527      -13.838      136.542       83.027       61.572    18643.765     6893.401     3791.168        5.488        1.466      283.281       63.349        0.050      341.130       15.625      859.694
09/22/2013  20:26:00     -340.264      -60.828       -2.575      127.435      135.771       62.287    16239.637    18433.688     3879.662        7.901        1.928      345.658       54.281        0.025      341.136       15.636      859.688
09/22/2013  20:27:00     -293.577      -73.392       -2.697      166.764      114.358       73.724    27810.266    13077.672     5435.193        6.894        2.316      302.611       81.060        0.072      341.211       15.763      859.722
09/22/2013  20:28:00     -276.944      -16.291      -28.568      111.636      102.415       50.538    12462.580    10488.904     2554.108        5.164        1.275      277.423       49.621        0.032      341.213       15.765      859.740
09/22/2013  20:29:00     -264.705      -33.823      -11.325      155.516      118.207       55.905    24185.198    13972.836     3125.415        5.630        2.064      266.857       59.176        0.049      341.224       15.786      859.737
09/22/2013  20:30:00     -172.344      -10.442      -14.753       91.452       71.598       45.600     8363.559     5126.333     2079.386        2.280        0.778      172.660       40.104        0.054      341.180       15.711      859.759
09/22/2013  20:31:00     -201.277      -33.992      -25.683       74.370       58.119       27.588     5530.902     3377.779      761.081        2.600        0.483      204.127       27.020        0.018      341.174       15.703      859.760
09/22/2013  20:32:00     -199.206      104.427      -21.319       85.079       71.873       51.689     7238.507     5165.735     2671.764        3.306        0.754      224.918       37.529        0.028      341.159       15.673      859.748
09/22/2013  20:33:00     -326.657     -100.274      -25.830       98.707       97.161       55.205     9743.033     9440.298     3047.571        6.982        1.112      341.701       40.392        0.014      341.131       15.626      859.756
09/22/2013  20:34:00     -330.410      -34.972      -18.838      106.176      115.898       61.529    11273.310    13432.462     3785.790        6.961        1.425      332.256       48.498        0.021      341.073       15.529      859.771
09/22/2013  20:35:00     -283.162     -116.617      -11.545      118.406      106.205       64.629    14019.956    11279.517     4176.889        6.169        1.474      306.235       59.697        0.038      341.055       15.498      859.806
09/22/2013  20:36:00     -353.660      -54.021       -6.850      128.682      122.803       63.426    16559.093    15080.550     4022.824        8.184        1.783      357.762       62.724        0.031      341.081       15.543      859.837
09/22/2013  20:37:00     -183.651       -5.921      -18.365      102.856       66.366       40.589    10579.351     4404.417     1647.438        2.536        0.832      183.747       43.209        0.055      341.078       15.540      859.854
09/22/2013  20:38:00     -220.407      -25.545      -20.103      139.837       99.242       55.861    19554.383     9849.016     3120.500        4.107        1.626      221.883       59.144        0.071      341.085       15.551      859.864
09/22/2013  20:39:00     -201.049      -61.195      -12.188       80.059       89.683       48.819     6409.392     8042.993     2383.317        3.057        0.842      210.156       37.565        0.032      341.065       15.516      859.884
09/22/2013  20:40:00     -216.505      -77.936      -21.106       91.587       64.462       37.578     8388.130     4155.343     1412.132        3.367        0.698      230.105        9.722        0.002      341.082       15.544      859.914
09/22/2013  20:41:00     -336.366     -112.743       -7.079      168.005      118.445       62.356    28225.520    14029.224     3888.303        8.601        2.307      354.758       63.096        0.032      341.074       15.531      859.927
09/22/2013  20:42:00     -353.615      -44.933      -19.817      121.189       72.705       50.999    14686.675     5286.046     2600.854        7.501        1.129      356.458       50.983        0.020      341.036       15.468      859.955
09/22/2013  20:43:00     -317.967      -32.931       -8.222      148.376      114.973       74.942    22015.326    13218.903     5616.359        7.154        2.043      319.668       78.651        0.061      341.031       15.457      859.960
09/22/2013  20:44:00     -369.777      -98.137      -17.239      130.971      103.243       60.722    17153.527    10659.142     3687.187        8.908        1.575      382.578       58.860        0.024      341.069       15.522      860.006
09/22/2013  20:45:00     -344.511      -82.955      -15.221      163.799      106.295       64.105    26829.982    11298.724     4109.407        8.401        2.112      354.358       76.376        0.046      341.117       15.604      860.007
09/22/2013  20:46:00     -312.640      -58.311      -16.207      106.904       83.716       53.733    11428.405     7008.325     2887.271        6.136        1.066      318.031       44.994        0.020      341.141       15.645      860.018
09/22/2013  20:47:00     -348.350      -28.062      -23.108      127.928      124.245       64.353    16365.560    15436.869     4141.319        7.930        1.797      349.479       64.245        0.034      341.123       15.615      860.014
09/22/2013  20:48:00     -330.342      -95.592      -17.792      125.500      104.292       64.442    15750.354    10876.824     4152.787        7.467        1.539      343.895       61.687        0.032      341.124       15.616      860.007
09/22/2013  20:49:00     -513.851      -27.638      -35.332      158.974      106.370       67.020    25272.727    11314.612     4491.662       15.356        2.054      514.594       72.696        0.020      341.238       15.809      860.007
09/22/2013  20:50:00     -390.182      -39.498      -48.664      127.644      101.718       48.083    16292.869    10346.605     2312.018        9.256        1.448      392.176       47.458        0.015      341.228       15.792      860.023
09/22/2013  20:51:00     -380.235      -63.420      -27.660      147.762      108.019       60.643    21833.723    11668.036     3677.523        9.327        1.859      385.488       71.491        0.034      341.192       15.730      860.015
09/22/2013  20:52:00     -356.092     -164.416      -18.611      116.582       92.707       64.044    13591.285     8594.516     4101.653        9.023        1.314      392.217       64.306        0.027      341.173       15.697      860.008
09/22/2013  20:53:00     -350.953      -70.306       -4.451      149.137      117.090       66.671    22241.827    13709.999     4444.969        8.426        2.020      357.926       73.089        0.042      341.094       15.565      860.033
09/22/2013  20:54:00     -516.216      -75.733      -41.504      209.640      127.432       76.699    43949.133    16238.955     5882.693       16.999        3.304      521.742       90.357        0.030      341.170       15.694      860.048
09/22/2013  20:55:00     -471.097      -36.247      -16.316      172.863      152.150       77.451    29881.757    23149.627     5998.628       14.126        2.952      472.490       75.219        0.025      341.167       15.688      860.044
09/22/2013  20:56:00     -368.822       15.325      -27.802      159.025      110.581       62.161    25288.842    12228.100     3864.044        8.920        2.069      369.140       80.501        0.048      341.188       15.724      860.077
09/22/2013  20:57:00     -360.039     -105.348      -36.402       93.355       63.513       43.248     8715.217     4033.954     1870.427        7.833        0.731      375.135       36.098        0.009      341.139       15.639      860.063
09/22/2013  20:58:00     -382.031      -57.433      -25.678      124.348       92.085       44.053    15462.336     8479.696     1940.689        8.789        1.294      386.324       47.318        0.015      341.116       15.602      860.076
09/22/2013  20:59:00     -355.787      -77.206      -26.475      138.843      136.334       73.947    19277.460    18586.977     5468.200        8.828        2.167      364.067       77.229        0.045      341.092       15.560      860.074
09/22/2013  21:00:00     -330.997      -99.118       -8.818      111.582      107.333       54.945    12450.592    11520.396     3018.993        7.322        1.349      345.519       47.037        0.019      341.116       15.600      860.086
09/22/2013  21:01:00     -246.712      -79.101       -7.789      125.434      104.229       49.941    15733.640    10863.648     2494.089        4.813        1.455      259.083       47.041        0.033      341.162       15.680      860.103
09/22/2013  21:02:00     -220.668      -65.781       -0.691       99.026       77.518       42.466     9806.076     6009.019     1803.389        3.532        0.881      230.264       36.841        0.026      341.117       15.604      860.121
09/22/2013  21:03:00     -202.413      -26.988      -14.406       77.232      101.037       49.856     5964.766    10208.551     2485.635        3.028        0.933      204.204       57.746        0.080      341.089       15.556      860.137
09/22/2013  21:04:00     -223.691      -50.156      -11.832      109.946       67.092       46.874    12088.071     4501.319     2197.205        3.574        0.939      229.245       54.577        0.057      341.092       15.562      860.139
09/22/2013  21:05:00     -349.357     -108.024      -17.102       78.846      101.435       58.869     6216.744    10289.004     3465.532        7.699        0.999      365.676       40.050        0.012      341.074       15.531      860.125
09/22/2013  21:06:00     -454.146     -138.019      -12.772      130.365      108.833       71.912    16995.017    11844.659     5171.329       12.973        1.701      474.656       74.974        0.025      341.026       15.451      860.110
09/22/2013  21:07:00     -406.309     -143.537      -11.259      120.568      107.807       66.269    14536.558    11622.366     4391.611       10.818        1.528      430.917       57.718        0.018      341.061       15.510      860.104
09/22/2013  21:08:00     -312.607      -99.389       -6.755      115.211      104.252       57.181    13273.636    10868.436     3269.672        6.752        1.371      328.027       67.271        0.042      341.023       15.447      860.105
09/22/2013  21:09:00     -300.008      -87.636       -1.266      142.922       89.194       48.342    20426.721     7955.517     2336.975        6.420        1.536      312.546       52.927        0.029      340.973       15.361      860.113
09/22/2013  21:10:00     -277.120      -27.395      -11.796      168.614       95.238       63.929    28430.636     9070.245     4086.931        5.963        2.079      278.471       74.878        0.072      340.935       15.296      860.138
09/22/2013  21:11:00     -366.589      -44.153      -26.361      144.850      148.101       59.018    20981.436    21933.845     3483.110        9.171        2.320      369.239       66.171        0.032      341.021       15.440      860.144
09/22/2013  21:12:00     -351.381      -94.779       -7.558       99.764       92.888       59.081     9952.949     8628.138     3490.572        7.729        1.104      363.939       58.873        0.026      340.932       15.290      860.158
09/22/2013  21:13:00     -384.796      -86.389       -6.558      139.356      103.562       68.820    19420.082    10725.102     4736.124        9.522        1.744      394.374       73.748        0.035      340.917       15.265      860.168
09/22/2013  21:14:00     -382.996      -46.105      -13.247      188.293       92.338       69.038    35454.396     8526.305     4766.206        9.886        2.437      385.761       92.503        0.058      340.924       15.278      860.203
09/22/2013  21:15:00     -328.169      -24.493       -3.704      170.456       81.569       65.945    29055.234     6653.501     4348.779        7.418        2.003      329.082       75.329        0.052      340.895       15.228      860.239
09/22/2013  21:16:00     -326.468      -71.621       -8.478      115.667       92.067       62.024    13378.924     8476.417     3847.025        6.874        1.285      334.232       60.875        0.033      340.891       15.221      860.256
09/22/2013  21:17:00     -203.480      -15.684      -12.276       70.212       76.837       44.033     4929.789     5904.001     1938.865        2.728        0.639      204.084       40.324        0.039      340.815       15.092      860.264
09/22/2013  21:18:00     -318.446      -60.813       -5.616       93.649       66.182       52.035     8770.164     4380.079     2707.643        6.049        0.793      324.201       46.061        0.020      340.804       15.075      860.273
09/22/2013  21:19:00     -215.486      -50.239        1.014       88.443       49.823       40.607     7822.160     2482.334     1648.967        3.045        0.598      221.265       46.048        0.043      340.808       15.082      860.292
09/22/2013  21:20:00     -152.125      -42.976      -10.173       70.005       62.653       35.112     4900.655     3925.436     1232.856        1.757        0.503      158.079       32.056        0.041      340.790       15.051      860.301
09/22/2013  21:21:00      -92.377       66.306      -29.135       59.445       50.040       31.436     3533.694     2503.977      988.210        1.040        0.351      113.710       29.471        0.067      340.777       15.031      860.309
09/22/2013  21:22:00     -134.391       69.820      -12.358       73.892       40.288       42.538     5460.067     1623.106     1809.483        1.599        0.445      151.446       35.384        0.055      340.766       15.011      860.330
09/22/2013  21:23:00     -109.602       61.036       -2.041       87.467       83.106       42.840     7650.563     6906.651     1835.249        1.606        0.820      125.451       42.589        0.115      340.706       14.910      860.333
09/22/2013  21:24:00     -131.438       26.020      -12.458       75.530       48.864       32.525     5704.840     2387.643     1057.858        1.363        0.458      133.989       16.251        0.015      340.693       14.888      860.345
09/22/2013  21:25:00      -62.330      106.354       -6.362       55.214       59.491       35.192     3048.542     3539.147     1238.490        1.153        0.391      123.273       32.703        0.070      340.650       14.817      860.348
09/22/2013  21:26:00      -39.015       73.523       -4.108       38.595       52.713       27.387     1489.592     2778.697      750.067        0.598        0.251       83.234       22.106        0.071      340.659       14.831      860.356
09/22/2013  21:27:00       -6.500       68.477      -12.717       41.773       59.757       25.657     1744.990     3570.944      658.274        0.543        0.299       68.785       18.251        0.070      340.695       14.895      860.358
09/22/2013  21:28:00      -16.803       47.585        0.086       24.155       36.653       20.130      583.445     1343.420      405.205        0.244        0.117       50.465       21.495        0.181      340.663       14.838      860.362
09/22/2013  21:29:00     -112.004       85.312      -11.294       80.042       85.879       33.781     6406.763     7375.171     1141.184        1.743        0.746      140.794       40.526        0.083      340.614       14.756      860.366
09/22/2013  21:30:00      -81.561      127.795      -22.307       34.775       45.496       27.376     1209.290     2069.923      749.460        1.375        0.201      151.604       24.180        0.025      340.604       14.738      860.369
09/22/2013  21:31:00      -26.464       79.989       -8.651       46.486       30.858       14.814     2160.921      952.222      219.454        0.525        0.167       84.253       13.941        0.027      340.592       14.720      860.386
09/22/2013  21:32:00       30.493       89.664      -12.620       27.993       52.784       22.005      783.635     2786.100      484.228        0.659        0.203       94.707       23.553        0.062      340.573       14.687      860.403
09/22/2013  21:33:00       36.991      162.060      -15.289       45.970       79.001       39.255     2113.233     6241.174     1540.992        1.888        0.495      166.228       41.145        0.061      340.592       14.718      860.414
09/22/2013  21:34:00      -10.123      188.650      -28.073       32.814       40.734       17.675     1076.745     1659.235      312.396        1.976        0.152      188.922       13.938        0.005      340.611       14.750      860.428
09/22/2013  21:35:00       12.169       79.315       -8.019       40.040       47.664       26.500     1603.185     2271.904      702.267        0.554        0.229       80.243       28.555        0.127      340.487       14.542      860.427
09/22/2013  21:36:00      -48.614       81.497      -14.322       52.503       60.810       34.952     2756.523     3697.816     1221.667        0.844        0.384       94.895       33.962        0.128      340.546       14.641      860.430
09/22/2013  21:37:00      -60.605      106.187      -13.453       42.307       42.050       24.556     1789.919     1768.176      603.006        0.964        0.208      122.265       21.302        0.030      340.597       14.727      860.438
09/22/2013  21:38:00       10.654      120.668      -20.338       22.943       36.442       19.286      526.395     1328.011      371.957        0.866        0.111      121.137       18.269        0.023      340.566       14.675      860.449
09/22/2013  21:39:00      -19.119      140.889      -14.990       36.461       51.403       23.161     1329.420     2642.261      536.421        1.247        0.225      142.181       28.607        0.040      340.504       14.569      860.461
09/22/2013  21:40:00      -90.971      115.488       -5.757       62.061       85.858       46.327     3851.623     7371.671     2146.194        1.751        0.668      147.014       47.249        0.103      340.571       14.682      860.468
09/22/2013  21:41:00      -62.186      178.625      -19.138       49.133       55.674       34.584     2414.024     3099.624     1196.023        2.142        0.335      189.140       33.871        0.032      340.616       14.757      860.471
09/22/2013  21:42:00      -42.641      239.113      -23.640       43.958       66.714       28.358     1932.326     4450.789      804.152        3.337        0.359      242.886       28.967        0.014      340.572       14.683      860.468
09/22/2013  21:43:00      -54.494      173.610      -13.588       52.950       67.575       33.129     2803.721     4566.327     1097.549        2.088        0.423      181.961       31.637        0.030      340.504       14.567      860.461
09/22/2013  21:44:00      -90.023      216.082      -24.464       78.811       87.004       47.512     6211.134     7569.661     2257.422        3.571        0.802      234.085       42.257        0.033      340.540       14.629      860.457
09/22/2013  21:45:00     -117.641      147.922      -19.137       78.470       77.410       48.660     6157.585     5992.250     2367.755        2.530        0.726      188.998       48.495        0.066      340.547       14.642      860.468
09/22/2013  21:46:00     -151.865      210.789      -39.744       87.175      116.261       50.916     7599.407    13516.541     2592.400        4.639        1.185      259.798       64.745        0.062      340.543       14.633      860.483
09/22/2013  21:47:00     -155.538      153.022      -39.522       74.997       84.465       33.918     5624.507     7134.340     1150.427        3.154        0.695      218.192       39.043        0.032      340.516       14.588      860.483
09/22/2013  21:48:00     -134.448      185.092      -32.908       81.943       91.500       47.264     6714.679     8372.168     2233.845        3.537        0.866      228.769       46.122        0.041      340.488       14.542      860.488
09/22/2013  21:49:00     -131.019      171.336      -24.049       75.555       95.425       52.602     5708.492     9105.841     2766.990        3.234        0.879      215.690       52.924        0.060      340.513       14.584      860.476
09/22/2013  21:50:00     -157.925      144.896      -27.475       61.180       84.270       48.932     3742.966     7101.468     2394.328        2.996        0.662      214.325       52.745        0.061      340.533       14.615      860.463
09/22/2013  21:51:00     -152.557      149.998      -29.937       65.280       56.840       37.486     4261.506     3230.763     1405.234        2.778        0.445      213.946       28.493        0.018      340.532       14.615      860.454
09/22/2013  21:52:00     -148.540      163.058      -33.247       61.074       78.880       41.480     3730.059     6221.999     1720.591        3.071        0.584      220.572       34.407        0.024      340.543       14.632      860.460
09/22/2013  21:53:00     -104.464      137.169      -20.529       51.725       59.594       34.992     2675.455     3551.404     1224.452        1.880        0.373      172.419       37.630        0.048      340.526       14.604      860.459
09/22/2013  21:54:00     -147.107      188.414      -40.253       36.984       49.705       27.324     1367.821     2470.557      746.621        3.167        0.229      239.040       22.898        0.009      340.529       14.608      860.455
09/22/2013  21:55:00      -89.707      159.168      -18.682       50.468       66.104       31.812     2547.032     4369.766     1012.020        2.083        0.396      182.707       38.370        0.044      340.504       14.568      860.456
09/22/2013  21:56:00      -88.083      100.651      -16.960       43.592       48.011       30.371     1900.285     2305.091      922.402        1.165        0.256      133.751       32.570        0.059      340.492       14.548      860.463
09/22/2013  21:57:00      -90.075      142.706      -27.898       47.837       50.898       27.651     2288.407     2590.617      764.568        1.745        0.282      168.756       24.962        0.022      340.468       14.509      860.476
09/22/2013  21:58:00     -106.898       99.915      -25.803       29.425       55.839       25.749      865.836     3118.048      663.003        1.336        0.232      146.322       27.230        0.035      340.470       14.511      860.493
09/22/2013  21:59:00      -50.605       41.017       -3.853       33.180       23.573       19.728     1100.922      555.707      389.191        0.315        0.102       65.140       17.464        0.072      340.447       14.474      860.513
09/22/2013  22:00:00      -58.885      107.162      -15.352       38.743       36.297       30.027     1501.056     1317.480      901.602        0.945        0.186      122.275       25.640        0.044      340.441       14.463      860.517
09/22/2013  22:01:00      -81.306      109.584      -24.387       41.887       56.621       28.300     1754.487     3205.970      800.902        1.249        0.288      136.453       22.360        0.027      340.459       14.491      860.524
09/22/2013  22:02:00      -38.502       99.998       -9.179       38.507       45.622       22.883     1482.772     2081.404      523.649        0.783        0.204      107.155       23.742        0.049      340.439       14.459      860.535
09/22/2013  22:03:00      -50.053      105.282       -7.681       42.595       32.084       24.655     1814.292     1029.406      607.865        0.855        0.173      116.574       24.287        0.043      340.374       14.351      860.543
09/22/2013  22:04:00       18.284       64.416       -3.975       23.044       44.007       19.594      531.045     1936.619      383.943        0.368        0.143       66.961       18.736        0.078      340.363       14.331      860.559
09/22/2013  22:05:00       53.291       57.998        9.664       36.991       21.621       21.116     1368.353      467.471      445.866        0.429        0.114       78.764        9.672        0.015      340.291       14.210      860.571
09/22/2013  22:06:00      172.164      106.980        2.429       46.732       41.948       33.219     2183.871     1759.658     1103.483        2.307        0.252      202.695       12.492        0.004      340.264       14.162      860.582
09/22/2013  22:07:00      160.097       99.312       38.106       63.953       56.329       51.886     4089.984     3172.959     2692.200        2.345        0.498      188.398       39.507        0.044      340.169       14.002      860.602
09/22/2013  22:08:00      169.911      121.666       42.508       74.251       52.418       44.367     5513.191     2747.616     1968.438        2.785        0.511      208.979       22.537        0.012      340.083       13.856      860.626
09/22/2013  22:09:00      157.153       92.136        8.914       74.777       42.383       38.659     5591.526     1796.314     1494.509        2.107        0.444      182.171       22.296        0.015      340.060       13.818      860.630
09/22/2013  22:10:00       90.587       68.901       15.200       59.018       42.556       34.928     3483.147     1810.987     1219.981        0.985        0.326      113.813       18.542        0.027      340.055       13.812      860.639
09/22/2013  22:11:00      112.215       66.360       27.150       55.010       41.957       32.028     3026.153     1760.385     1025.805        1.177        0.291      130.368       19.827        0.023      340.048       13.801      860.638
09/22/2013  22:12:00       90.361       54.988       19.510       56.793       39.040       38.095     3225.398     1524.161     1451.202        0.888        0.310      105.778       28.266        0.071      340.012       13.739      860.638
09/22/2013  22:13:00      161.747      103.808       24.663       53.433       44.072       43.629     2855.073     1942.334     1903.529        2.212        0.335      192.193       21.413        0.012      339.992       13.703      860.650
09/22/2013  22:14:00      176.260      108.592       31.849       82.638       55.327       50.295     6829.044     3061.098     2529.599        2.814        0.621      207.026       42.986        0.043      340.137       13.947      860.658
09/22/2013  22:15:00      119.229       84.403       51.544       96.797       57.540       50.988     9369.625     3310.904     2599.741        1.964        0.764      146.080       50.399        0.119      340.258       14.153      860.679
09/22/2013  22:16:00      133.342       72.892       29.894       76.829       41.022       39.877     5902.661     1682.833     1590.193        1.658        0.459      151.965       36.469        0.058      340.246       14.133      860.714
09/22/2013  22:17:00       44.984       69.422        0.237       39.383       53.014       33.535     1551.020     2810.496     1124.607        0.616        0.274       82.722       32.262        0.152      340.142       13.958      860.738
09/22/2013  22:18:00       48.512       64.572        4.520       44.425       33.513       28.138     1973.591     1123.116      791.752        0.522        0.194       80.765       19.259        0.057      340.159       13.987      860.739
09/22/2013  22:19:00      119.876       49.961       15.263       33.570       34.052       30.912     1126.918     1159.536      955.581        1.017        0.162      129.870       15.248        0.014      340.165       13.997      860.743
09/22/2013  22:20:00       43.256       21.530       17.179       27.901       21.295       18.395      778.448      453.494      338.383        0.210        0.079       48.318       14.166        0.086      340.123       13.928      860.743
09/22/2013  22:21:00       88.940       47.715       23.505       42.464       38.998       31.452     1803.233     1520.858      989.257        0.753        0.216      100.931       18.807        0.035      340.175       14.013      860.749
09/22/2013  22:22:00       70.659       46.628       12.031       21.809       21.734       20.470      475.632      472.353      419.011        0.434        0.068       84.657       14.298        0.029      340.108       13.900      860.758
09/22/2013  22:23:00       85.956       42.190        5.752       28.111       23.035       12.310      790.251      530.621      151.545        0.534        0.074       95.752        5.940        0.004      340.109       13.901      860.769
09/22/2013  22:24:00       78.370       46.523       30.470       24.880       23.177       22.989      619.023      537.193      528.514        0.546        0.084       91.139        9.873        0.012      340.110       13.904      860.781
09/22/2013  22:25:00      119.048       70.705       45.481       49.840       35.485       35.992     2483.983     1259.218     1295.453        1.314        0.252      138.462       32.337        0.055      340.123       13.926      860.793
09/22/2013  22:26:00       49.708       49.541       46.829       42.222       33.479       33.926     1782.669     1120.836     1150.963        0.559        0.203       70.180       27.764        0.157      340.129       13.936      860.805
09/22/2013  22:27:00       32.745       11.896       35.071       31.382       35.502       28.795      984.819     1260.383      829.158        0.276        0.154       34.838       12.024        0.119      340.129       13.936      860.807
09/22/2013  22:28:00       64.441       68.466       57.503       61.352       42.498       47.084     3764.022     1806.043     2216.946        0.997        0.389       94.022       46.465        0.244      340.099       13.886      860.827
09/22/2013  22:29:00       78.943       32.181       34.221       44.225       32.078       33.564     1955.875     1028.975     1126.566        0.627        0.206       85.250       36.015        0.178      340.032       13.774      860.850
09/22/2013  22:30:00      120.445       73.704       38.019       45.607       29.894       28.050     2080.009      893.631      786.802        1.257        0.188      141.207       19.595        0.019      340.064       13.826      860.872
09/22/2013  22:31:00      122.216       71.212       26.488       50.697       32.359       31.848     2570.191     1047.123     1014.277        1.267        0.232      141.449       25.638        0.033      339.991       13.704      860.890
09/22/2013  22:32:00       72.309       69.030       37.965       53.171       36.433       34.847     2827.103     1327.343     1214.346        0.840        0.268       99.969       31.139        0.097      339.920       13.583      860.899
09/22/2013  22:33:00      129.797       50.408        9.062       57.734       51.558       34.787     3333.230     2658.258     1210.122        1.333        0.360      139.242       12.996        0.009      339.915       13.575      860.909
09/22/2013  22:34:00       72.960       55.628       17.245       34.775       29.607       27.266     1209.313      876.593      743.429        0.577        0.141       91.748       17.198        0.035      339.827       13.427      860.931
09/22/2013  22:35:00      155.245       89.031       19.834       62.228       42.016       35.063     3872.342     1765.374     1229.390        1.964        0.343      178.962       12.029        0.005      339.918       13.578      860.944
09/22/2013  22:36:00      132.481       93.793       24.820       56.614       37.041       38.918     3205.092     1372.043     1514.613        1.653        0.305      162.322       22.726        0.020      339.848       13.461      860.961
09/22/2013  22:37:00      105.502       84.038        6.691       41.947       28.983       27.777     1759.568      840.022      771.570        1.080        0.169      134.882       16.704        0.015      339.829       13.431      860.983
09/22/2013  22:38:00       64.241       64.526       21.787       53.489       28.667       30.505     2861.106      821.781      930.543        0.669        0.231       91.053       18.957        0.043      339.801       13.385      861.003
09/22/2013  22:39:00       14.189       85.785       -0.895       35.471       51.084       29.343     1258.187     2609.595      861.033        0.614        0.236       86.951       30.376        0.122      339.756       13.308      861.029
09/22/2013  22:40:00       67.017       89.496        3.413       59.738       50.382       48.055     3568.602     2538.300     2309.326        1.046        0.421      111.807       32.972        0.087      339.810       13.400      861.040
09/22/2013  22:41:00       53.699       94.587       -8.951       44.551       41.153       31.832     1984.754     1693.559     1013.299        0.830        0.235      108.767       26.732        0.060      339.797       13.377      861.045
09/22/2013  22:42:00       27.379       54.646        7.749       39.326       44.317       33.677     1546.516     1963.962     1134.137        0.422        0.232       61.122       28.084        0.211      339.736       13.275      861.041
09/22/2013  22:43:00       60.394       50.205       10.110       41.617       34.610       29.100     1732.001     1197.873      846.816        0.502        0.189       78.536       20.048        0.065      339.758       13.312      861.054
09/22/2013  22:44:00       70.240       42.652       26.399       42.006       29.087       24.288     1764.471      846.046      589.901        0.532        0.160       82.176        6.503        0.006      339.732       13.268      861.067
09/22/2013  22:45:00       94.205       58.214        7.869       37.693       29.889       25.524     1420.751      893.330      651.493        0.764        0.148      110.740       13.959        0.016      339.840       13.449      861.059
09/22/2013  22:46:00       64.007       42.375       12.500       29.252       23.210       24.292      855.693      538.723      590.106        0.402        0.099       76.763       15.641        0.042      339.767       13.327      861.060
09/22/2013  22:47:00       75.314       42.198        8.874       37.127       25.396       31.180     1378.449      644.934      972.179        0.526        0.150       86.330       15.725        0.033      339.794       13.373      861.066
09/22/2013  22:48:00       81.886       37.089        3.939       38.535       34.469       24.120     1484.920     1188.098      581.772        0.568        0.163       89.894       25.346        0.080      339.759       13.313      861.067
09/22/2013  22:49:00       46.217       12.076       21.590       36.341       26.229       18.963     1320.664      687.980      359.583        0.256        0.118       47.769       16.661        0.122      339.718       13.243      861.063
09/22/2013  22:50:00       40.835       31.637       13.305       24.679       25.267       23.422      609.035      638.420      548.592        0.232        0.090       51.657       13.114        0.064      339.723       13.252      861.075
09/22/2013  22:51:00       -8.446        7.804       15.290       10.502       12.121        9.636      110.295      146.914       92.850        0.036        0.018       11.499        7.630        0.440      339.629       13.093      861.073
09/22/2013  22:52:00       -1.048        2.045       11.141       14.677        8.864        6.968      215.400       78.562       48.555        0.024        0.017        2.298        5.439        5.603      339.579       13.009      861.077
09/22/2013  22:53:00       73.485       47.058        2.631       24.880       26.008       16.193      618.994      676.398      262.227        0.459        0.078       87.261        4.563        0.003      339.672       13.165      861.086
09/22/2013  22:54:00       81.291       52.547       10.566       28.998       18.311       18.222      840.857      335.306      332.037        0.549        0.075       96.795       10.100        0.011      339.666       13.158      861.103
09/22/2013  22:55:00       27.456       11.252       22.658       22.926       25.174       14.748      525.620      633.716      217.503        0.139        0.069       29.672        9.566        0.104      339.624       13.085      861.115
09/22/2013  22:56:00       67.890        7.657        6.155       30.165       18.120       22.258      909.900      328.334      495.402        0.322        0.087       68.321       13.649        0.040      339.679       13.179      861.115
09/22/2013  22:57:00        5.450       16.649       20.992       12.624       16.976       14.822      159.373      288.169      219.703        0.071        0.033       17.519       11.767        0.451      339.661       13.146      861.117
09/22/2013  22:58:00       73.287       38.523        5.946       19.699       19.663       18.060      388.032      386.625      326.153        0.400        0.055       82.795       12.248        0.022      339.690       13.198      861.134
09/22/2013  22:59:00       63.776       38.881       10.930       21.630       16.946       19.322      467.872      287.173      373.323        0.341        0.056       74.694       16.064        0.046      339.632       13.096      861.152
09/22/2013  23:00:00       20.212       33.266       32.195       18.985       19.234       16.482      360.433      369.952      271.662        0.178        0.050       38.925       13.875        0.127      339.587       13.024      861.172
09/22/2013  23:01:00       67.845       41.334       28.348       38.728       30.609       28.665     1499.870      936.884      821.707        0.519        0.163       79.445       25.447        0.103      339.660       13.146      861.178
09/22/2013  23:02:00       49.923       36.268       25.300       17.071       14.281       15.420      291.415      203.956      237.791        0.259        0.037       61.706       10.207        0.027      339.581       13.013      861.193
09/22/2013  23:03:00       53.536       16.706        6.759       10.202       12.302       10.989      104.072      151.336      120.769        0.178        0.019       56.082        4.074        0.005      339.665       13.154      861.219
09/22/2013  23:04:00       33.170       10.164        8.715       24.408       14.009       14.500      595.736      196.259      210.253        0.114        0.050       34.692       11.449        0.109      339.582       13.015      861.239
09/22/2013  23:05:00       35.610       34.731       -0.771       26.594       16.493       13.441      707.267      272.021      180.649        0.182        0.058       49.743        7.947        0.026      339.554       12.968      861.252
09/22/2013  23:06:00       44.588       49.540        5.059       28.737       20.817       18.405      825.798      433.351      338.740        0.303        0.080       66.650       15.131        0.052      339.517       12.903      861.261
09/22/2013  23:07:00       20.724       48.036        3.017       31.377       39.016       23.571      984.488     1522.237      555.580        0.290        0.153       52.315       24.025        0.211      339.475       12.834      861.271
09/22/2013  23:08:00      -20.143       88.751      -11.643       27.482       32.786       15.394      755.259     1074.903      236.982        0.524        0.103       91.008       15.146        0.028      339.495       12.867      861.280
09/22/2013  23:09:00      -74.310       34.820      -11.673       32.649       22.758       12.954     1065.987      517.914      167.802        0.431        0.088       82.063        8.621        0.011      339.427       12.753      861.267
09/22/2013  23:10:00      -95.147       14.623      -11.247       23.963       24.252       13.273      574.218      588.153      176.172        0.537        0.067       96.265       10.505        0.012      339.414       12.731      861.244
09/22/2013  23:11:00     -138.354      -10.181      -13.029       66.314       30.040       23.549     4397.495      902.412      554.532        1.263        0.293      138.728       29.790        0.046      339.326       12.584      861.225
09/22/2013  23:12:00     -168.978       27.108      -21.457       35.545       20.403       15.418     1263.466      416.285      237.718        1.583        0.096      171.138       12.801        0.006      339.275       12.497      861.229
09/22/2013  23:13:00     -129.259       32.624       -7.343       26.110       32.192       20.460      681.711     1036.354      418.604        0.998        0.107      133.313       13.256        0.010      339.252       12.458      861.230
09/22/2013  23:14:00     -144.007       10.837      -16.184       54.193       49.196       27.069     2936.838     2420.259      732.740        1.360        0.304      144.414       22.689        0.025      339.228       12.416      861.225
09/22/2013  23:15:00     -124.108      -38.593      -10.354       39.089       49.294       33.530     1527.962     2429.880     1124.289        1.104        0.254      129.970       18.222        0.020      339.145       12.278      861.230
09/22/2013  23:16:00     -163.022      -62.789       -4.594       45.909       47.118       31.545     2107.599     2220.134      995.107        1.793        0.266      174.696       20.916        0.014      339.040       12.102      861.242
09/22/2013  23:17:00     -170.504      -40.823       -7.718       55.783       41.132       26.336     3111.714     1691.872      693.582        1.815        0.275      175.323       18.301        0.011      339.021       12.068      861.255
09/22/2013  23:18:00     -165.130      -29.175      -14.246       53.050       46.644       34.037     2814.275     2175.708     1158.507        1.723        0.307      167.687       30.968        0.034      338.987       12.013      861.258
09/22/2013  23:19:00     -183.521      -12.266      -24.108       48.822       45.867       25.919     2383.575     2103.740      671.793        1.978        0.258      183.930       21.107        0.013      339.076       12.161      861.273
09/22/2013  23:20:00     -121.956      -42.641      -18.162       36.123       61.102       27.777     1304.887     3733.406      771.557        1.141        0.290      129.196       27.680        0.046      339.062       12.137      861.288
09/22/2013  23:21:00     -117.875      -38.074       -6.836       46.237       44.504       26.382     2137.877     1980.579      696.014        1.010        0.241      123.872       20.421        0.027      339.045       12.109      861.318
09/22/2013  23:22:00      -87.228      -16.528       -3.492       37.039       38.448       27.095     1371.898     1478.211      734.148        0.574        0.179       88.780       18.965        0.046      339.019       12.068      861.334
09/22/2013  23:23:00      -70.191       30.610      -21.029       21.820       41.833       16.173      476.129     1749.975      261.577        0.440        0.124       76.575       14.873        0.038      339.172       12.323      861.352
09/22/2013  23:24:00      -31.943      -30.739       -1.841       37.563       26.969       20.137     1410.964      727.304      405.509        0.226        0.127       44.331       16.940        0.146      339.089       12.182      861.370
09/22/2013  23:25:00      -28.616       51.214      -11.262       21.175       24.330       12.864      448.384      591.933      165.495        0.239        0.060       58.666       15.379        0.069      339.215       12.395      861.372
09/22/2013  23:26:00      -44.327       64.424       -5.068       25.595       33.084       13.581      655.090     1094.580      184.430        0.404        0.097       78.201       13.416        0.029      339.230       12.421      861.364
09/22/2013  23:27:00      -56.046       18.324       -5.489       24.378       24.869       14.337      594.304      618.457      205.559        0.246        0.071       58.965       12.920        0.048      339.272       12.492      861.364
09/22/2013  23:28:00     -111.389       39.941      -17.636       34.996       20.111       15.104     1224.705      404.470      228.132        0.809        0.093      118.333        5.514        0.002      339.309       12.553      861.364
09/22/2013  23:29:00      -95.623        8.534      -18.508       26.327       30.011       17.559      693.114      900.689      308.308        0.573        0.095       96.003       13.505        0.020      339.302       12.542      861.354
09/22/2013  23:30:00     -127.943      -37.099      -15.168       30.043       38.986       17.423      902.599     1519.878      303.556        1.035        0.136      133.213        9.647        0.005      339.097       12.197      861.351
09/22/2013  23:31:00     -125.532      -50.960      -11.748       23.101       30.246       11.463      533.663      914.842      131.396        1.004        0.079      135.481       10.200        0.006      339.049       12.117      861.352
09/22/2013  23:32:00     -112.951      -42.196        1.800       32.266       31.806       19.519     1041.077     1011.617      381.010        0.849        0.122      120.576       14.426        0.014      339.003       12.039      861.328
09/22/2013  23:33:00     -144.383      -43.530       -2.896       33.296       28.771       20.635     1108.599      827.761      425.798        1.256        0.118      150.802       19.771        0.017      338.937       11.927      861.304
09/22/2013  23:34:00     -109.824      -41.812        0.187       46.883       37.966       25.243     2197.990     1441.385      637.192        0.904        0.214      117.514       25.210        0.046      338.930       11.916      861.299
09/22/2013  23:35:00      -98.494      -28.122        0.107       42.328       35.834       25.996     1791.678     1284.104      675.767        0.712        0.188      102.430       23.191        0.051      338.923       11.905      861.297
09/22/2013  23:36:00     -143.800      -38.475       -2.671       64.414       40.006       30.244     4149.215     1600.477      914.715        1.441        0.333      148.858       31.258        0.044      338.894       11.856      861.299
09/22/2013  23:37:00     -130.831      -12.057       -0.641       62.324       53.298       30.244     3884.245     2840.669      914.729        1.245        0.382      131.385       32.127        0.060      338.853       11.787      861.311
09/22/2013  23:38:00     -141.832      -21.661      -11.589       46.865       54.859       28.980     2196.283     3009.539      839.823        1.338        0.302      143.476       22.122        0.024      338.847       11.776      861.317
09/22/2013  23:39:00     -143.526      -49.599       -8.705       60.485       62.265       32.040     3658.435     3876.948     1026.582        1.585        0.428      151.855       22.430        0.022      338.839       11.763      861.318
09/22/2013  23:40:00     -120.460      -27.518       -8.172       49.339       34.981       25.010     2434.345     1223.665      625.475        0.981        0.214      123.563       16.749        0.018      338.862       11.800      861.318
09/22/2013  23:41:00     -134.682       -9.742      -24.063       50.809       45.603       30.557     2581.561     2079.642      933.702        1.220        0.280      135.034       17.176        0.016      338.867       11.810      861.328
09/22/2013  23:42:00     -102.936        1.327      -10.219       52.317       56.998       29.821     2737.082     3248.718      889.299        0.879        0.344      102.945       27.714        0.072      338.813       11.718      861.335
09/22/2013  23:43:00     -117.147        0.260      -20.046       30.616       37.244       28.074      937.312     1387.148      788.125        0.862        0.156      117.147       15.922        0.018      338.870       11.815      861.333
09/22/2013  23:44:00     -115.023      -65.872      -10.380       59.575       45.322       29.713     3549.197     2054.082      882.863        1.208        0.324      132.549       21.992        0.028      338.792       11.684      861.341
09/22/2013  23:45:00     -121.687      -31.261       -2.262       50.375       41.011       28.224     2537.639     1681.896      796.581        1.040        0.251      125.638       24.941        0.039      338.764       11.637      861.338
09/22/2013  23:46:00     -129.871      -38.487       -9.217       38.908       37.199       22.711     1513.825     1383.732      515.784        1.092        0.171      135.454       12.553        0.009      338.783       11.670      861.317
09/22/2013  23:47:00     -107.433      -47.461      -16.726       39.326       39.022       27.144     1546.557     1522.709      736.788        0.894        0.190      117.449       17.036        0.021      338.803       11.702      861.306
09/22/2013  23:48:00     -128.086      -18.709      -16.183       44.269       32.721       19.664     1959.708     1070.693      386.692        1.022        0.171      129.445       22.615        0.031      338.784       11.672      861.308
09/22/2013  23:49:00      -94.016       -7.933      -22.584       29.020       27.034       30.214      842.171      730.812      912.900        0.595        0.124       94.350       19.082        0.041      338.806       11.707      861.318
09/22/2013  23:50:00     -122.822      -18.225       -6.054       48.775       31.077       23.397     2379.036      965.794      547.442        0.967        0.195      124.167       19.441        0.025      338.780       11.665      861.318
09/22/2013  23:51:00      -72.410      -14.466       -9.729       35.813       30.308       22.095     1282.599      918.575      488.175        0.412        0.134       73.840       18.510        0.063      338.813       11.718      861.316
09/22/2013  23:52:00      -59.118        0.186       -5.703       22.761       25.304       17.335      518.059      640.268      300.505        0.249        0.073       59.118        9.414        0.025      338.827       11.742      861.310
09/22/2013  23:53:00      -19.142      -11.890        3.497       19.191       20.602       12.480      368.287      424.437      155.761        0.073        0.047       22.534       10.071        0.200      338.885       11.840      861.310
09/22/2013  23:54:00       -9.694      -13.361        1.312       13.847       14.610       11.777      191.742      213.466      138.709        0.041        0.027       16.507        9.745        0.349      338.978       11.998      861.308
09/22/2013  23:55:00       -4.478        7.674        5.838        7.988        8.839        8.069       63.816       78.122       65.107        0.016        0.010        8.885        6.591        0.550      338.919       11.900      861.290
09/22/2013  23:56:00        2.147        6.757       -1.429       12.314       10.272       10.660      151.626      105.520      113.632        0.021        0.019        7.090        6.544        0.852      338.984       12.006      861.284
09/22/2013  23:57:00       10.342      -35.251       -3.737       11.165       16.860       15.607      124.658      284.268      243.580        0.101        0.033       36.737       11.815        0.103      338.972       11.986      861.281
09/22/2013  23:58:00       22.464      -32.563       -6.016       14.631       14.566        7.332      214.074      212.162       53.758        0.104        0.024       39.559        5.781        0.021      338.987       12.011      861.291
09/22/2013  23:59:00       10.463      -17.594        6.497       18.556       23.069       14.407      344.323      532.165      207.555        0.077        0.054       20.470       15.475        0.572      338.911       11.883      861.299
